     2              OBSERVATION DATA    GPS                 RINEX VERSION / TYPE
teqc 1997Jul24 19970814                                     PGM / RUN BY / DATE
                                                            COMMENT
Original Marker Name: GRAS                                  COMMENT
Campaign Name: HPGN 1991                                    COMMENT
4-Character Station Name: GRAS                              COMMENT
6-Character Antenna Code: TRMSST                            COMMENT
Vertical Measurement Point: BPA                             COMMENT
Vertical Offset to Rinex Ref. Point: 0.0000                 COMMENT
Radial Measurement Point: RRP                               COMMENT
Radial Offset to Rinex Ref. Point: 0.0000                   COMMENT
Antenna Height from Field Measurement: 2.2200 m             COMMENT
Original XYZ: -2656666.7136 -4525623.3690 3613524.6448      COMMENT
New XYZ position is based on association with SCEC monument COMMENT
E1E9E6M5+0011. Position of that monument is believed to be  COMMENT
valid to within 1 m horizontally; vertical accuracy         COMMENT
should be no worse than 3-times this value.                 COMMENT
                                                            COMMENT
Revised Rinex header created by UCSD GPS archive for        COMMENT
GSAC on 16-Apr-1999 (1999:106) 04:26:20 GMT                 COMMENT
For assistance contact dagnew@ucsd.edu or hjohnson@ucsd.edu COMMENT
                                                            COMMENT
GRASSY 1958                                                 MARKER NAME
unknown NATIONAL GEODETIC SURVEY                            OBSERVER / AGENCY
482 TRIMBLE 4000 SST NP 4.30 / SP 4.20                      REC # / TYPE / VERS
20 TR 4000SST L1/L2 GEO                                     ANT # / TYPE
 -2656668.0000 -4525635.0000  3613531.0000                  APPROX POSITION XYZ
        2.2200        0.0000        0.0000                  ANTENNA: DELTA H/E/N
     1     1     0                                          WAVELENGTH FACT L1/2
     3    C1    L1    L2                                    # / TYPES OF OBSERV
     0                                                      INTERVAL
  1991     4    29    20    41   45.000000                  TIME OF FIRST OBS
  1991     4    30     1    33   60.000000                  TIME OF LAST OBS
     0                                                      # OF SATELLITES
                                                            END OF HEADER
 91  4 29 20 41 45.0000000  0  6G 2G16G 6G11G18G19
  21633059.3134    -212987.03347
  23590260.1094         -0.04955
  23250160.445          -0.49015
  23171114.3984         -0.71556
  22544022.039          -0.22116
  21184646.7504         -0.26357
 91  4 29 20 42  0.0000000  0  6G 2G16G 6G11G18G19
  21626408.2424    -247943.91647        -0.44073
  23589272.188       -5168.788 5
  23242969.625      -37794.097 5        -0.44031
  23170820.094       -1547.090 6        -0.21131
  22551377.305       38659.756 6        -0.15431
  21185643.7814       5251.31647
 91  4 29 20 42 15.0000000  0  6G 2G16G 6G11G18G19
  21619771.9924    -282813.66447    -27171.64063
  23588315.7974     -10200.65345        -0.47771
  23235780.844      -75569.718 6    -29435.93721
  23170555.8834      -2935.90646     -1082.39961
  22558749.3444      77395.74146     30183.69661
  21186656.0944      10559.77147        -0.10873
 91  4 29 20 42 30.0000000  0  6G 2G16G 6G11G18G19
  21613152.0164    -317596.08547    -54274.79663
  23587386.5314     -15095.57245     -3814.71561
  23228596.273     -113327.178 6    -58857.28021
  23170321.9384      -4166.91246     -2041.61561
  22566134.8754     116207.43446     60426.53161
  21187675.9774      15925.70447      4181.13163
 91  4 29 20 42 45.0000000  0  6G 2G16G 6G11G18G19
  21606548.6254    -352298.54647    -81315.64163
  23586475.1094     -19861.37345     -7528.33461
  23221413.820     -151073.993 6    -88270.33721
  23170116.156       -5247.682 6     -2883.75921
  22573532.547      155087.355 6     90722.53321
  21188705.9304      21341.31447      8401.08563
 91  4 29 20 43  0.0000000  0  6G 2G16G 6G11G18G19
  21599964.9144    -386911.01147   -108286.36563
  23585599.4924     -24488.01845    -11133.50761
  23214234.9924    -188800.07846   -117667.23961
  23169940.164       -6168.099 6     -3600.95521
  22580945.5634     194045.23146    121079.27561
  21189751.4774      26816.91746     12667.78263
 91  4 29 20 43 15.0000000  0  6G 2G16G 6G11G18G19
  21593392.8754    -421435.44647   -135188.48963
  23584744.7424     -28977.62545    -14631.90561
  23207059.938     -226507.484 6   -147049.58221
  23169796.719       -6930.367 6     -4194.91821
  22588375.2114     233078.90446    151495.09361
  21190800.3204      32350.48947     16979.64963
 91  4 29 20 43 30.0000000  0  6G 2G16G 6G11G18G19
  21586841.5394    -455866.42947   -162017.79763
  23583916.2664     -33324.77245    -18019.30161
  23199888.6334    -264190.74446   -176413.10861
  23169680.0394      -7529.02446     -4661.39861
  22595817.930      272193.612 6    181974.04421
  21191869.9924      37947.56047     21340.99963
 91  4 29 20 43 45.0000000  0  6G 2G16G 6G11G18G19
  21580305.6954    -490207.86147   -188777.32263
  23583114.2664     -37533.35845    -21298.72861
  23192720.516     -301853.910 6   -205760.97821
  23169599.492       -7968.071 6     -5003.49421
  22603275.8834     311384.99546    212512.74461
  21192944.1724      43604.13547     25748.71263
 91  4 29 20 44  0.0000000  0  6G 2G16G 6G11G18G19
  21573786.3914    -524471.24147   -215476.02963
  23582338.656      -41615.313 5    -24479.48621
  23185556.188     -339508.429 6   -235102.11021
  23169543.9384      -8259.00846     -5230.19961
  22610747.2734     350641.49746    243102.18261
  21194031.6024      49308.76846     30193.87263
 91  4 29 20 44 15.0000000  0  6G 2G16G 6G11G18G19
  21567283.1954    -558648.59947   -242107.70563
  23581588.7344     -45562.88545    -27555.52461
  23178391.0234    -377146.36246   -264430.31661
  23169521.164       -8393.892 6
  22618230.039      389970.937 6    273748.45921
  21195125.0394      55069.67447     34682.88463
 91  4 29 20 44 30.0000000  0  6G 2G16G 6G11G18G19
  21560794.8594    -592740.77847   -268673.01063
  23580859.4534     -49377.05245    -30527.60161
  23171234.773     -414768.788 6   -293746.44421
  23169521.438       -8373.697 6
  22625727.563      429371.644 6    304450.26621
  21196233.0704      60885.69347     39214.84163
 91  4 29 20 44 45.0000000  0  6G 2G16G 6G11G18G19
  21554324.9304    -626744.37147   -295169.28863
  23580163.8914     -53054.15145    -33392.88561
  23164078.414     -452371.983 6   -323047.59321
  23169556.539       -8194.836 6
  22633238.8594     468847.21546    335210.41361
  21197351.3754      66760.54647     43792.63963
 91  4 29 20 45  0.0000000  0  6G 2G16G 6G11G18G19
  21547871.4064    -660657.07647   -321594.74163
  23579486.977      -56592.159 5    -36149.78321
  23156925.008     -489953.900 6   -352332.15621
  23169620.625       -7855.181 6
  22640766.844      508399.712 6    366030.49421
  21198481.0784      72696.55246     48418.09263
 91  4 29 20 45 15.0000000  0  6G 2G16G 6G11G18G19
  21541432.0554    -694486.84647   -347955.57163
  23578841.1254     -59999.53845    -38804.88161
  23149778.016     -527522.655 6   -381606.45521
  23169712.8914      -7363.03346     -4531.97461
  22648307.406      548020.693 6    396903.94221
  21199619.4924      78685.60447     53084.88063
 91  4 29 20 45 30.0000000  0  6G 2G16G 6G11G18G19
  21535013.2974    -728226.99747   -374246.56863
  23578219.0084     -63269.99045    -41353.29761
  23142630.281     -565071.593 6   -410865.32221
  23169836.594       -6711.741 6     -4024.46321
  22655860.906      587716.454 6    427835.65821
  21200773.2344      84734.24746     57798.09963
 91  4 29 20 45 45.0000000  0  6G 2G16G 6G11G18G19
  21528611.2034    -761876.01447   -400466.55163
  23577617.1094     -66401.99845    -43793.82261
  23135492.273     -602599.170 6   -440107.53821
  23169992.1724      -5899.80746     -3391.78461
  22663430.297      627488.178 6    458826.57021
  21201932.3674      90844.20547     62559.09963
 91  4 29 20 46  0.0000000  0  6G 2G16G 6G11G18G19
  21522220.9844    -795445.50647   -426624.56663
  23577047.8204     -69406.94045    -46135.33561
  23128349.281     -640117.020 6   -469342.18021
  23170175.2894      -4938.83146     -2642.95961
  22671009.375      667324.316 6    489867.67421
  21203104.1334      97003.91847     67358.86863
 91  4 29 20 46 15.0000000  0  6G 2G16G 6G11G18G19
  21515851.6334    -828926.09547   -452713.31263
  23576500.3204     -72275.55945    -48370.64061
  23121215.438     -677615.571 6   -498561.78521
  23170388.719       -3819.508 6     -1770.74421
  22678603.0554     707234.05246    520966.13361
  21204289.9924     103222.91047     72204.83563
 91  4 29 20 46 30.0000000  0  6G 2G16G 6G11G18G19
  21509495.2814    -862326.05547   -478739.22363
  23575983.820      -75016.401 5    -50506.36421
  23114081.5864    -715103.16546   -527772.85761
  23170628.1804      -2549.96446      -781.47761
  22686210.398      747208.791 6    552115.23421
  21205486.3134     109493.09146     77090.68163
 91  4 29 20 46 45.0000000  0  6G 2G16G 6G11G18G19
  21503155.3444    -895642.81047   -504700.29863
  23575486.383      -77627.215 5    -52540.77521
  23106948.836     -752577.444 6   -556973.54221
  23170900.6254      -1127.83846       326.67561
  22693829.578      787250.776 6    583316.73121
  21206686.9384     115816.99347     82018.39463
 91  4 29 20 47  0.0000000  0  6G 2G16G 6G11G18G19
  21496830.1644    -928879.18447   -530598.74463
  23575013.1414     -80111.09645    -54476.26461
  23099818.805     -790041.167 6   -586166.00421
  23171198.766         443.952 6      1551.46021
  22701463.367      827356.779 6    614568.11221
  21207899.1804     122191.64247     86985.64463
 91  4 29 20 47 15.0000000  0  6G 2G16G 6G11G18G19
  21490520.6884    -962034.87747   -556434.31763
  23574563.984      -82467.551 5    -56312.47421
  23092696.8284    -827494.10246   -615350.06761
  23171526.7894       2165.60346      2893.02061
  22709107.781      867527.221 6    645869.70321
  21209119.8914     128617.43547     91992.75163
 91  4 29 20 47 30.0000000  0  6G 2G16G 6G11G18G19
  21484226.9454    -995106.31647   -582204.23963
  23574140.0864     -84693.08245    -58046.65961
  23085569.984     -864932.677 6   -644522.92821
  23171885.914        4040.597 6      4354.06121
  22716765.016      907765.094 6    677223.85221
  21210354.6414     135097.85247     97042.42062
 91  4 29 20 47 45.0000000  0  6G 2G16G 6G11G18G19
  21477950.0234   -1028093.24847   -607908.31563
  23573741.328      -86787.790 5    -59678.91221
  23078446.6484    -902356.56046   -673684.35761
  23172269.445        6069.301 6      5934.88621
  22724434.430      948070.401 6    708630.53221
  21211598.0784     141633.41747    102135.06362
 91  4 29 20 48  0.0000000  0  6G 2G16G 6G11G18G19
  21471688.7424   -1060995.99847   -633546.78763
  23573368.805      -88752.258 5    -61209.67921
  23071329.2034    -939766.09946   -702834.60361
  23172684.9304       8251.23246      7635.10361
  22732115.930      988442.365 6    740089.16421
  21212853.2114     148223.69347    107270.34062
 91  4 29 20 48 15.0000000  0  6G 2G16G 6G11G18G19
  21465443.6414   -1093812.42747   -659118.00163
  23573020.9844     -90584.23545    -62637.20361
  23064215.586     -977159.396 6   -731972.18821
  23173129.336       10588.316 6      9456.22121
  22739812.742     1028883.082 6    771601.36221
  21214118.4304     154870.84347    112449.93562
 91  4 29 20 48 30.0000000  0  6G 2G16G 6G11G18G19
  21459214.6564   -1126548.72647   -684626.77663
  23572693.8674     -92290.60345    -63966.83561
  23057100.578    -1014542.535 6   -761101.85121
  23173602.125       13074.390 6     11393.43521
  22747520.219     1069386.200 6    803162.19121
  21215394.1254     161568.77546    117669.09763
 91  4 29 20 48 45.0000000  0  6G 2G16G 6G11G18G19
  21453001.5234   -1159200.74347   -710069.87663
  23572395.602      -93867.170 5    -65195.34421
  23049990.266    -1051911.436 6   -790220.43421
  23174105.305       15713.515 6     13449.90621
  22755239.547     1109955.403 6    834774.51221
  21216677.1884     168321.62847    122931.05363
 91  4 29 20 49  0.0000000  0  6G 2G16G 6G11G18G19
  21446805.0784   -1191764.93247   -735444.54063
  23572121.3444     -95310.51445    -66320.02961
  23042880.688    -1089262.525 6   -819325.12721
  23174636.5164      18509.15646     15628.33961
  22762971.766     1150594.202 6    866441.06021
  21217974.7344     175133.01746    128238.62663
 91  4 29 20 49 15.0000000  0  6G 2G16G 6G11G18G19
  21440623.0314   -1224245.43847   -760753.99763
  23571872.5314     -96624.86545    -67344.20761
  23035776.117    -1126599.812 6   -848419.07221
  23175199.6024      21457.21046     17925.52861
  22770717.141     1191298.068 6    898158.31421
  21219279.9144     181998.96547    133588.71262
 91  4 29 20 49 30.0000000  0  6G 2G16G 6G11G18G19
  21434458.258    -1256640.132 7   -785996.58923
  23571643.3204     -97808.35845    -68266.41861
  23028672.7584   -1163921.43046   -877500.80661
  23175787.078       24559.483 6     20342.90121
  22778475.9924    1232068.91346    929927.76561
  21220598.7344     188921.50946    138982.89363
 91  4 29 20 49 45.0000000  0  6G 2G16G 6G11G18G19
  21428312.4534   -1288946.96747   -811170.72263
  23571447.227      -98859.194 5    -69085.26721
  23021569.1564   -1201225.27446   -906568.69761
  23176409.641       27818.030 6     22882.04121
  22786247.688     1272908.286 6    961750.60021
  21221925.2274     195902.78947    144422.85362
 91  4 29 20 50  0.0000000  0  6G 2G16G 6G11G18G19
  21422179.0704   -1321169.39047   -836279.07563
  23571269.3674     -99780.79945    -69803.40661
  23014478.406    -1238514.750 6   -935625.37821
  23177059.203       31229.380 6     25540.25021
  22794034.531     1313812.752 6    993624.16521
  21223263.4454     202939.43746    149905.94862
 91  4 29 20 50 15.0000000  0  6G 2G16G 6G11G18G19
  21416064.2504   -1353305.71347   -861320.33763
  23571119.141     -100571.526 5    -70419.56621
  23007386.727    -1275788.158 6   -964669.55221
  23177734.867       34795.180 6     28318.81521
  22801827.930     1354783.656 6   1025549.49521
  21224614.8364     210033.16646    155433.52862
 91  4 29 20 50 30.0000000  0  6G 2G16G 6G11G18G19
  21409964.828    -1385357.660 7   -886295.85423
  23570997.4774    -101233.34145    -70935.27661
  23000293.8674   -1313047.31346   -993702.60761
  23178444.1724      38513.46346     31216.18361
  22809636.711     1395818.903 6   1057524.96921
  21225974.6334     217182.22446    161004.21562
 91  4 29 20 50 45.0000000  0  6G 2G16G 6G11G18G19
  21403882.6414   -1417317.74447   -911199.79163
  23570896.6094    -101759.10445    -71344.96861
  22993213.281    -1350284.668 6  -1022718.68621
  23179180.938       42391.735 6     34238.23321
  22817460.383     1436925.760 6   1089556.24021
  21227346.4774     224394.19846    166623.93762
 91  4 29 20 51  0.0000000  0  6G 2G16G 6G11G18G19
  21397816.516    -1449193.432 7   -936037.96123
  23570819.492     -102156.428 5    -71654.58021
  22986124.2504   -1387507.74346  -1051723.63261
  23179950.8834      46422.37846     37379.00361
  22825294.344     1478096.640 6   1121637.40121
  21228729.6414     231661.70146    172286.91962
 91  4 29 20 51 15.0000000  0  6G 2G16G 6G11G18G19
  21391768.367    -1480980.804 7   -960807.31923
  23570768.805     -102421.641 5    -71861.25921
  22979048.031    -1424712.552 6  -1080714.35021
  23180744.984       50609.312 6     40641.56321
  22833142.547     1519335.098 6   1153771.21521
  21230122.4454     238988.62846    177996.21062
 91  4 29 20 51 30.0000000  0  6G 2G16G 6G11G18G19
  21385737.250    -1512680.998 7   -985508.74323
  23570737.0634    -102555.88545
  22971970.0234   -1461900.40546  -1109691.85561
  23181572.227       54951.144 6     44024.82021
  22841002.953     1560639.960 6   1185956.77321
  21231529.1564     246373.86446    183750.93662
 91  4 29 20 51 45.0000000  0  6G 2G16G 6G11G18G19
  21379720.953    -1544292.611 7  -1010141.14723
  23570741.7424    -102558.02945
  22964896.711    -1499069.825 6  -1138654.99121
  23182427.586       59449.339 6     47529.91721
  22848875.297     1602012.039 6   1218194.70721
  21232945.8914     253818.95446    189552.30162
 91  4 29 20 52  0.0000000  0  6G 2G16G 6G11G18G19
  21373722.156    -1575815.342 7  -1034704.28923
  23570767.930     -102427.891 5
  22957826.4224   -1536220.44446  -1167603.47961
  23183313.1724      64104.02346     51156.95461
  22856760.508     1643451.438 6   1250485.09521
  21234376.6174     261324.27446    195400.59662
 91  4 29 20 52 15.0000000  0  6G 2G16G 6G11G18G19
  21367741.180    -1607248.854 7  -1059197.91223
  23570819.461     -102165.265 5
  22950759.9224   -1573352.19746  -1196537.26761
  23184228.5314      68915.44246     54906.11761
  22864659.867     1684958.268 6   1282828.03721
  21235815.3204     268890.18346    201296.11062
 91  4 29 20 52 30.0000000  0  6G 2G16G 6G11G18G19
  21361774.961    -1638596.271 7  -1083624.44623
  23570892.9534    -101773.54345    -71356.28361
  22943697.523    -1610467.966 6  -1225458.59921
  23185174.2894      73880.50446     58775.00861
  22872570.781     1726529.282 6   1315220.98421
  21237265.5084     276513.62646    207236.44862
 91  4 29 20 52 45.0000000  0  6G 2G16G 6G11G18G19
  21355825.414    -1669859.355 7  -1107985.26623
  23570995.3914    -101254.97345    -70952.19961
  22936638.438    -1647569.690 6  -1254368.98621
  23186146.7894      78997.18646     62762.03961
  22880491.930     1768162.178 6   1347662.15721
  21238726.0394     284192.77046    213220.19462
 91  4 29 20 53  0.0000000  0  6G 2G16G 6G11G18G19
  21349893.313    -1701036.240 7  -1132278.92423
  23571113.992     -100607.409 5    -70447.61121
  22929579.133    -1684655.324 6  -1283266.84021
  23187147.9844      84267.46946     66868.74861
  22888426.875     1809858.784 6   1380152.97921
  21240202.3444     291929.62846    219248.91362
 91  4 29 20 53 15.0000000  0  6G 2G16G 6G11G18G19
  21343976.758    -1732124.725 7  -1156503.69223
  23571261.2424     -99828.70645    -69840.84861
  22922525.6954   -1721722.68446  -1312150.44861
  23188182.0864      89693.29746     71096.67761
  22896375.352     1851620.980 6   1412694.89621
  21241681.5234     299726.41646    225324.33062
 91  4 29 20 53 30.0000000  0  6G 2G16G 6G11G18G19
  21338078.000    -1763123.506 7  -1180658.56423
  23571437.9614     -98918.19645    -69131.36761
  22915476.5634   -1758770.63146  -1341018.94261
  23189242.8054      95275.78846     75446.67261
  22904333.820     1893449.670 6   1445288.62821
  21243178.3914     307584.39346    231447.42362
 91  4 29 20 53 45.0000000  0  6G 2G16G 6G11G18G19
  21332198.813    -1794024.060 7  -1204736.89923
  23571637.1644     -97867.24845    -68312.45261
  22908431.016    -1795790.463 6  -1369865.51221
  23190339.8674     101023.43546     79925.36261
  22912307.313     1935353.459 6   1477940.87621
  21244685.8054     315512.19646    237624.93062
 91  4 29 20 54  0.0000000  0  6G 2G16G 6G11G18G19
  21326336.016    -1824827.657 7  -1228739.67923
  23571860.5314     -96677.33345    -67385.25761
  22901393.906    -1832783.418 6  -1398691.14621
  23191461.8914     106934.92946     84531.72461
  22920294.625     1977330.692 6   1510650.36421
  21246209.2894     323508.56746    243855.85762
 91  4 29 20 54 15.0000000  0  6G 2G16G 6G11G18G19
  21320490.422    -1855548.434 7  -1252677.92423
  23572110.0944     -95362.71545    -66360.88861
  22894354.086    -1869763.813 6  -1427506.98921
  23192616.6414     112995.98946     89254.62461
  22928295.914     2019366.829 6   1543405.75021
  21247741.8444     331559.52546    250129.32462
 91  4 29 20 54 30.0000000  0  6G 2G16G 6G11G18G19
  21314660.047    -1886182.365 7  -1276548.50223
  23572388.461      -93919.588 5    -65236.38621
  22887321.516    -1906727.405 6  -1456309.74421
  23193800.602      119210.720 6     94097.28521
  22936306.125     2061465.704 6   1576210.02221
  21249282.1724     339669.28446    256448.61562
 91  4 29 20 54 45.0000000  0  6G 2G16G 6G11G18G19
  21308846.938    -1916727.664 7  -1300350.01123
  23572686.016      -92346.432 5    -64010.56221
  22880293.516    -1943672.479 6  -1485098.07021
  23195013.3134     125580.62946     99060.84961
  22944332.500     2103628.864 6   1609064.38521
  21250836.2344     347839.39346    262814.92462
 91  4 29 20 55  0.0000000  0  6G 2G16G 6G11G18G19
  21303052.984    -1947187.821 7  -1324085.17723
  23573004.1884     -90647.20745    -62686.49561
  22873263.547    -1980602.672 6  -1513874.80021
  23196254.2194     132101.99346    104142.43661
  22952366.4144    2145852.43446   1641965.81461
  21252401.9534     356066.44946    269225.61362
 91  4 29 20 55 15.0000000  0  6G 2G16G 6G11G18G19
  21297273.570    -1977554.020 7  -1347747.13223
  23573357.414      -88813.065 5    -61257.30921
  22866239.508    -2017509.174 6  -1542633.07521
  23197525.3284     138783.49646    109348.80961
  22960413.328     2188145.058 6   1674921.05021
  21253979.9304     364359.38846    275687.63762
 91  4 29 20 55 30.0000000  0  6G 2G16G 6G11G18G19
  21291511.680    -2007836.506 7  -1371343.85623
  23573730.5944     -86854.39345    -59731.08461
  22859219.039    -2054402.057 6  -1571380.72321
  23198825.2034     145615.09046    114672.12061
  22968473.828     2230496.154 6   1707921.85221
  21255571.5164     372708.22246    282193.21862
 91  4 29 20 55 45.0000000  0  6G 2G16G 6G11G18G19
  21285765.031    -2038030.159 7  -1394871.35723
  23574128.555      -84766.102 5    -58103.84921
  22852206.0084   -2091276.23346  -1600113.81161
  23200154.3054     152601.78446    120116.30361
  22976543.266     2272910.624 6   1740972.03421
  21257169.0004     381117.94646    288746.24762
 91  4 29 20 56  0.0000000  0  6G 2G16G 6G11G18G19
  21280036.070    -2068134.224 7  -1418329.04623
  23574547.883      -82547.912 5    -56375.41221
  22845185.6174   -2128130.97746  -1628831.75861
  23201514.1564     159744.08446    125681.72961
  22984626.773     2315389.163 6   1774072.14321
  21258783.2814     389589.40046    295347.37362
 91  4 29 20 56 15.0000000  0  6G 2G16G 6G11G18G19
  21274325.289    -2098148.261 7  -1441716.58523
  23574997.250      -80199.417 5    -54545.42921
  22838180.750    -2164965.791 6  -1657534.15921
  23202901.4304     167042.32746    131368.67361
  22992723.609     2357931.825 6   1807222.21721
  21260406.3284     398123.19846    301997.07862
 91  4 29 20 56 30.0000000  0  6G 2G16G 6G11G18G19
  21268630.750    -2128073.221 7  -1465034.71823
  23575467.1884     -77721.71645    -52614.76061
  22831174.4534   -2201781.52246  -1686221.70361
  23204318.0944     174495.59746    137176.41861
  23000830.313     2400537.452 6   1840421.35721
  21262047.4304     406718.43346    308694.66162
 91  4 29 20 56 45.0000000  0  6G 2G16G 6G11G18G19
  21262952.422    -2157906.207 7  -1488281.18023
  23575965.813      -75112.275 5    -50581.45521
  22824173.5704   -2238575.40546  -1714892.21861
  23205769.2114     182106.46746    143106.97061
  23008950.680     2443208.454 6   1873671.43721
  21263690.4774     415377.87646    315442.27062
 91  4 29 20 57  0.0000000  0  6G 2G16G 6G11G18G19
  21257294.805    -2187647.515 7  -1511456.20823
  23576488.8444     -72371.34345    -48445.68261
  22817174.648    -2275347.604 6  -1743545.83821
  23207246.8134     189874.65746    149160.10261
  23017081.602     2485944.541 6   1906972.23421
  21265350.1644     424101.42846    322239.84162
 91  4 29 20 57 15.0000000  0  6G 2G16G 6G11G18G19
  21251652.359    -2217294.499 7  -1534557.73523
  23577032.0084     -69496.61645    -46205.64161
  22810184.633    -2312095.640 6  -1772180.62521
  23208755.0164     197802.47146    155337.62661
  23025226.984     2528747.948 6   1940325.48521
  21267023.9534     432891.84646    329089.51162
 91  4 29 20 57 30.0000000  0  6G 2G16G 6G11G18G19
  21246028.820    -2246848.195 7  -1557586.56923
  23577605.9534     -66489.33045    -43862.31061
  22803193.4224   -2348820.56346  -1800797.41761
  23210294.8284     205888.71246    161638.59061
  23033385.898     2571617.236 6   1973730.07021
  21268710.3444     441747.91546    335990.33162
 91  4 29 20 57 45.0000000  0  6G 2G16G 6G11G18G19
  21240420.922    -2276311.875 7  -1580545.25723
  23578203.9924     -63352.78145    -41418.26361
  22796209.8524   -2385525.31846  -1829398.47861
  23211860.9454     214130.28546    168060.59961
  23041556.094     2614549.498 6   2007183.73021
  21270405.0704     450666.59046    342939.94562
 91  4 29 20 58  0.0000000  0  6G 2G16G 6G11G18G19
  21234831.781    -2305685.735 7  -1603433.96023
  23578824.602      -60087.156 5    -38873.64321
  22789228.9534   -2422210.25246  -1857984.10261
  23213459.8364     222526.80846    174603.33961
  23049740.2504    2657544.02146   2040685.89861
  21272116.9534     459647.68146    349938.20262
 91  4 29 20 58 15.0000000  0  6G 2G16G 6G11G18G19
  21229258.797    -2334970.947 7  -1626253.58823
  23579470.094      -56694.288 5    -36229.85421
  22782251.5394   -2458876.49146  -1886555.15161
  23215086.8054     231077.05746    181265.87761
  23057930.289     2700599.100 6   2074235.25721
  21273834.3054     468690.17846    356984.28362
 91  4 29 20 58 30.0000000  0  6G 2G16G 6G11G18G19
  21223704.727    -2364156.662 7  -1648995.68423
  23580140.141      -53163.374 5    -33478.50321
  22775278.5634   -2495513.02846  -1915103.05961
  23216745.4064     239791.72046    188056.52061
  23066137.188     2743725.424 6   2107840.12921
  21275569.9224     477805.03946    364086.76262
 91  4 29 20 58 45.0000000  0  6G 2G16G 6G11G18G19
  21218170.523    -2393247.921 7  -1671664.17623
  23580839.445      -49499.601 5    -30623.64121
  22768310.1414   -2532125.08846  -1943631.89461
  23218432.3444     248665.57846    194971.21361
  23074355.969     2786917.757 6   2141496.43221
  21277318.0554     486987.18046    371241.67362
 91  4 29 20 59  0.0000000  0  6G 2G16G 6G11G18G19
  21212650.906    -2422253.203 7  -1694265.67823
  23581558.9844     -45711.96845    -27672.25661
  22761343.961    -2568721.021 6  -1972148.16721
  23220152.7814     257690.12546    202003.32461
  23082587.445     2830167.308 6   2175197.33721
  21279079.8444     496228.34346    378442.56762
 91  4 29 20 59 15.0000000  0  6G 2G16G 6G11G18G19
  21207146.656    -2451169.123 7  -1716797.54323
  23582305.0314     -41796.95745    -24621.60661
  22754384.8364   -2605297.54246  -2000649.31461
  23221896.2974     266868.51846
  23090827.844     2873477.129 6   2208945.20121
  21280845.5164     505531.85446
 91  4 29 20 59 30.0000000  0  6G 2G16G 6G11G18G19
  21201662.055    -2479995.341 7  -1739259.50823
  23583077.1564     -37754.32945    -21471.52361
  22747428.7344   -2641854.39246  -2029135.13661
  23223672.883      276200.875 6
  23099081.3984    2916847.32946   2242740.10261
  21282628.7034     514897.92246
 91  4 29 20 59 45.0000000  0  6G 2G16G 6G11G18G19
  21196192.906    -2508730.960 7  -1761650.87423
  23583868.313      -33583.605 5    -18221.63321
  22740478.0234   -2678390.52746  -2057604.80961
  23225479.828      285688.059 6    223819.87621
  23107348.469     2960278.615 6   2276582.61021
  21284423.8674     524327.71647    400338.15962
 91  4 29 21  0  0.0000000  0  6G 2G16G 6G11G18G19
  21190742.000    -2537377.407 7  -1783972.76523
  23584687.367      -29286.487 5    -14873.23921
  22733529.0864   -2714907.31846  -2086059.41461
  23227311.8594     295328.50946    231331.91561
  23115625.156     3003769.270 6   2310471.37821
  21286230.4454     533819.86846    407734.63362
 91  4 29 21  0 15.0000000  0  6G 2G16G 6G11G18G19
  21185309.234    -2565933.055 7  -1806223.89823
  23585530.5704     -24861.48445    -11425.20061
  22726585.797    -2751403.048 6  -2114497.60321
  23229177.141      305123.771 6    238964.57521
  23123912.7894    3047320.71446   2344407.51361
  21288048.4224     543375.99046    415180.95262
 91  4 29 21  0 30.0000000  0  6G 2G16G 6G11G18G19
  21179890.734    -2594396.987 7  -1828403.56623
  23586394.328      -20307.748 5     -7876.86121
  22719644.7274   -2787876.76846  -2142918.64961
  23231072.4384     315074.68846    246718.53061
  23132209.625     3090933.688 6   2378391.59421
  21289878.0784     552997.16646    422677.96062
 91  4 29 21  0 45.0000000  0  6G 2G16G 6G11G18G19
  21174492.813    -2622768.827 7  -1850511.47323
  23587285.2114     -15625.23145     -4228.15861
  22712708.039    -2824328.322 6  -2171322.42721
  23232995.8834     325181.33846    254593.83261
  23140520.008     3134608.179 6   2412423.60121
  21291721.6724     562683.74947    430225.93862
 91  4 29 21  0 59.9990000  0  6G 2G16G 6G11G18G19
  21169111.753    -2651047.805 7  -1872547.02223
  23588201.2064     -10815.45545      -480.29661
  22705774.1054   -2860756.35046  -2199707.86561
  23234945.4014     335441.72546    262588.93061
  23148842.6124    3178339.87346   2446500.19961
  21293579.2764     572433.81746    437823.38262
 91  4 29 21  1 14.9990000  0  6G 2G16G 6G11G18G19
  21163748.003    -2679232.141 7  -1894508.82123
  23589139.8314      -5872.48045      3371.36661
  22698850.1674   -2897159.87946  -2228074.21961
  23236931.5424     345862.90946    270709.32461
  23157177.1514    3222139.92346   2480630.05061
  21295446.7924     582254.50646    445475.86162
 91  4 29 21  1 29.9990000  0  6G 2G16G 6G11G18G19
  21158403.003    -2707321.937 7  -1916396.95223
  23590107.909        -798.815 5      7324.85221
  22691923.1124   -2933538.45046  -2256421.11861
  23238943.940      356442.079 6    278952.81921
  23165523.480     3266003.495 6   2514809.39721
  21297329.9564     592143.33146    453181.43062
 91  4 29 21  1 44.9990000  0  6G 2G16G 6G11G18G19
  21153074.808    -2735318.664 7  -1938212.56623
  23591095.175        4404.089 5     11379.04521
  22685008.5194   -2969893.48046  -2284749.67261
  23240987.5814     367177.69546    287318.22961
  23173882.1594    3309928.50546   2549036.62861
  21299222.4094     602099.00046    460939.08562
 91  4 29 21  1 59.9990000  0  6G 2G16G 6G11G18G19
  21147766.261    -2763220.798 7  -1959954.46823
  23592110.144        9737.256 5     15534.73721
  22678090.9014   -3006223.38146  -2313058.65161
  23243059.1054     378071.04046    295806.54161
  23182253.761     3353916.322 6   2583312.78721
  21301131.4334     612123.18246    468750.12562
 91  4 29 21  2 14.9990000  0  6G 2G16G 6G11G18G19
  21142473.417    -2791032.493 7  -1981625.90023
  23593148.862       15196.352 5     19788.56521
  22671183.5114   -3042532.38746  -2341351.35161
  23245162.6674     389117.71546    304414.32861
  23190633.855     3397962.628 6   2617634.53621
  21303048.4804     622211.56746    476611.19562
 91  4 29 21  2 29.9990000  0  6G 2G16G 6G11G18G19
  21137199.136    -2818745.513 7  -2003220.44223
  23594214.573       20789.539 5     24146.87021
  22664278.2764   -3078812.15546  -2369621.26761
  23247295.1054     400325.95446    313148.01061
  23199029.995     3442075.402 6   2652008.06821
  21304983.4334     632372.58746    484528.86462
 91  4 29 21  2 44.9990000  0  6G 2G16G 6G11G18G19
  21131941.722    -2846367.703 7  -2024744.20323
  23595299.769       26508.548 5     28603.22621
  22657381.5344   -3115070.65446  -2397874.61061
  23249454.7374     411687.61046    322001.23961
  23207435.6444    3486246.48146   2686427.03261
  21306929.480      642598.171 7    492496.84122
 91  4 29 21  2 59.9990000  0  6G 2G16G 6G11G18G19
  21126701.706    -2873909.233 7  -2046205.12223
  23596410.6514      32343.21745     33149.70461
  22650482.675    -3151317.897 6  -2426119.19021
  23251647.753      423192.502 6    330966.07921
  23215848.620     3530465.455 6   2720883.32321
  21308885.9174     652878.45846    500507.44462
 91  4 29 21  3 14.9990000  0  6G 2G16G 6G11G18G19
  21121477.886    -2901360.183 7  -2067595.45323
  23597549.9094      38303.13745     37793.79661
  22643589.7534   -3187543.86846  -2454347.18361
  23253865.448      434850.417 6    340050.16321
  23224273.425     3574742.114 6   2755384.55921
  21310852.612      663223.536 7    508568.53222
 91  4 29 21  3 29.9990000  0  6G 2G16G 6G11G18G19
  21116272.456    -2928715.687 7  -2088911.41123
  23598708.4564      44393.00545     42539.11861
  22636699.5194   -3223743.84946  -2482554.92261
  23256113.0114     446665.90546    349257.02461
  23232712.526     3619080.654 6   2789934.00921
  21312834.495      673638.139 6    516683.79422
 91  4 29 21  3 44.9990000  0  6G 2G16G 6G11G18G19
  21111083.284    -2955985.109 7  -2110160.29323
  23599889.190       50603.312 5     47378.29721
  22629815.269    -3259927.146 6  -2510749.67921
  23258391.6594     458629.44746    358579.25561
  23241160.2764    3663471.74046   2824524.40261
  21314827.6754     684112.96146    524845.98262
 91  4 29 21  3 59.9990000  0  6G 2G16G 6G11G18G19
  21105910.042    -2983168.685 7  -2131342.28523
  23601092.433       56933.654 5     52311.02321
  22622932.3554   -3296093.79046  -2538931.44661
  23260696.4484     470740.87246    368016.72361
  23249617.815     3707914.977 6   2859155.43921
  21316832.597      694647.876 6    533054.99422
 91  4 29 21  4 14.9990000  0  6G 2G16G 6G11G18G19
  21100753.878    -3010262.255 7  -2152454.13923
  23602322.917       63387.801 5     57340.20921
  22616053.4094   -3332239.56246  -2567096.94361
  23263029.323      483004.161 6    377572.51621
  23258085.5584    3752414.30446   2893830.17961
  21318850.0974     705247.27147    541314.25162
 91  4 29 21  4 29.9990000  0  6G 2G16G 6G11G18G19
  21095615.714    -3037266.379 7  -2173496.29523
  23603572.151       69965.213 5     62465.44621
  22609179.300    -3368365.059 6  -2595246.66021
  23265390.6674     495418.60346    387246.10661
  23266563.1204    3796968.99846   2928548.06661
  21320880.7064     715910.64646    549623.36562
 91  4 29 21  4 44.9990000  0  6G 2G16G 6G11G18G19
  21090492.167    -3064193.889 7  -2194478.75823
  23604841.8944      76652.48245     67676.28661
  22602305.6364   -3404483.03246  -2623390.50061
  23267777.956      507971.246 6    397027.36921
  23275049.6594    3841565.94846   2963298.88161
  21322918.9484     726625.19946    557972.35662
 91  4 29 21  4 59.9990000  0  6G 2G16G 6G11G18G19
  21085386.714    -3091027.548 7  -2215388.08423
  23606144.3154      83466.86345     72986.17161
  22595436.003    -3440576.193 6  -2651515.01921
  23270196.3154     520679.16546    406929.62961
  23283547.253     3886222.017 6   2998095.75221
  21324971.6444     737408.23246    566374.70662
 91  4 29 21  5 14.9990000  0  6G 2G16G 6G11G18G19
  21080296.542    -3117768.562 7  -2236225.22323
  23607460.581       90407.087 5     78394.11521
  22588574.6834   -3476645.69346  -2679621.08961
  23272645.7614     533541.13346    416951.92761
  23292058.4334    3930935.65446   3032937.48761
  21327036.073      748258.691 6    574829.59822
 91  4 29 21  5 29.9990000  0  6G 2G16G 6G11G18G19
  21075226.058    -3144416.691 7  -2256989.98623
  23608806.901       97472.903 5     83899.93021
  22581714.5344   -3512691.30946  -2707708.55761
  23275120.190      546557.136 6    427094.25021
  23300577.6054    3975706.87246   3067824.09261
  21329116.2064     759176.74846    583337.16162
 91  4 29 21  5 44.9990000  0  6G 2G16G 6G11G18G19
  21070172.901    -3170978.688 7  -2277687.63023
  23610177.886      104657.259 5     89498.10021
  22574859.448    -3548719.823 6  -2735782.69821
  23277625.5974     559720.21546    437351.18261
  23309106.1754    4020528.72246   3102750.14361
  21331202.839      770155.775 6    591892.23522
 91  4 29 21  5 59.9990000  0  6G 2G16G 6G11G18G19
  21065134.745    -3197448.416 7  -2298313.37623
  23611567.659      111966.130 5     95193.31721
  22568007.8474   -3584724.91446  -2763838.57861
  23280160.2304     573036.32746    447727.35161
  23317646.3474    4065407.07146   3137720.22461
  21333303.112      781202.011 7    600499.67722
 91  4 29 21  6 14.9990000  0  6G 2G16G 6G11G18G19
  21060115.2144   -3223825.20047  -2318866.70063
  23612980.2304     119400.15645    100986.04461
  22561161.909    -3620705.772 6  -2791875.59521
  23282720.089      586506.049 6    458223.22521
  23326197.6674    4110342.40146   3172734.69361
  21335418.862      792316.240 6    609160.09922
 91  4 29 21  6 29.9990000  0  6G 2G16G 6G11G18G19
  21055113.722    -3250109.297 7  -2339347.80023
  23614420.034      126958.679 5    106875.77821
  22554319.034    -3656662.822 6  -2819894.04721
  23285317.581      600128.828 6    468838.36521
  23334760.5114    4155334.04746   3207793.06261
  21337547.323      803498.084 6    617873.21522
 91  4 29 21  6 44.9990000  0  6G 2G16G 6G11G18G19
  21050129.105    -3276301.118 7  -2359756.99523
  23615880.886      134641.282 5    112862.19021
  22547479.987    -3692596.432 6  -2847894.23221
  23287938.6514     613904.18346    479572.39761
  23343331.651     4200381.321 6   3242894.76421
  21339688.136      814747.225 6    626638.76322
 91  4 29 21  6 59.9990000  0  6G 2G16G 6G11G18G19
  21045163.128    -3302399.765 7  -2380093.59223
  23617366.3554     142448.65045    118945.83661
  22540647.2454   -3728505.53846  -2875875.32961
  23290587.1054     627832.83446    490425.88061
  23351916.128     4245485.050 6   3278040.47321
  21341843.167      826064.884 6    635457.70322
 91  4 29 21  7 14.9990000  0  6G 2G16G 6G11G18G19
  21040213.386    -3328409.882 7  -2400361.19523
  23618875.511      150375.913 5    125122.91421
  22533816.3944   -3764394.62546  -2903840.82561
  23293265.995      641910.087 6    501395.15121
  23360509.503     4290640.495 6   3313226.46621
  21344009.183      837446.467 6    644326.45222
 91  4 29 21  7 29.9990000  0  6G 2G16G 6G11G18G19
  21035281.019    -3354327.470 7  -2420556.71123
  23620406.6284     158427.03645    131396.48161
  22526993.730    -3800259.841 6  -2931787.71821
  23295977.019      656139.616 6    512483.07421
  23369112.628     4335851.156 6   3348455.49821
  21346185.120      848895.785 6    653247.98422
 91  4 29 21  7 44.9990000  0  6G 2G16G 6G11G18G19
  21030367.644    -3380152.238 7  -2440679.88723
  23621964.206      166601.732 5    137766.35821
  22520172.8154   -3836100.62446  -2959715.57161
  23298711.964      670521.824 6    523689.96921
  23377723.5034    4381117.15446   3383727.63561
  21348377.831      860413.569 6    662222.86722
 91  4 29 21  7 59.9990000  0  6G 2G16G 6G11G18G19
  21025469.394    -3405886.670 7  -2460732.67523
  23623545.206      174897.195 5    144230.31821
  22513356.1834   -3871919.64946  -2987626.47361
  23301478.620      685053.821 6    535013.58821
  23386347.761     4426435.696 6   3419040.71921
  21350584.792      871997.249 6    671249.09422
 91  4 29 21  8 14.9990000  0  6G 2G16G 6G11G18G19
  21020589.776    -3431528.226 7  -2480713.09323
  23625143.370      183315.823 5    150790.26221
  22506546.3084   -3907713.99946  -3015518.14761
  23304272.120      699738.179 6    546455.91521
  23394981.5034    4471809.28946   3454396.70661
  21352799.456      883649.555 6    680328.79622
 91  4 29 21  8 29.9990000  0  6G 2G16G 6G11G18G19
  21015727.605    -3457080.823 7  -2500624.19423
  23626763.5194     191853.54445    157443.03161
  22499736.870    -3943487.730 6  -3043393.75421
  23307094.206      714570.837 6    558013.81021
  23403626.4564    4517233.49846   3489792.12461
  21355030.581      895366.590 6    689458.94222
 91  4 29 21  8 44.9990000  0  6G 2G16G 6G11G18G19
  21010882.503    -3482540.739 7  -2520463.07523
  23628414.0974     200513.89145    164191.31761
  22492933.925    -3979237.085 6  -3071250.36921
  23309945.519      729555.257 6    569689.96521
  23412279.628     4562712.033 6   3525229.87721
  21357272.284      907152.064 6    698642.41122
 91  4 29 21  8 59.9990000  0  6G 2G16G 6G11G18G19
  21006056.565    -3507906.430 7  -2540228.53524
  23630085.667      209298.338 5    171036.32321
  22486136.589    -4014960.402 6  -3099086.69721
  23312824.565      744692.831 6    581485.45421
  23420944.1674    4608245.97046   3560710.79661
  21359530.190      919007.642 6    707880.50622
 91  4 29 21  9 14.9990000  0  6G 2G16G 6G11G18G19
  21001246.589    -3533178.987 7  -2559921.42523
  23631783.1834     218205.48145    177976.93961
  22479342.128    -4050658.637 6  -3126903.47921
  23315734.339      759982.312 6    593399.31621
  23429619.589     4653834.218 5   3596234.03921
  21361798.198      930932.325 6    717172.45722
 91  4 29 21  9 29.9990000  0  6G 2G16G 6G11G18G19
  20996456.487    -3558355.588 7  -2579539.54224
  23633500.612      227237.999 5    185015.23121
  22472554.300    -4086328.971 6  -3154698.52621
  23318672.855      775426.416 6    605433.65821
  23438306.0654    4699479.27645   3631801.55161
  21364079.870      942929.079 6    726520.55522
 91  4 29 21  9 44.9990000  0  6G 2G16G 6G11G18G19
  20991681.448    -3583444.244 7  -2599089.13223
  23635242.0734     236387.57045    192144.74561
  22465771.409    -4121979.445 6  -3182478.08921
  23321640.862      791016.895 6    617582.06621
  23447000.0424    4745172.83445   3667406.85061
  21366375.9564     954989.87146    735918.56862
 91  4 29 21  9 59.9990000  0  6G 2G16G 6G11G18G19
  20986924.448    -3608441.302 7  -2618567.34524
  23637007.909      245657.488 5    199368.04121
  22458990.542    -4157606.224 6  -3210239.19521
  23324635.401      806757.226 6    629847.23821
  23455706.9564    4790918.45345   3703052.72461
  21368685.315      967118.561 6    745369.47222
 91  4 29 21 10 14.9990000  0  6G 2G16G 6G11G18G19
  20982185.886    -3633347.187 7  -2637974.51423
  23638794.4564     255047.28645    206684.73461
  22452216.8314   -4193209.73746  -3237982.16461
  23327659.026      822646.904 6    642228.78421
  23464419.8394    4836715.42545   3738738.60361
  21371006.190      979314.737 6    754872.97522
 91  4 29 21 10 29.9990000  0  6G 2G16G 6G11G18G19
  20977462.823    -3658162.884 7  -2657311.41023
  23640603.019      264555.449 5    214093.66921
  22445446.448    -4228790.815 6  -3265707.66121
  23330713.464      838684.717 6    654725.76621
  23473147.120     4882562.400 5   3774463.44921
  21373339.620      991577.475 6    764428.33422
 91  4 29 21 10 44.9990000  0  6G 2G16G 6G11G18G19
  20972757.120    -3682891.432 7  -2676580.39524
  23642434.5734     274179.02845    221592.53961
  22438678.980    -4264352.438 6  -3293417.99321
  23333787.542      854867.446 6    667335.67221
  23481880.3864    4928456.00845   3810224.64261
  21375684.269     1003903.955 6    774033.36322
 91  4 29 21 10 59.9990000  0  6G 2G16G 6G11G18G19
  20968068.565    -3707532.097 7  -2695780.90024
  23644288.714      283918.401 5    229181.64221
  22431915.073    -4299893.755 6  -3321112.50421
  23336898.5734     871195.73546    680058.98161
  23490621.167     4974396.973 5   3846022.72521
  21378039.956     1016294.977 6    783688.68322
 91  4 29 21 11 14.9990000  0  6G 2G16G 6G11G18G19
  20963396.4174   -3732083.03947  -2714911.49364
  23646164.0654     293775.15545    236862.19061
  22425156.870    -4335412.933 6  -3348789.76321
  23340031.651      887671.149 6    692896.94321
  23499374.519     5020386.785 5   3881858.86321
  21380412.542     1028752.293 6    793395.66922
 91  4 29 21 11 29.9990000  0  6G 2G16G 6G11G18G19
  20958742.5034   -3756541.52447  -2733970.04664
  23648062.323      303751.718 5    244636.11821
  22418401.534    -4370907.236 6  -3376447.64621
  23343198.050      904296.261 6    705851.55721
  23508133.6984    5066427.89245   3917734.98261
  21382800.042     1041278.721 6    803156.49322
 91  4 29 21 11 44.9990000  0  6G 2G16G 6G11G18G19
  20954106.9174   -3780904.53647  -2752954.20264
  23649984.5344     313851.07145    252505.70761
  22411652.214    -4406373.495 6  -3404083.67221
  23346390.753      921073.909 6    718925.02921
  23516905.480     5112523.103 5   3953653.25121
  21385193.394     1053877.508 6    812973.71522
 91  4 29 21 11 59.9990000  0  6G 2G16G 6G11G18G19
  20949486.6904   -3805180.92047  -2771870.85664
  23651927.0264     324064.31545    260464.04961
  22404907.151    -4441820.477 6  -3431704.68221
  23349610.370      937995.084 6    732110.33521
  23525686.1444    5158663.17945   3989606.48761
  21387602.690     1066539.813 6    822840.43122
 91  4 29 21 12 14.9990000  0  6G 2G16G 6G11G18G19
  20944883.9484   -3829365.80547  -2790716.21364
  23653891.1284     334395.90945    268514.63161
  22398167.026    -4477243.264 6  -3459306.82721
  23352858.105      955064.552 6    745411.19421
  23534478.097     5204852.981 5   4025598.46821
  21390026.690     1079270.613 6    832760.52122
 91  4 29 21 12 29.9990000  0  6G 2G16G 6G11G18G19
  20940299.589    -3853460.756 7  -2809491.48224
  23655880.7454     344843.94745    276655.92461
  22391431.097    -4512643.226 6  -3486891.19421
  23356135.972      972280.568 6    758826.25221
  23543275.4404    5251090.93445   4061627.96661
  21392460.698     1092068.561 6    842732.92922
 91  4 29 21 12 44.9990000  0  6G 2G16G 6G11G18G19
  20935730.823    -3877465.036 7  -2828196.10324
  23657893.480      355408.986 5    284888.41121
  22384700.026    -4548019.664 6  -3514457.23221
  23359439.901      989643.706 6    772355.94321
  23552084.1754    5297377.14145   4097695.07861
  21394910.995     1104934.332 6    852758.19422
 91  4 29 21 12 59.9990000  0  6G 2G16G 6G11G18G19
  20931181.214    -3901372.742 7  -2846825.47624
  23659922.3624     366096.81645    293216.56061
  22377973.690    -4583366.446 6  -3542000.16421
  23362771.3624    1007159.74846    786004.79161
  23560901.8704    5343717.42245   4133804.31061
  21397370.745     1117874.004 6    862841.02822
 91  4 29 21 13 14.9990000  0  6G 2G16G 6G11G18G19
  20926649.6284   -3925191.58047  -2865385.59564
  23661980.9484     376899.53645    301634.23161
  22371251.120    -4618691.230 6  -3569525.95121
  23366131.4484    1024820.81246    799766.63561
  23569728.9334    5390103.73045   4169949.41161
  21399847.230     1130880.152 6    872975.67422
 91  4 29 21 13 29.9990000  0  6G 2G16G 6G11G18G19
  20922133.3704   -3948922.36747  -2883877.10764
  23664061.222      387815.806 5    310140.38221
  22364532.105    -4653994.771 6  -3597035.18821
  23369518.519     1042625.861 6    813640.67021
  23578564.081     5436535.235 5   4206129.73821
  21402335.675     1143951.777 6    883161.32922
 91  4 29 21 13 44.9990000  0  6G 2G16G 6G11G18G19
  20917634.9644   -3972561.64747  -2902297.31664
  23666159.3314     398848.93545    318737.62061
  22357816.9174   -4689273.59446  -3624525.16661
  23372937.355     1060578.141 6    827629.44521
  23587408.855     5483015.102 5   4242347.74221
  21404835.409     1157092.355 6    893400.72722
 91  4 29 21 13 59.9990000  0  6G 2G16G 6G11G18G19
  20913153.0114   -3996109.70747  -2920646.44464
  23668280.855      409998.547 5    327425.59921
  22351108.940    -4724527.925 6  -3651996.05121
  23376380.315     1078677.129 6    841732.53221
  23596265.0034    5529542.84045   4278603.04461
  21407348.003     1170301.806 6    903693.78222
 91  4 29 21 14 14.9990000  0  6G 2G16G 6G11G18G19
  20908688.550    -4019572.834 7  -2938929.38724
  23670425.0344     421257.78045    336198.99861
  22344404.323    -4759764.038 6  -3679452.74921
  23379853.5974    1096916.19146    855944.76161
  23605125.5974    5576111.54745   4314890.27861
  21409873.097     1183573.839 6    914035.60522
 91  4 29 21 14 29.9990000  0  6G 2G16G 6G11G18G19
  20904240.0424   -4042951.98448  -2957146.89864
  23672584.6594     432625.73045    345057.10361
  22337704.683    -4794982.683 6  -3706895.82921
  23383349.1364    1115294.45846    870265.45261
  23613997.214     5622720.025 5   4351208.49921
  21412413.050     1196907.742 6    924425.64022
 91  4 29 21 14 44.9990000  0  6G 2G16G 6G11G18G19
  20899807.8084   -4066241.58647  -2975294.63364
  23674774.1984     444107.92445    354004.25461
  22331006.097    -4830178.203 6  -3734320.89621
  23386873.980     1133817.326 6    884698.81521
  23622875.8784    5669373.99445   4387562.16861
  21414962.042     1210309.077 6    934868.22022
 91  4 29 21 14 59.9990000  0  6G 2G16G 6G11G18G19
  20895393.1204   -4089442.06347  -2993372.91564
  23676976.7534     455703.31945    363039.59561
  22324313.292    -4865351.045 6  -3761728.28721
  23390427.745     1152484.163 6    899244.37821
  23631760.683     5716072.583 5   4423950.59921
  21417523.558     1223777.464 6    945363.04822
 91  4 29 21 15 14.9990000  0  6G 2G16G 6G11G18G19
  20890995.2694   -4112554.40347  -3011382.51864
  23679205.7224     467410.76045    372162.24661
  22317622.722    -4900501.974 6  -3789118.60521
  23394004.6444    1171293.93946    913901.32561
  23640656.120     5762814.611 5   4460372.88121
  21420100.120     1237312.271 6    955909.63022
 91  4 29 21 15 29.9990000  0  6G 2G16G 6G11G18G19
  20886613.4644   -4135578.81747  -3029323.61264
  23681455.3154     479229.91045    381371.93561
  22310939.245    -4935631.280 6  -3816492.07721
  23397610.292     1190245.918 6    928669.07521
  23649556.058     5809599.628 5   4496828.66421
  21422689.831     1250913.215 6    966507.74722
 91  4 29 21 15 44.9990000  0  6G 2G16G 6G11G18G19
  20882249.9804   -4158515.24947  -3047196.14464
  23683721.870      491160.740 5    390668.67321
  22304257.589    -4970738.679 6  -3843848.47921
  23401245.315     1209340.103 6    943547.64321
  23658468.8784    5856427.72745   4533318.01461
  21425288.042     1264580.387 6    977157.47122
 91  4 29 21 15 59.9990000  0  6G 2G16G 6G11G18G19
  20877901.7144   -4181361.52847  -3064998.43664
  23686017.0114     503205.13545    400053.88361
  22297582.0114   -5005821.83546  -3871185.98561
  23404909.987     1228578.522 6    958538.59621
  23667387.394     5903300.537 5   4569842.20521
  21427902.605     1278316.106 6    987860.61422
 91  4 29 21 16 14.9990000  0  6G 2G16G 6G11G18G19
  20873571.9484   -4204116.82447  -3082729.82364
  23688327.667      515363.248 5    409527.70521
  22290909.800    -5040879.996 6  -3898504.02721
  23408593.706     1247961.730 6    973642.37021
  23676315.7064    5950218.74445   4606401.76661
  21430531.065     1292121.042 6    998617.68422
 91  4 29 21 16 29.9990000  0  6G 2G16G 6G11G18G19
  20869258.1124   -4226787.44348  -3100395.23364
  23690664.128      527628.975 5    419085.39421
  22284242.472    -5075919.138 6  -3925807.24121
  23412311.112     1267483.335 6    988853.97821
  23685249.9404    5997175.85645   4642991.65661
  21433169.308     1305989.384 6   1009424.16322
 91  4 29 21 16 44.9990000  0  6G 2G16G 6G11G18G19
  20864958.5194   -4249381.00747  -3118000.60164
  23693018.7224     539994.14045    428720.54961
  22277578.636    -5110947.029 6  -3953101.68121
  23416051.894     1287135.507 6   1004167.34321
  23694192.7844    6044163.86545   4679605.60361
  21435818.487     1319913.563 6   1020274.15522
 91  4 29 21 16 59.9990000  0  6G 2G16G 6G11G18G19
  20860672.5344   -4271898.62747  -3135546.79164
  23695388.8234     552457.62545    438432.32661
  22270914.933    -5145964.723 6  -3980388.18021
  23419812.550     1306916.827 6   1019581.33921
  23703139.761     6091181.629 5   4716242.74521
  21438482.245     1333892.276 6   1031166.64322
 91  4 29 21 17 14.9990000  0  6G 2G16G 6G11G18G19
  20856405.2224   -4294326.09147  -3153022.72564
  23697784.151      565033.415 5    448231.62221
  22264255.6754   -5180957.70546  -4007655.42661
  23423604.800     1326841.452 6   1035107.00021
  23712097.776     6138242.949 5   4752913.82621
  21441152.433     1347940.050 6   1042112.93422
 91  4 29 21 17 29.9990000  0  6G 2G16G 6G11G18G19
  20852152.511    -4316667.950 7  -3170431.95324
  23700194.933      577716.587 5    458114.60221
  22257598.6204   -5215930.53746  -4034906.97261
  23427421.9014    1346904.60846   1050740.61861
  23721058.4254    6185343.14445   4789615.19561
  21443838.737     1362052.322 6   1053109.49222
 91  4 29 21 17 44.9990000  0  6G 2G16G 6G11G18G19
  20847918.3864   -4338923.31447  -3187773.78764
  23702629.456      590507.779 5    468081.71621
  22250948.8704   -5250882.14946  -4062141.99061
  23431266.8624    1367106.96046   1066482.67761
  23730033.0894    6232482.78945   4826347.29761
  21446535.456     1376230.060 6   1064157.06422
 91  4 29 21 17 59.9990000  0  6G 2G16G 6G11G18G19
  20843700.683    -4361088.407 8  -3205045.27324
  23705084.753      603410.633 5    478135.85221
  22244303.105    -5285808.673 6  -4089357.44721
  23435140.058     1387452.295 6   1082336.17021
  23739007.8234    6279665.56745   4863113.00861
  21449251.323     1390477.318 6   1075258.80422
 91  4 29 21 18 14.9990000  0  6G 2G16G 6G11G18G19
  20839499.019    -4383169.252 8  -3222251.10924
  23707562.722      616419.078 5    488272.26621
  22237657.8864   -5320715.99746  -4116557.94961
  23439034.073     1407934.413 6   1098296.23321
  23747994.5114    6326885.30845   4899907.54461
  21451970.073     1404788.282 6   1086410.18822
 91  4 29 21 18 29.9990000  0  6G 2G16G 6G11G18G19
  20835310.011    -4405177.616 7  -3239400.47324
  23710054.6674     629520.90945    498481.45661
  22231017.4954   -5355615.87946  -4143752.65461
  23442958.9954    1428541.12046   1114353.38961
  23756987.0654    6374129.61145   4936721.19961
  21454703.394     1419151.082 6   1097601.96822
 91  4 29 21 18 44.9990000  0  6G 2G16G 6G11G18G19
  20831138.9644   -4427097.61847  -3256480.98264
  23712568.394      642731.619 5    508775.49021
  22224380.737    -5390492.310 6  -4170929.08021
  23446905.847     1449288.317 6   1130520.01621
  23765984.284     6421414.212 5   4973566.25621
  21457450.776     1433581.821 6   1108846.68022
 91  4 29 21 18 59.9990000  0  6G 2G16G 6G11G18G19
  20826984.9014   -4448929.49247  -3273492.82364
  23715105.1364     656051.04445    519154.22561
  22217748.5194   -5425345.34746  -4198087.27761
  23450881.862     1470175.434 6   1146795.66921
  23774989.253     6468738.904 5   5010442.56721
  21460208.573     1448080.177 6   1120144.07522
 91  4 29 21 19 14.9990000  0  6G 2G16G 6G11G18G19
  20822845.605    -4470676.169 7  -3290438.27124
  23717657.4644     669475.93745    529615.14361
  22211119.8004   -5460177.83746  -4225229.46361
  23454880.409     1491199.445 6   1163177.99421
  23784000.823     6516100.573 5   5047347.67721
  21462979.401     1462643.353 6   1131491.99422
 91  4 29 21 19 29.9990000  0  6G 2G16G 6G11G18G19
  20818723.987    -4492337.895 7  -3307317.52524
  23720233.511      683005.536 5    540157.65321
  22204494.870    -5494989.979 6  -4252355.79821
  23458909.159     1512359.750 6   1179666.51921
  23793021.386     6563498.403 5   5084280.96621
  21465763.644     1477271.151 6   1142890.26622
 91  4 29 21 19 44.9990000  0  6G 2G16G 6G11G18G19
  20814619.847    -4513907.870 7  -3324125.28524
  23722827.276      696646.432 5    550786.88821
  22197874.6834   -5529774.96346  -4279460.96461
  23462960.3474    1533662.93746   1196266.37761
  23802047.5584    6610939.05145   5121247.64261
  21468560.331     1491970.469 6   1154344.25522
 91  4 29 21 19 59.9990000  0  6G 2G16G 6G11G18G19
  20810532.558    -4535390.175 7  -3340864.73224
  23725440.8704     710394.60945    561499.72061
  22191261.815    -5564536.619 6  -4306547.95421
  23467043.8084    1555104.86246   1212974.33761
  23811082.7534    6658418.44845   5158244.48761
  21471370.237     1506737.314 6   1165850.87422
 91  4 29 21 20 14.9990000  0  6G 2G16G 6G11G18G19
  20806461.4804   -4556783.91148  -3357535.16664
  23728079.7694     724250.53745    572296.50361
  22184650.1754   -5599274.04146  -4333616.06561
  23471149.9954    1576686.24546   1229790.97961
  23820128.776     6705937.312 5   5195272.09421
  21474192.394     1521572.751 6   1177410.93922
 91  4 29 21 20 29.9990000  0  6G 2G16G 6G11G18G19
  20802406.8394   -4578088.35347  -3374136.02064
  23730737.800      738214.649 5    583177.59421
  22178044.862    -5633986.293 6  -4360664.55721
  23475283.0194    1598407.56646   1246716.64261
  23829179.1124    6753495.86145   5232330.61961
  21477032.417     1536477.685 6   1189025.15822
 91  4 29 21 20 44.9990000  0  6G 2G16G 6G11G18G19
  20798369.198    -4599302.623 7  -3390666.61124
  23733416.636      752287.547 5    594143.45221
  22171443.5814   -5668672.40846  -4387692.68861
  23479443.7614    1620269.47846   1263751.86561
  23838233.9014    6801094.85145   5269420.66161
  21479878.886     1551453.090 6   1200694.29322
 91  4 29 21 20 59.9990000  0  6G 2G16G 6G11G18G19
  20794348.698    -4620428.667 7  -3407128.44524
  23736113.5344     766467.07445    605192.39861
  22164849.0114   -5703334.16646  -4414701.83661
  23483629.237     1642269.880 6   1280895.01821
  23847300.8944    6848732.04445   5306540.46861
  21482742.737     1566497.135 6   1212416.90722
 91  4 29 21 21 14.9990000  0  6G 2G16G 6G11G18G19
  20790344.0264   -4641472.28847  -3423526.05864
  23738832.0584     780746.88145    616319.48461
  22158257.5654   -5737977.40746  -4441696.55861
  23487842.245     1664402.576 6   1298141.25621
  23856368.4174    6896401.55145   5343685.44661
  21485616.300     1581603.958 6   1224188.44022
 91  4 29 21 21 29.9990000  0  6G 2G16G 6G11G18G19
  20786357.5424   -4662427.29347  -3439854.62364
  23741570.1514     795133.36345    627529.68961
  22151668.065    -5772595.840 6  -4468671.95221
  23492078.5424    1686673.70546   1315495.35261
  23865449.3394    6944109.08245   5380860.06161
  21488507.526     1596779.727 6   1236013.69922
 91  4 29 21 21 44.9990000  0  6G 2G16G 6G11G18G19
  20782385.7304   -4683293.73547  -3456114.18164
  23744325.6204     809626.12945    638822.71661
  22145084.581    -5807189.301 6  -4495627.88021
  23496344.870     1709083.119 6   1332957.20421
  23874533.276     6991854.520 5   5418064.22021
  21491406.065     1612024.811 6   1247892.96422
 91  4 29 21 21 59.9990000  0  6G 2G16G 6G11G18G19
  20778433.4564   -4704070.84947  -3472304.12964
  23747108.3314     824225.55845    650198.85361
  22138508.573    -5841756.958 6  -4522563.69721
  23500633.409     1731631.155 6   1350527.07821
  23883626.7534    7039638.24545   5455298.21061
  21494319.073     1627339.990 6   1259826.85622
 91  4 29 21 22 14.9990000  0  6G 2G16G 6G11G18G19
  20774495.2694   -4724764.22147  -3488428.82364
  23749901.597      838925.831 5    661653.59221
  22131933.378    -5876304.304 6  -4549483.69221
  23504948.7064    1754312.11546   1368200.51261
  23892727.276     7087454.600 5   5492557.61321
  21497247.245     1642719.686 6   1271811.02622
 91  4 29 21 22 29.9990000  0  6G 2G16G 6G11G18G19
  20770573.3864   -4745373.97347  -3504488.36264
  23752720.144      853726.671 5    673186.67321
  22125363.714    -5910831.354 6  -4576387.87021
  23509288.339     1777125.586 6   1385977.21921
  23901832.3784    7135303.23545   5529842.18761
  21500189.675     1658163.823 6   1283845.40022
 91  4 29 21 22 44.9990000  0  6G 2G16G 6G11G18G19
  20766669.0504   -4765898.11248  -3520481.18964
  23755553.3784     868630.02345    684799.64261
  22118798.308    -5945335.882 6  -4603274.50121
  23513657.151     1800073.508 6   1403858.69921
  23910940.9724    7183186.01845   5567153.36961
  21503136.948     1673674.541 6   1295931.66322
 91  4 29 21 22 59.9990000  0  6G 2G16G 6G11G18G19
  20762778.6514   -4786334.06048  -3536405.29564
  23758410.3234     883637.97145    696494.09361
  22112235.3474   -5979815.14246  -4630141.44561
  23518051.4564    1823158.22546   1421846.75161
  23920061.370     7231105.290 5   5604492.96421
  21506104.542     1689254.559 6   1308071.91722
 91  4 29 21 23 14.9990000  0  6G 2G16G 6G11G18G19
  20758905.8234   -4806685.41548  -3552263.48264
  23761287.7374     898746.85145    708267.21361
  22105680.425    -6014272.593 6  -4656991.39021
  23522467.9094    1846376.05546   1439938.54561
  23929187.378     7279057.107 5   5641857.92921
  21509077.9564    1704900.62846   1320263.65062
 91  4 29 21 23 29.9990000  0  6G 2G16G 6G11G18G19
  20755048.3944   -4826951.05948  -3568054.88564
  23764183.0894     913957.25545    720119.44661
  22099124.9564   -6048707.02846  -4683823.40561
  23526917.0194    1869727.83346   1458134.70361
  23938318.4874    7327042.28545   5679248.89961
  21512068.409     1720613.789 6   1332507.65622
 91  4 29 21 23 44.9990000  0  6G 2G16G 6G11G18G19
  20751208.2304   -4847134.37048  -3583782.13264
  23767095.4564     929265.33845    732047.76061
  22092576.456    -6083121.913 6  -4710640.18721
  23531381.5894    1893209.87046   1476432.36961
  23947453.784     7375057.517 5   5716663.28621
  21515071.597     1736390.664 6   1344801.31322
 91  4 29 21 23 59.9990000  0  6G 2G16G 6G11G18G19
  20747382.9254   -4867241.39048  -3599449.93364
  23770026.4644     944665.09645    744047.55561
  22086031.8234   -6117523.05446  -4737446.25661
  23535872.808     1916815.915 6   1494826.66421
  23956597.5344    7423096.37845   5754096.07761
  21518086.878     1752225.289 6   1357139.97022
 91  4 29 21 24 14.9990000  0  6G 2G16G 6G11G18G19
  20743571.6594   -4887263.37948  -3615051.47764
  23772972.0344     960165.30545    756125.59861
  22079488.3784   -6151901.45846  -4764234.61061
  23540389.9954    1940554.65046   1513324.34561
  23965746.183     7471167.337 5   5791553.87421
  21521110.589     1768126.613 6   1369530.59722
 91  4 29 21 24 29.9990000  0  6G 2G16G 6G11G18G19
  20739778.1834   -4907203.19748  -3630588.98964
  23775942.964      975762.633 5    768279.30221
  22072951.2064   -6186259.93046  -4791007.42961
  23544932.9644    1964422.93046   1531922.96961
  23974898.464     7519267.186 5   5829034.18621
  21524149.4254    1784091.69146   1381970.90662
 91  4 29 21 24 44.9990000  0  6G 2G16G 6G11G18G19
  20735998.9014   -4927056.85948  -3646059.36864
  23778927.1364     991460.60645    780511.43761
  22066418.980    -6220594.536 6  -4817761.66021
  23549498.7374    1988424.34946   1550625.33661
  23984057.894     7567399.877 5   5866540.09321
  21527201.214     1800124.752 6   1394464.18722
 91  4 29 21 24 59.9990000  0  6G 2G16G 6G11G18G19
  20732237.6904   -4946823.85748  -3661462.21464
  23781934.8944    1007259.72245    792822.41361
  22059888.940    -6254904.439 6  -4844496.62921
  23554093.511     2012559.398 6   1569431.82921
  23993223.9804    7615565.64845   5904071.77161
  21530265.472     1816226.346 6   1407010.86222
 91  4 29 21 25 14.9990000  0  6G 2G16G 6G11G18G19
  20728491.9014   -4966510.80548  -3676802.68964
  23784962.698     1023153.065 5    805206.79421
  22053363.4334   -6289196.19246  -4871217.45961
  23558714.292     2036821.282 6   1588337.16321
  24002393.097     7663757.605 5   5941623.86121
  21533339.737     1832389.929 6   1419605.85022
 91  4 29 21 25 29.9990000  0  6G 2G16G 6G11G18G19
  20724760.4874   -4986116.73248  -3692080.02664
  23788007.448     1039141.172 5    817665.02621
  22046841.519    -6323468.757 6  -4897923.33921
  23563349.5264    2061210.57646   1607341.78161
  24011567.9254    7711976.50145   5979196.92461
  21536427.862     1848616.707 6   1432250.07522
 91  4 29 21 25 44.9990000  0  6G 2G16G 6G11G18G19
  20721045.9804   -5005638.50548  -3707291.79064
  23791067.4014    1055226.97745    830199.36661
  22040323.1904   -6357718.85346  -4924611.71561
  23568017.3394    2085730.18846   1626447.93961
  24020750.878     7760225.198 5   6016793.22921
  21539528.198     1864909.841 6   1444946.00922
 91  4 29 21 25 59.9990000  0  6G 2G16G 6G11G18G19
  20717348.1754   -5025071.85548  -3722434.65664
  23794147.300     1071414.614 5    842813.06421
  22033810.4564   -6391942.12046  -4951279.17861
  23572710.761     2110384.246 6   1645658.86421
  24029940.269     7808508.150 5   6054416.21421
  21542643.847     1881273.669 6   1457697.02522
 91  4 29 21 26 14.9990000  0  6G 2G16G 6G11G18G19
  20713665.3004   -5044425.21248  -3737515.18964
  23797242.3784    1087695.48045    855499.42161
  22027302.151    -6426146.707 6  -4977932.08621
  23577422.8004    2135164.17646   1664967.86761
  24039128.9724    7856816.50845   6092059.00461
  21545768.214     1897699.825 6   1470496.60922
 91  4 29 21 26 29.9990000  0  6G 2G16G 6G11G18G19
  20709998.3234   -5063697.17348  -3752532.29364
  23800357.3784    1104071.08945    868259.58961
  22020797.112    -6460331.159 6  -5004569.30821
  23582165.3004    2160071.08046   1684375.81761
  24048329.839     7905151.255 5   6129722.34321
  21548905.5264    1914189.95146   1483346.04762
 91  4 29 21 26 44.9990000  0  6G 2G16G 6G11G18G19
  20706346.9404   -5082886.46948  -3767484.98564
  23803491.2454    1120541.83545
  22014296.026    -6494493.989 6  -5031189.67821
  23586929.128     2185106.061 6   1703883.55021
  24057532.8864    7953513.36545   6167407.00861
  21552055.5504    1930745.36646
 91  4 29 21 26 59.9990000  0  6G 2G16G 6G11G18G19
  20702711.6834   -5101990.12548  -3782370.94864
  23806643.7064    1137110.34745
  22007799.886    -6528632.076 6  -5057790.77121
  23591719.769     2210271.828 6   1723493.19221
  24066742.2534    8001905.80145   6205115.30561
  21555220.6674    1947369.12446
 91  4 29 21 27 14.9990000  0  6G 2G16G 6G11G18G19
  20699090.3944   -5121014.80048  -3797195.36364
  23809816.464     1153769.913 5
  22001306.214    -6562752.138 6  -5084377.81921
  23596528.8474    2235561.41946   1743199.32961
  24075953.1594    8050321.56245   6242841.78361
  21558395.3944    1964054.56146
 91  4 29 21 27 29.9990000  0  6G 2G16G 6G11G18G19
  20695486.0814   -5139957.33348  -3811955.77364
  23813003.433     1170523.609 5
  21994820.339    -6596850.667 6  -5110948.08321
  23601365.4954    2260978.01846   1763004.43261
  24085173.815     8098763.675 5   6280588.81621
  21561581.667     1980805.121 6   1535253.90922
 91  4 29 21 27 44.9990000  0  6G 2G16G 6G11G18G19
  20691897.1054   -5158817.11148  -3826651.69864
  23816209.206     1187371.548 5
  21988332.511    -6630926.996 6  -5137501.05321
  23606224.4644    2286521.99546   1782908.78961
  24094395.847     8147232.603 5   6318356.70321
  21564783.237     1997621.426 6   1548357.50922
 91  4 29 21 27 59.9990000  0  6G 2G16G 6G11G18G19
  20688323.1674   -5177595.31548  -3841284.06064
  23819433.2064    1204312.29945
  21981850.776    -6664982.260 6  -5164037.60221
  23611111.9014    2312191.85346   1802911.22961
  24103625.2614    8195726.87045   6356144.35361
  21567993.964     2014502.474 6
 91  4 29 21 28 14.9990000  0  6G 2G16G 6G11G18G19
  20684765.6054   -5196295.27148  -3855855.44864
  23822675.237     1221342.515 5
  21975374.9724   -6699019.44946  -5190560.07861
  23616020.4174    2337984.15946   1823009.11061
  24112857.058     8244242.879 5   6393948.96021
  21571219.073     2031445.166 6   1574713.63722
 91  4 29 21 28 29.9990000  0  6G 2G16G 6G11G18G19
  20681222.5034   -5214916.17648  -3870365.24264
  23825932.2304    1238462.57645        -0.12071
  21968903.565    -6733037.726 6  -5217067.81121
  23620950.714     2363899.303 6   1843202.68721
  24122094.378     8292781.355 5   6431771.04621
  21574454.815     2048450.338 6   1587964.40122
 91  4 29 21 28 44.9990000  0  6G 2G16G 6G11G18G19
  20677694.3944   -5233456.34348
  23829206.8944    1255674.10945     13411.41061
  21962434.105    -6767035.109 6  -5243559.26121
  23625906.300     2389938.971 6   1863493.28721
  24131335.1364    8341343.81245   6469611.83461
  21577702.948     2065519.767 6   1601265.23922
 91  4 29 21 28 59.9990000  0  5G16G 6G11G18G19
  23832501.7224    1272977.43045     26894.47061
  21955967.4404   -6801010.74546  -5270033.77361
  23630888.2224    2416103.74046   1883881.39761
  24140581.605     8389930.649 5   6507471.61121
  21580962.480     2082654.119 6   1614616.66422
 91  4 29 21 29 14.9990000  0  6G 2G16G 6G11G18G19
  20670684.683      -18377.973 8
  23835806.003     1290372.199 5     40448.80321
  21949506.8084   -6834964.58946  -5296491.30261
  23635887.5344    2442393.22146   1904366.66861
  24149831.886     8438541.722 5   6545350.29521
  21584234.542     2099853.574 6   1628018.81722
 91  4 29 21 29 29.9990000  0  6G 2G16G 6G11G18G19
  20667203.6674     -36671.05448
  23839141.7694    1307860.74145     54076.17161
  21943049.7844   -6868894.11046  -5322929.87861
  23640913.784     2468809.603 6   1924950.80821
  24159089.0424    8487179.16845   6583249.49661
  21587523.808     2117120.711 6   1641473.71622
 91  4 29 21 29 44.9990000  0  6G 2G16G 6G11G18G19
  20663737.8944     -54882.75548        -0.47874
  23842481.1904    1325440.14245     67774.37561
  21936596.808    -6902801.688 6  -5349351.35421
  23645966.6124    2495350.15746   1945631.73061
  24168346.7224    8535840.15645   6621167.05261
  21590820.503     2134453.127 6   1654979.47922
 91  4 29 21 29 59.9990000  0  5G 2G16G 6G11G19
  20660289.0584     -73010.57148    -14126.04864
  23845844.628     1343112.621 5     81545.07721
  21930149.065    -6936684.541 6  -5375753.56321
  23651037.628     2522017.169 6   1966411.17621
  21594132.800     2151853.601 6   1668538.26622
 91  4 29 21 30 14.9990000  0  5G 2G16G 6G11G19
  20656853.7764     -91058.03448    -28189.00264
  23849225.6124    1360874.25245     95385.27861
  21923705.2534   -6970546.19346  -5402139.26061
  23656135.6904    2548806.76946   1987286.15361
  21597455.644     2169318.352 6   1682147.14722
 91  4 29 21 30 29.9990000  0  5G 2G16G 6G11G19
  20653434.3554    -109027.06748    -42190.84464
  23852625.956     1378723.025 5    109293.33921
  21917265.2374   -7004388.49446  -5428509.87261
  23661258.2694    2575716.82046   2008254.98361
  21600793.128     2186845.523 6   1695804.65922
 91  4 29 21 30 44.9990000  0  5G 2G16G 6G11G19
  20650029.5584    -126916.27048    -56130.47664
  23856042.0424    1396660.22745    123270.34761
  21910829.1444   -7038209.79746  -5454864.12661
  23666403.6834    2602748.61446   2029318.67361
  21604137.698     2204436.695 6   1709512.05122
 91  4 29 21 30 59.9990000  0  5G 2G16G 6G11G19
  20646641.0894    -144723.14648    -70005.96264
  23859466.8784    1414687.78445    137317.74261
  21904398.120    -7072007.436 6  -5481199.93521
  23671573.1834    2629904.35346   2050478.96261
  21607497.440     2222094.714 6   1723271.52322
 91  4 29 21 31 14.9990000  0  5G 2G16G 6G11G19
  20643269.3394    -162447.26048    -83816.95864
  23862914.8704    1432806.23045    151435.96161
  21897969.8704   -7105780.83646  -5507516.85861
  23676760.1904    2657184.17646   2071735.94461
  21610870.917     2239820.021 6   1737083.43322
 91  4 29 21 31 29.9990000  0  5G 2G16G 6G11G19
  20639911.5194    -180093.07948    -97566.94164
  23866381.2454    1451010.75745    165621.25361
  21891548.8474   -7139534.33446  -5533818.27561
  23681975.7144    2684583.43646   2093085.97661
  21614256.597     2257608.225 6   1750944.35022
 91  4 29 21 31 44.9990000  0  5G 2G16G 6G11G19
  20636568.6594    -197655.82148   -111252.19164
  23869859.8704    1469305.74645    179877.04261
  21885129.2144   -7173262.93046  -5560100.28961
  23687214.901     2712106.768 6   2114532.68721
  21617652.417     2275464.235 6   1764858.10422
 91  4 29 21 31 59.9990000  0  5G 2G16G 6G11G19
  20633240.8944    -215140.75648   -124876.81464
  23873359.8704    1487685.67245    194198.99661
  21878715.6904   -7206971.66746  -5586366.83161
  23692474.4174    2739748.70646   2136071.82061
  21621064.331     2293382.953 6   1778820.72022
 91  4 29 21 32 14.9990000  0  5G 2G16G 6G11G19
  20629929.0814    -232549.09648   -138441.75164
  23876871.597     1506148.983 5    208585.94721
  21872304.9564   -7240661.77746  -5612618.85761
  23697756.9334    2767507.68346   2157702.15061
  21624484.526     2311363.077 6   1792831.19022
 91  4 29 21 32 29.9990000  0  5G 2G16G 6G11G19
  20626631.1444    -249876.90448   -151943.93664
  23880403.050     1524699.397 5    223040.75221
  21865897.6834   -7274329.18746  -5638853.19562
  23703061.4804    2795387.33346   2179426.50561
  21627918.339     2329408.621 6   1806892.62822
 91  4 29 21 32 44.9990000  0  5G 2G16G 6G11G19
  20623351.5424    -267118.23448   -165378.73264
  23883948.5194    1543342.66145    237567.92361
  21859496.6364   -7307967.84746  -5665065.12362
  23708390.6054    2823393.40046   2201249.38261
  21631368.159     2347525.666 6   1821009.79122
 91  4 29 21 32 59.9990000  0  5G 2G16G 6G11G19
  20620084.4954    -284281.25148   -178752.51164
  23887517.058     1562070.267 5    252160.80921
  21853099.3624   -7341585.61646  -5691260.77862
  23713740.8624    2851517.61946   2223164.32361
  21634829.589     2365706.242 6   1835176.44522
 91  4 29 21 33 14.9990000  0  5G 2G16G 6G11G19
  20616834.1834    -301361.27948   -192061.62164
  23891095.230     1580886.709 5    266822.92921
  21846707.3704   -7375177.66546  -5717436.39962
  23719117.519     2879764.401 6   2245174.73921
  21638301.292     2383955.080 6   1849396.29822
 91  4 29 21 33 29.9990000  0  5G 2G16G 6G11G19
  20613599.2224    -318364.50448   -205310.88264
  23894688.659     1599785.479 4    281549.17921
  21840317.9644   -7408750.03446  -5743596.67562
  23724516.448     2908127.284 6   2267275.65921
  21641784.995     2402266.041 6   1863664.55622
 91  4 29 21 33 44.9990000  0  5G 2G16G 6G11G19
  20610379.4874    -335285.99848   -218496.45764
  23898304.472     1618771.340 5    296343.29621
  21833933.7764   -7442297.63346  -5769737.65962
  23729936.8004    2936611.05046   2289470.76661
  21645281.901     2420644.178 6   1877985.16822
 91  4 29 21 33 59.9990000  0  5G 2G16G 6G11G19
  20607172.5974    -352131.44148   -231622.77664
  23901929.800     1637838.187 4    311200.53421
  21827554.5734   -7475825.95346  -5795863.61562
  23735377.7224    2965209.77946   2311755.44761
  21648794.519     2439084.006 6   1892353.84722
 91  4 29 21 34 14.9990000  0  5G 2G16G 6G11G19
  20603982.6444    -368895.49748   -244685.67064
  23905577.198     1656991.258 5    326124.96221
  21821178.7064   -7509329.58246  -5821970.32862
  23740842.6284    2993928.46146   2334133.60161
  21652311.909     2457590.924 6   1906774.79522
 91  4 29 21 34 29.9990000  0  5G 2G16G 6G11G19
  20600806.1904    -385586.80248   -257691.87763
  23909236.4954    1676221.31745    341109.35661
  21814806.7304   -7542817.07346  -5848064.47062
  23746329.644     3022758.210 6   2356598.29621
  21655844.886     2476156.348 6   1921241.34022
 91  4 29 21 34 44.9990000  0  5G 2G16G 6G11G19
  20597645.0034    -402193.65648   -270632.27664
  23912908.1674    1695539.78744    356162.65961
  21808439.776    -7576276.374 6  -5874136.64122
  23751840.503     3051710.636 6   2379158.58521
  21659392.503     2494792.223 6   1935762.78422
 91  4 29 21 34 59.9990000  0  5G 2G16G 6G11G19
  20594499.4724    -418726.58248   -283515.07064
  23916604.597     1714936.419 4    371276.84521
  21802076.5894   -7609717.88447  -5900194.95662
  23757370.237     3080775.028 6   2401806.12421
  21662952.386     2513488.118 6   1950330.99322
 91  4 29 21 35 14.9990000  0  5G 2G16G 6G11G19
  20591369.5344    -435178.87048   -296335.02964
  23920312.9254    1734417.33745    386456.73561
  21795715.9404   -7643134.61446  -5926233.95862
  23762920.0194    3109957.78046   2424545.89661
  21666518.776     2532250.831 6   1964951.27422
 91  4 29 21 35 29.9990000  0  5G 2G16G 6G11G19
  20588254.3084    -451550.97148   -309092.50564
  23924036.5424    1753981.86945    401701.77561
  21789362.7844   -7676526.99246  -5952253.99262
  23768498.784     3139258.142 6   2447377.28721
  21670105.159     2551080.060 6   1979623.37522
 91  4 29 21 35 44.9990000  0  5G 2G16G 6G11G19
  20585153.6514    -467846.95448   -321790.67864
  23927769.5504    1773625.93345    417008.77661
  21783011.8394   -7709898.86247  -5978258.04262
  23774093.5974    3168671.85146   2470297.02261
  21673697.401     2569971.902 6   1994344.27022
 91  4 29 21 35 59.9990000  0  5G 2G16G 6G11G19
  20582068.8004    -484060.73948   -334424.79364
  23931528.3004    1793354.77644    432381.83861
  21776665.6444   -7743244.12846  -6004241.36562
  23779717.245     3198204.631 6   2493309.52721
  21677305.331     2588932.330 6   2009118.61422
 91  4 29 21 36 14.9990000  0  5G 2G16G 6G11G19
  20578998.1904    -500192.74948   -346995.18564
  23935295.7924    1813167.98744    447820.64161
  21770324.4094   -7776562.84246  -6030203.99262
  23785356.651     3227855.887 6   2516414.36721
  21680927.081     2607961.086 6   2023946.18522
 91  4 29 21 36 29.9990000  0  5G 2G16G 6G11G19
  20575943.4804    -516247.79148   -359505.60564
  23939081.5584    1833060.40244    463321.18261
  21763989.4334   -7809859.64247  -6056149.53962
  23791020.081     3257620.704 6   2539607.69621
  21684561.472     2627053.541 6   2038823.40522
 91  4 29 21 36 44.9990000  0  4G 2G 6G11G19
  20572903.3944    -532222.23048   -371953.21463
  21757658.9254   -7843130.81747  -6082075.12462
  23796709.230     3287502.420 6   2562892.13121
  21688205.690     2646213.331 6   2053753.09122
 91  4 29 21 36 59.9990000  0  4G 2G 6G11G19
  20569878.0654    -548115.89148   -384337.87863
  21751332.8004   -7876376.04447  -6107980.48862
  23802415.8704    3317500.98146   2586267.57561
  21691864.440     2665440.667 6   2068735.41122
 91  4 29 21 37 14.9990000  0  4G 2G 6G11G19
  20566868.4404    -563932.98248   -396662.88364
  21745008.5264   -7909599.38747  -6133868.80462
  23808146.8474    3347611.89446   2609730.58461
  21695536.683     2684731.347 6   2083767.08922
 91  4 29 21 37 29.9990000  0  4G 2G 6G11G19
  20563873.6754    -579674.02748   -408928.62763
  21738691.4804   -7942801.01946  -6159740.20462
  23813896.8554    3377834.40646   2633280.56861
  21699219.2534    2704085.12446   2098847.94662
 91  4 29 21 37 44.9990000  0  4G 2G 6G11G19
  20560892.0734    -595337.02648   -421133.55664
  21732377.9484   -7975978.89447  -6185593.08862
  23819670.9254    3408170.24945   2656918.84661
  21702913.261     2723504.214 6   2113979.68722
 91  4 29 21 37 59.9990000  0  4G 2G 6G11G19
  20557926.9014    -610923.45048   -433278.81963
  21726068.4564   -8009134.36147  -6211428.51162
  23825466.0424    3438617.68346   2680644.08261
  21706622.706     2742987.117 6   2129161.14822
 91  4 29 21 38 14.9990000  0  4G 2G 6G11G19
  20554975.5584    -626429.67748   -445361.58963
  21719765.6124   -8042263.63047  -6237243.51762
  23831278.5814    3469179.99145   2704458.83161
  21710342.276     2762537.645 6   2144395.30122
 91  4 29 21 38 29.9990000  0  4G 2G 6G11G19
  20552040.2844    -641857.47648   -457383.24663
  21713464.8474   -8075368.12747  -6263039.22362
  23837120.4174    3499855.42046   2728361.71661
  21714076.948     2782154.218 6   2159680.92422
 91  4 29 21 38 44.9990000  0  4G 2G 6G11G19
  20549119.0734    -657205.53848   -469342.77363
  21707171.0894   -8108446.23747  -6288814.37062
  23842977.3004    3530645.05545   2752353.60361
  21717819.198     2801838.318 6   2175019.16622
 91  4 29 21 38 59.9990000  0  4G 2G 6G11G19
  20546214.3704    -672473.82048   -481240.12863
  21700879.8084   -8141498.04447  -6314569.01662
  23848857.589     3561548.534 5   2776434.19021
  21721579.894     2821589.863 6   2190409.96422
 91  4 29 21 39 14.9990000  0  4G 2G 6G11G19
  20543323.9874    -687661.69848   -493074.83463
  21694598.3784   -8174522.69147  -6340302.50262
  23854757.9644    3592566.19845   2800603.76161
  21725351.261     2841409.640 6   2205853.93922
 91  4 29 21 39 29.9990000  0  4G 2G 6G11G19
  20540447.9954    -702775.55748   -504851.86363
  21688316.0344   -8207526.38047  -6366019.65662
  23860682.7064    3623691.51645   2824857.21061
  21729133.925     2861291.256 6   2221346.08122
 91  4 29 21 39 44.9990000  0  4G 2G 6G11G19
  20537587.7614    -717809.90448   -516566.93264
  21682039.4094   -8240503.31847  -6391715.96362
  23866628.948     3654929.714 5   2849198.62421
  21732930.011     2881240.283 6   2236890.75922
 91  4 29 21 39 59.9990000  0  4G 2G 6G11G19
  20534740.7924    -732763.08748   -528218.75463
  21675771.3784   -8273451.74147  -6417390.04962
  23872593.8624    3686282.16845   2873629.06561
  21736738.776     2901258.575 6   2252489.41222
 91  4 29 21 40 14.9990000  0  4G 2G 6G11G19
  20531909.7304    -747637.59248   -539809.27563
  21669505.2844   -8306374.05847  -6443043.79962
  23878580.1984    3717745.95845   2898146.25861
  21740561.284     2921343.685 6   2268140.13122
 91  4 29 21 40 29.9990000  0  4G 2G 6G11G19
  20529096.0424    -762433.86148   -551338.82963
  21663245.6284   -8339270.49347  -6468677.37162
  23884588.487     3749320.462 5   2922749.72521
  21744396.378     2941495.313 6   2283842.67822
 91  4 29 21 40 44.9990000  0  4G 2G 6G11G19
  20526294.7924    -777151.35348   -562807.00063
  21656991.1834   -8372140.45547  -6494290.32762
  23890617.7304    3781005.99045   2947439.69761
  21748244.690     2961714.003 6   2299597.47922
 91  4 29 21 40 59.9990000  0  4G 2G 6G11G19
  20523509.7304    -791789.20548   -574213.11363
  21650741.5654   -8404982.77947  -6519881.73962
  23896669.644     3812803.328 5   2972216.78821
  21752104.401     2982000.819 6   2315405.36622
 91  4 29 21 41 14.9990000  0  4G 2G 6G11G19
  20520738.7694    -806348.42148   -585557.95064
  21644497.4094   -8437798.15947  -6545452.15662
  23902744.284     3844711.151 5   2997079.98721
  21755979.855     3002354.889 6   2331265.66422
 91  4 29 21 41 29.9990000  0  4G 2G 6G11G19
  20517981.4014    -820835.16448   -596846.31763
  21638256.183    -8470592.652 7  -6571006.29322
  23908835.2764    3876723.02545   3022024.24461
  21759861.956     3022770.183 6   2347173.66722
 91  4 29 21 41 44.9990000  0  4G 2G 6G11G19
  20515239.7304    -835244.32348   -608074.22963
  21632022.7694   -8503360.85847  -6596539.95762
  23914947.6124    3908843.82345   3047053.37161
  21763758.714     3043251.740 6   2363133.31022
 91  4 29 21 41 59.9990000  0  4G 2G 6G11G19
  20512512.7374    -849578.74548   -619243.90364
  21625790.628    -8536105.511 7  -6622055.26122
  23921080.972     3941070.431 5   3072164.96821
  21767672.995     3063796.921 6   2379142.52022
 91  4 29 21 42 14.9990000  0  4G 2G 6G11G19
  20509799.0264    -863835.55248   -630353.09863
  21619563.5734   -8568823.50347  -6647549.79162
  23927231.495     3973405.603 5   3097361.16221
  21771592.401     3084408.719 6   2395203.63622
 91  4 29 21 42 29.9990000  0  4G 2G 6G11G19
  20507100.2454    -878017.77748   -641404.17663
  21613345.9564   -8601517.52047  -6673025.64062
  23933404.815     4005846.118 5   3122639.42621
  21775526.8314    3105084.49946   2411314.61862
 91  4 29 21 42 44.9990000  0  4G 2G 6G11G19
  20504416.0034    -892125.09748   -652396.88863
  21607125.7304   -8634187.13647  -6698482.47662
  23939599.409     4038391.881 5   3147999.70621
  21779475.292     3125824.467 6   2427475.61922
 91  4 29 21 42 59.9990000  0  4G 2G 6G11G19
  20501746.4954    -906155.35348   -663329.54863
  21600914.2454   -8666830.18947  -6723918.61062
  23945811.159     4071044.839 5   3173443.52421
  21783434.089     3146630.717 6   2443688.25822
 91  4 29 21 43 14.9990000  0  4G 2G 6G11G19
  20499089.9254    -920107.16048   -674201.08164
  21594706.8554   -8699445.09947  -6749332.81762
  23952045.2764    4103806.06645   3198971.71961
  21787405.901     3167504.676 6   2459953.66222
 91  4 29 21 43 29.9990000  0  4G 2G 6G11G19
  20496450.5654    -933984.27648   -685014.41464
  21588507.4954   -8732035.20647  -6774727.69662
  23958303.417     4136671.750 5   3224581.28921
  21791389.097     3188442.966 6   2476269.18622
 91  4 29 21 43 44.9990000  0  4G 2G 6G11G19
  20493824.6594    -947785.33848   -695768.48664
  21582308.5654   -8764599.02047  -6800102.08962
  23964577.151     4169642.846 5   3250272.99821
  21795386.433     3209447.013 6   2492635.95721
 91  4 29 21 43 59.9990000  0  4G 2G 6G11G19
  20491212.7374    -961508.32748   -706461.71764
  21576118.339    -8797134.428 7  -6825454.34722
  23970868.019     4202721.196 5   3276048.29821
  21799395.355     3230518.878 6   2509055.58521
 91  4 29 21 44 14.9990000  0  4G 2G 6G11G19
  20488615.2064    -975157.65948   -717097.55664
  21569933.2764   -8829645.54747  -6850787.68162
  23977185.2844    4235902.13145   3301903.51561
  21803417.503     3251654.221 6   2525524.65822
 91  4 29 21 44 29.9990000  0  4G 2G 6G11G19
  20486032.6204    -988728.59048   -727672.30164
  21563750.5034   -8862127.42047  -6876098.22262
  23983521.761     4269190.203 5   3327842.21821
  21807453.511     3272857.842 6   2542046.93722
 91  4 29 21 44 44.9990000  0  4G 2G 6G11G19
  20483465.6364   -1002224.30048   -738188.43364
  21557573.3944   -8894583.10047  -6901388.35162
  23989873.6984    4302581.80245   3353861.61261
  21811501.206     3294126.771 6   2558620.10921
 91  4 29 21 44 59.9990000  0  4G 2G 6G11G19
  20480911.3154   -1015645.22948   -748646.29664
  21551402.3234   -8927012.96047  -6926658.36762
  23996248.073     4336076.123 5   3379961.03221
  21815560.878     3315460.586 6   2575243.84221
 91  4 29 21 45 14.9990000  0  4G 2G 6G11G19
  20478371.4334   -1028990.42148   -759045.14064
  21545237.1124   -8959415.63347  -6951907.19562
  24002643.0504    4369674.15145   3406141.27361
  21819634.081     3336860.474 6   2591919.05621
 91  4 29 21 45 29.9990000  0  4G 2G 6G11G19
  20475845.1364   -1042263.36148   -769387.69164
  21539074.7144   -8991794.46447  -6977137.44762
  24009052.222     4403372.172 5   3432399.42021
  21823719.526     3358322.943 6   2608643.03321
 91  4 29 21 45 44.9990000  0  4G 2G 6G11G19
  20473334.3394   -1055459.63348   -779670.49464
  21532919.1054   -9024144.79947  -7002345.49362
  24015487.573     4437174.217 5   3458738.63321
  21827814.394     3379852.515 6   2625419.29921
 91  4 29 21 45 59.9990000  0  4G 2G 6G11G19
  20470838.7374   -1068581.21448   -789895.09864
  21526767.8234   -9056468.63747  -7027532.88962
  24021936.3084    4471077.97545   3485157.11861
  21831925.6364    3401447.14346   2642246.25261
 91  4 29 21 46 14.9990000  0  4G 2G 6G11G19
  20468354.1284   -1081629.83648   -800062.85264
  21520621.7064   -9088767.26247  -7052700.63962
  24028408.230     4505081.448 5   3511653.28121
  21836044.331     3423105.454 6   2659122.83821
 91  4 29 21 46 29.9990000  0  4G 2G 6G11G19
  20465884.9644   -1094607.05448   -810174.96464
  21514480.831    -9121042.053 7  -7077849.81822
  24034896.5194    4539182.96145   3538225.85061
  21840182.565     3444825.971 6   2676047.89421
 91  4 29 21 46 44.9990000  0  4G 2G 6G11G19
  20463429.1054   -1107509.68448   -820228.95664
  21508344.690    -9153289.645 7  -7102977.79922
  24041404.1984    4573385.38845   3564877.05161
  21844324.690     3466611.933 6   2693023.94221
 91  4 29 21 46 59.9990000  0  4G 2G 6G11G19
  20460989.5034   -1120337.34148   -830224.52664
  21502213.206    -9185509.497 7  -7128084.16522
  24047931.542     4607688.821 5   3591606.95621
  21848481.815     3488463.758 6   2710051.31521
 91  4 29 21 47 14.9990000  0  4G 2G 6G11G19
  20458562.4404   -1133090.25648   -840161.85764
  21496086.7064   -9217701.65747  -7153168.95662
  24054480.792     4642092.724 5   3618415.14721
  21852650.050     3510381.186 6   2727129.80621
 91  4 29 21 47 29.9990000  0  4G 2G 6G11G19
  20456148.5114   -1145770.38948   -850042.47864
  21489966.6444   -9249867.85647  -7178233.51662
  24061045.9334    4676594.92345   3645299.90861
  21856839.433     3532362.453 6   2744258.04721
 91  4 29 21 47 44.9990000  0  4G 2G 6G11G19
  20453751.0264   -1158375.81848   -859864.88664
  21483849.5504   -9282005.91047  -7203276.14562
  24067630.2454    4711197.16945   3672262.64261
  21861029.4094    3554409.76446   2761437.74061
 91  4 29 21 47 59.9990000  0  4G 2G 6G11G19
  20451366.6364   -1170906.30348   -869628.89564
  21477738.0504   -9314115.34647  -7228296.47962
  24074236.2144    4745899.39745   3699303.28261
  21865242.792     3576523.373 6   2778669.10821
 91  4 29 21 48 14.9990000  0  4G 2G 6G11G19
  20448993.6754   -1183366.45948   -879338.10664
  21471635.136    -9346200.684 7  -7253298.02922
  24080855.511     4780696.726 5   3726418.03621
  21869458.8004    3598698.65446   2795948.51661
 91  4 29 21 48 29.9990000  0  4G 2G 6G11G19
  20446636.9014   -1195755.79548   -888992.13064
  21465534.2614   -9378261.24947  -7278280.27462
  24087495.0654    4815589.39145   3753607.08661
  21873691.261     3620936.109 6   2813276.37921
 91  4 29 21 48 44.9990000  0  4G 2G 6G11G19
  20444293.6514   -1208070.59248   -898588.07564
  21459437.0974   -9410292.93047  -7303240.01962
  24094157.175     4850580.939 5   3780873.18321
  21877934.511     3643239.785 6   2830655.84421
 91  4 29 21 48 59.9990000  0  4G 2G 6G11G19
  20441964.3554   -1220313.64248   -908128.11064
  21453347.0584   -9442298.27347  -7328179.23562
  24100830.073     4885668.256 5   3808213.90521
  21882194.284     3665606.889 6   2848084.73421
 91  4 29 21 49 14.9990000  0  4G 2G 6G11G19
  20439647.5424   -1232487.14148   -917613.94864
  21447261.0504   -9474279.45847  -7353099.63062
  24107525.456     4920848.759 5   3835627.21921
  21886459.605     3688035.320 6   2865561.41121
 91  4 29 21 49 29.9990000  0  4G 2G 6G11G19
  20437343.6284   -1244587.86348   -927043.08264
  21441180.5654   -9506233.04047  -7377998.51462
  24114238.456     4956125.488 5   3863115.52621
  21890739.370     3710528.462 6   2883088.50621
 91  4 29 21 49 44.9990000  0  4G 2G 6G11G19
  20435055.3394   -1256618.28548   -936417.43064
  21435105.8234   -9538160.96247  -7402877.40462
  24120967.980     4991496.022 5   3890676.93021
  21895033.2224    3733084.19146   2900664.37061
 91  4 29 21 49 59.9990000  0  4G 2G 6G11G19
  20432779.1674   -1268575.71548   -945734.90864
  21429035.4874   -9570060.62847  -7427734.27762
  24127717.433     5026962.445 5   3918313.05821
  21899336.714     3755704.955 6   2918290.91021
 91  4 29 21 50 14.9990000  0  4G 2G 6G11G19
  20430517.7534   -1280459.85648   -954995.26964
  21422970.1364   -9601931.58147  -7452568.77862
  24134484.425     5062524.718 5   3946023.87921
  21903654.5734    3778390.97446   2935968.30361
 91  4 29 21 50 29.9990000  0  4G 2G 6G11G19
  20428270.1204   -1292271.55448   -964199.19164
  21416909.8944   -9633774.32147  -7477381.29162
  24141271.433     5098181.930 5   3973808.66521
  21907983.9954    3801141.78046   2953696.17461
 91  4 29 21 50 44.9990000  0  4G 2G 6G11G19
  20426035.8704   -1304014.35548   -973349.42664
  21410855.753    -9665592.243 7  -7502174.46722
  24148072.940     5133930.079 5   4001664.32121
  21912323.698     3823953.926 6   2971471.84722
 91  4 29 21 50 59.9990000  0  4G 2G 6G11G19
  20423815.3234   -1315684.91248   -982443.36564
  21404806.0114   -9697381.75547  -7526945.50462
  24154899.667     5169772.358 5   4029593.31521
  21916678.675     3846830.757 6   2989297.92722
 91  4 29 21 51 14.9990000  0  4G 2G 6G11G19
  20421608.6284   -1327281.18548   -991479.42164
  21398763.2764   -9729140.43347  -7551692.51662
  24161733.4804    5205710.64045   4057597.11461
  21921045.0894    3869774.55046   3007176.18162
 91  4 29 21 51 29.9990000  0  4G 2G 6G11G19
  20419415.1284   -1338805.89448  -1000459.71064
  21392723.4644   -9760870.94347  -7576417.57562
  24168590.511     5241742.083 5   4085673.51521
  21925421.2764    3892782.68846   3025104.56562
 91  4 29 21 51 44.9990000  0  4G 2G 6G11G19
  20417235.2224   -1350260.21648  -1009385.15064
  21386693.378    -9792574.177 7  -7601121.38622
  24175461.190     5277865.067 5   4113821.22421
  21929811.401     3915853.818 6   3043082.04522
 91  4 29 21 51 59.9990000  0  4G 2G 6G11G19
  20415070.3944   -1361640.07148  -1018252.56964
  21380665.190    -9824245.884 7  -7625800.62422
  24182358.105     5314083.369 5   4142043.21521
  21934213.081     3938992.023 6   3061111.78922
 91  4 29 21 52 14.9990000  0  3G 2G 6G19
  20412917.2304   -1372948.62248  -1027064.42564
  21374643.8394   -9855889.00947  -7650457.59662
  21938630.5654    3962194.40146   3079191.53762
 91  4 29 21 52 29.9990000  0  3G 2G 6G19
  20410779.8004   -1384184.57648  -1035819.71564
  21368627.8784   -9887501.93647  -7675091.03862
  21943058.7144    3985462.51046   3097322.49862
 91  4 29 21 52 44.9990000  0  3G 2G 6G19
  20408654.2144   -1395361.13348  -1044528.71564
  21362615.4404   -9919097.72747  -7699711.12362
  21947495.862     4008783.171 6   3115494.42022
 91  4 29 21 52 59.9990000  0  3G 2G 6G19
  20406539.2534   -1406472.59048  -1053186.99664
  21356607.9094   -9950670.58147  -7724313.33162
  21951943.448     4032162.071 6   3133711.72322
 91  4 29 21 53 14.9990000  0  3G 2G 6G19
  20404438.5814   -1417512.41348  -1061789.45664
  21350605.073    -9982213.742 7  -7748892.41122
  21956405.5034    4055605.81846   3151979.54762
 91  4 29 21 53 29.9990000  0  3G 2G 6G19
  20402351.5194   -1428481.53748  -1070336.82364
  21344606.8864  -10013727.76447  -7773448.78662
  21960879.394     4079113.609 6   3170297.29222
 91  4 29 21 53 44.9990000  0  3G 2G 6G19
  20400276.8624   -1439381.87248  -1078830.58764
  21338615.7224  -10045214.24547  -7797983.69162
  21965365.8004    4102683.88246   3188663.71062
 91  4 29 21 53 59.9990000  0  3G 2G 6G19
  20398214.9804   -1450215.02548  -1087271.99164
  21332629.4094  -10076674.45847  -7822498.13162
  21969861.058     4126315.097 6   3207077.61922
 91  4 29 21 54 14.9990000  0  3G 2G 6G19
  20396167.0734   -1460979.11848  -1095659.60864
  21326647.9334  -10108106.67047  -7846990.75162
  21974371.144     4150009.056 6   3225540.42522
 91  4 29 21 54 29.9990000  0  3G 2G 6G19
  20394131.1054   -1471674.50948  -1103993.67964
  21320672.2764  -10139510.72547  -7871461.43362
  21978894.089     4173765.416 6   3244051.84922
 91  4 29 21 54 44.9990000  0  3G 2G 6G19
  20392110.1444   -1482298.10048  -1112271.80164
  21314702.7224  -10170883.53147  -7895907.76562
  21983424.136     4197587.475 6   3262614.47922
 91  4 29 21 54 59.9990000  0  3G 2G 6G19
  20390101.2694   -1492853.26048  -1120496.60164
  21308737.901   -10202228.203 7  -7920332.17022
  21987967.3004    4221472.02846   3281225.78462
 91  4 29 21 55 14.9990000  0  3G 2G 6G19
  20388105.6594   -1503343.50348  -1128670.81464
  21302776.0034  -10233548.04247  -7944737.23262
  21992524.339     4245415.407 6   3299882.94422
 91  4 29 21 55 29.9990000  0  3G 2G 6G19
  20386121.7694   -1513763.03748  -1136789.93364
  21296824.214   -10264836.943 7  -7969118.17922
  21997096.386     4269423.411 6   3318590.46722
 91  4 29 21 55 44.9990000  0  3G 2G 6G19
  20384152.9404   -1524113.19948  -1144854.99164
  21290874.5654  -10296096.01347  -7993475.88462
  22001675.8154    4293494.91446   3337347.44862
 91  4 29 21 55 59.9990000  0  3G 2G 6G19
  20382195.8084   -1534398.58348  -1152869.57364
  21284930.480   -10327329.538 7  -8017813.68322
  22006265.5034    4317625.40246   3356150.39862
 91  4 29 21 56 14.9990000  0  3G 2G 6G19
  20380252.1674   -1544614.05148  -1160829.67664
  21278993.128   -10358532.254 7  -8042127.47722
  22010872.2374    4341820.23446   3375003.48061
 91  4 29 21 56 29.9980000  0  3G 2G 6G19
  20378320.8734   -1554757.91948  -1168733.99264
  21273061.4754  -10389700.96647  -8066414.77662
  22015487.920     4366078.775 6   3393906.21722
 91  4 29 21 56 44.9980000  0  3G 2G 6G19
  20376402.7014   -1564835.50348  -1176586.65264
  21267136.514   -10420843.309 7  -8090681.52222
  22020116.178     4390400.509 6   3412858.19622
 91  4 29 21 56 59.9980000  0  3G 2G 6G19
  20374497.3424   -1574847.73648  -1184388.39064
  21261215.889   -10451958.566 7  -8114927.16522
  22024753.0064    4414782.23946   3431856.92161
 91  4 29 21 57 14.9980000  0  3G 2G 6G19
  20372607.2254   -1584791.28348  -1192136.60864
  21255299.4754  -10483043.17947  -8139148.93262
  22029405.982     4439227.586 6   3450905.21422
 91  4 29 21 57 29.9980000  0  3G 2G 6G19
  20370727.1474   -1594666.85248  -1199831.85464
  21249389.725   -10514097.822 7  -8163347.34422
  22034069.8114    4463735.64446   3470002.37362
 91  4 29 21 57 44.9980000  0  3G 2G 6G19
  20368859.1004   -1604476.12848  -1207475.44164
  21243487.748   -10545123.813 7  -8187523.42922
  22038744.6474    4488305.00446   3489147.29462
 91  4 29 21 57 59.9980000  0  3G 2G 6G19
  20367007.3734   -1614213.75748  -1215063.20064
  21237589.350   -10576115.532 7  -8211672.80322
  22043437.154     4512941.081 6   3508344.21022
 91  4 29 21 58 14.9980000  0  3G 2G 6G19
  20365167.4364   -1623882.77348  -1222597.49664
  21231698.287   -10607075.845 7  -8235797.70922
  22048133.709     4537640.766 6   3527590.69221
 91  4 29 21 58 29.9980000  0  3G 2G 6G19
  20363341.6864   -1633485.01448  -1230079.75564
  21225810.678   -10638006.210 7  -8259899.28222
  22052850.006     4562402.357 6   3546885.41221
 91  4 29 21 58 44.9980000  0  3G 2G 6G19
  20361525.0684   -1643021.80048  -1237511.01564
  21219930.8184  -10668907.76447  -8283978.40362
  22057569.6394    4587224.63246   3566227.40962
 91  4 29 21 58 59.9980000  0  3G 2G 6G19
  20359723.6624   -1652487.83748  -1244887.14364
  21214057.6624  -10699775.03847  -8308030.81562
  22062308.5294    4612113.05846   3585620.95862
 91  4 29 21 59 14.9980000  0  3G 2G 6G19
  20357935.2174   -1661886.80948  -1252211.01764
  21208189.1394  -10730611.45547  -8332059.18062
  22067054.170     4637063.903 6   3605063.15422
 91  4 29 21 59 29.9980000  0  3G 2G 6G19
  20356159.0534   -1671217.77048  -1259481.88564
  21202327.7014  -10761415.68647  -8356062.47062
  22071815.1704    4662078.40146   3624554.93262
 91  4 29 21 59 44.9980000  0  3G 2G 6G19
  20354397.0374   -1680482.03948  -1266700.79864
  21196471.811   -10792189.012 7  -8380041.67122
  22076586.389     4687155.144 6   3644095.23122
 91  4 29 21 59 59.9980000  0  3G 2G 6G19
  20352646.3814   -1689679.61648  -1273867.73664
  21190622.7564  -10822931.14147  -8403996.56862
  22081374.092     4712294.328 6   3663684.17922
 91  4 29 22  0 14.9980000  0  3G 2G 6G19
  20350907.8734   -1698811.73148  -1280983.66564
  21184776.2014  -10853642.90747  -8427927.80562
  22086165.475     4737494.884 6   3683320.95022
 91  4 29 22  0 29.9980000  0  3G 2G 6G19
  20349184.2324   -1707875.14748  -1288046.06564
  21178938.959   -10884320.943 7  -8451832.75422
  22090975.436     4762759.980 6   3703008.01822
 91  4 29 22  0 44.9980000  0  3G 2G 6G19
  20347472.3814   -1716872.38348  -1295056.89564
  21173107.7484  -10914967.62547  -8475713.27462
  22095793.7324    4788087.16946   3722743.45562
 91  4 29 22  0 59.9980000  0  3G 2G 6G19
  20345773.0064   -1725802.09548  -1302015.10964
  21167280.0684  -10945581.21147  -8499568.00862
  22100623.4594    4813477.95046   3742528.44662
 91  4 29 22  1 14.9980000  0  3G 2G 6G19
  20344087.2644   -1734661.74348  -1308918.72764
  21161462.6314  -10976158.92347  -8523394.78462
  22105471.7794    4838934.87846   3762364.98662
 91  4 29 22  1 29.9980000  0  3G 2G 6G19
  20342411.9754   -1743467.80448  -1315780.58864
  21155648.1314  -11006717.15747  -8547206.38462
  22110325.061     4864441.418 6   3782240.18021
 91  4 29 22  1 44.9980000  0  3G 2G 6G19
  20340748.4824   -1752205.02448  -1322588.81264
  21149840.3574  -11037240.29547  -8570990.63762
  22115189.029     4890012.939 6   3802166.02022
 91  4 29 22  1 59.9980000  0  3G 2G 6G19
  20339096.7324   -1760880.83148  -1329349.17664
  21144036.3344  -11067735.48347  -8594753.11662
  22120065.3344    4915642.23146   3822136.86062
 91  4 29 22  2 14.9980000  0  3G 2G 6G19
  20337460.1394   -1769488.59348  -1336056.52164
  21138241.225   -11098195.920 7  -8618488.51023
  22124957.2794    4941336.05346   3842157.99162
 91  4 29 22  2 29.9980000  0  3G 2G 6G19
  20335834.7794   -1778026.39848  -1342709.35264
  21132449.7404  -11128619.43547  -8642195.13462
  22129856.0144    4967096.27146   3862230.86062
 91  4 29 22  2 44.9980000  0  3G 2G 6G19
  20334221.7014   -1786504.20048  -1349315.42864
  21126665.178   -11159015.674 7  -8665880.50022
  22134770.2014    4992912.99946   3882347.75862
 91  4 29 22  2 59.9980000  0  3G 2G 6G19
  20332620.0614   -1794916.28548  -1355870.29764
  21120889.686   -11189378.772 7  -8689540.04323
  22139693.9904    5018791.93846   3902513.13162
 91  4 29 22  3 14.9980000  0  3G 2G 6G19
  20331032.0294   -1803263.80748  -1362374.85564
  21115117.6544  -11219709.40147  -8713174.28362
  22144631.3264    5044732.38546   3922726.43361
 91  4 29 22  3 29.9980000  0  3G 2G 6G19
  20329457.4514   -1811544.91448  -1368827.66564
  21109351.2644  -11250005.59647  -8736781.70363
  22149580.803     5070736.217 6   3942989.13422
 91  4 29 22  3 44.9980000  0  3G 2G 6G19
  20327891.8114   -1819760.84248  -1375229.68264
  21103592.7014  -11280268.34747  -8760363.05763
  22154541.6624    5096802.18346   3963300.25161
 91  4 29 22  3 59.9980000  0  3G 2G 6G19
  20326341.3184   -1827914.62648  -1381583.27664
  21097840.475   -11310500.591 7  -8783920.63823
  22159512.3894    5122927.09146   3983657.29662
 91  4 29 22  4 14.9980000  0  3G 2G 6G19
  20324801.3894   -1836002.97248  -1387885.88164
  21092093.459   -11340698.584 7  -8807451.52823
  22164495.5534    5149114.53846   4004063.06662
 91  4 29 22  4 29.9980000  0  3G 2G 6G19
  20323275.2484   -1844029.28648  -1394140.14564
  21086352.756   -11370865.466 7  -8830958.17623
  22169487.850     5175361.037 6   4024514.85922
 91  4 29 22  4 44.9980000  0  3G 2G 6G19
  20321759.6074   -1851989.35948  -1400342.79564
  21080620.490   -11400996.823 7  -8854437.13823
  22174495.6544    5201671.07046   4045016.16062
 91  4 29 22  4 59.9980000  0  3G 2G 6G19
  20320258.2644   -1859885.15148  -1406495.35564
  21074890.576   -11431094.369 7  -8877889.75323
  22179515.959     5228042.638 6   4065565.39822
 91  4 29 22  5 14.9980000  0  3G 2G 6G19
  20318767.1784   -1867717.27648  -1412598.30864
  21069170.717   -11461158.504 7  -8901316.33823
  22184545.9434    5254475.17046   4086162.15162
 91  4 29 22  5 29.9980000  0  3G 2G 6G19
  20317289.0614   -1875481.28848  -1418648.18164
  21063457.068   -11491184.454 7  -8924713.17123
  22189587.381     5280973.206 6   4106809.94522
 91  4 29 22  5 44.9980000  0  3G 2G 6G19
  20315823.4124   -1883183.73248  -1424650.08164
  21057749.6474  -11521178.58147  -8948085.20263
  22194641.9754    5307530.31546   4127503.76362
 91  4 29 22  5 59.9980000  0  3G 2G 6G19
  20314371.0534   -1890820.16948  -1430600.54864
  21052047.6154  -11551136.06047  -8971428.68263
  22199706.037     5334151.045 6   4148247.16322
 91  4 29 22  6 14.9980000  0  3G 2G 6G19
  20312929.1154   -1898393.06848  -1436501.50764
  21046354.6934  -11581059.15847  -8994745.37563
  22204785.186     5360832.960 6   4169038.26021
 91  4 29 22  6 29.9980000  0  3G 2G 6G19
  20311500.7794   -1905902.55548  -1442353.04964
  21040664.9284  -11610947.87447  -9018035.27163
  22209873.5534    5387575.89246   4189876.87861
 91  4 29 22  6 44.9980000  0  3G 2G 6G19
  20310083.8814   -1913346.29148  -1448153.36064
  21034987.0924  -11640799.50547  -9041296.27263
  22214973.6934    5414382.40946   4210765.03862
 91  4 29 22  6 59.9980000  0  3G 2G 6G19
  20308679.5144   -1920725.37048  -1453903.29164
  21029311.9674  -11670614.85847  -9064529.00463
  22220089.131     5441251.446 6   4231701.92421
 91  4 29 22  7 14.9980000  0  3G 2G 6G19
  20307287.6314   -1928040.31648  -1459603.24764
  21023644.7874  -11700394.23247  -9087733.70163
  22225212.9284    5468182.35746   4252687.01961
 91  4 29 22  7 29.9980000  0  3G 2G 6G19
  20305907.2484   -1935294.91048  -1465256.16964
  21017984.4364  -11730141.23247  -9110913.17163
  22230345.2324    5495171.59546   4273717.56161
 91  4 29 22  7 44.9980000  0  3G 2G 6G19
  20304539.6154   -1942483.18248  -1470857.41864
  21012331.1474  -11759849.47747  -9134062.44863
  22235498.0144    5522225.36746   4294798.39862
 91  4 29 22  7 59.9980000  0  4G 2G13G 6G19
  20303183.6934   -1949611.70148  -1476412.10264
  23626808.4204         -0.84854
  21006684.936   -11789525.263 7  -9157186.42223
  22240655.9434    5549337.01646   4315924.32261
 91  4 29 22  8 14.9980000  0  4G 2G13G 6G19
  20301839.6234   -1956669.86848  -1481911.97064
  23614123.6394     -66640.95644
  21001045.311   -11819157.832 7  -9180276.72523
  22245830.576     5576517.183 6   4337103.64821
 91  4 29 22  8 29.9980000  0  4G 2G13G 6G19
  20300509.8264   -1963667.14948  -1487364.39364
  23601444.0224    -133259.19844
  20995412.6234  -11848756.40247  -9203340.53363
  22251010.8574    5603756.55346   4358329.10461
 91  4 29 22  8 44.9980000  0  4G 2G13G 6G19
  20299188.9044   -1970600.14048  -1492766.72164
  23588774.9674    -199851.56444
  20989787.1474  -11878317.17047  -9226374.89463
  22256207.545     5631058.662 6   4379603.45322
 91  4 29 22  8 59.9980000  0  4G 2G13G 6G19
  20297880.8114   -1977471.48948  -1498121.01464
  23576107.0844    -266420.40244
  20984168.9984  -11907842.53947  -9249381.66363
  22261412.4824    5658420.75746   4400924.54361
 91  4 29 22  9 14.9980000  0  4G 2G13G 6G19
  20296585.6074   -1984279.16848  -1503425.69764
  23563441.7564    -332963.09944
  20978558.7094  -11937330.22947  -9272359.07763
  22266633.256     5685845.076 6   4422294.11221
 91  4 29 22  9 29.9980000  0  4G 2G13G 6G19
  20295303.2094   -1991022.20948  -1508680.00464
  23550784.5614    -399478.12044
  20972954.787   -11966779.060 7  -9295306.20523
  22271863.8574    5713332.46546   4443712.82761
 91  4 29 22  9 44.9980000  0  4G 2G13G 6G19
  20294031.6544   -1997701.83948  -1513884.90764
  23538133.4754    -465966.52344
  20967356.9904  -11996190.15047  -9318223.92963
  22277106.2484    5740881.74546   4465179.75661
 91  4 29 22  9 59.9980000  0  4G 2G13G 6G19
  20292771.0144   -2004320.82848  -1519042.55764
  23525487.3034    -532430.77644        -0.19871
  20961767.0224  -12025565.91547  -9341114.13063
  22282357.990     5768490.339 6   4486692.91621
 91  4 29 22 10 14.9980000  0  4G 2G13G 6G19
  20291525.1784   -2010876.77048  -1524151.08064
  23512844.6394    -598867.83144    -51769.20961
  20956184.0924  -12054903.63447  -9363974.68063
  22287624.8264    5796160.54046   4508254.07961
 91  4 29 22 10 29.9980000  0  4G 2G13G 6G19
  20290289.5224   -2017368.30148  -1529209.40764
  23500205.2724    -665275.51544   -103515.33061
  20950609.162   -12084201.641 7  -9386804.28523
  22292905.7874    5823893.87645   4529864.43561
 91  4 29 22 10 44.9980000  0  4G 2G13G 6G19
  20289066.1784   -2023797.62948  -1534219.27064
  23487575.3654    -731655.63644   -155239.94161
  20945040.5064  -12113461.75347  -9409604.36363
  22298191.623     5851688.309 6   4551522.41021
 91  4 29 22 10 59.9980000  0  4G 2G13G 6G19
  20287854.3264   -2030166.02248  -1539181.64964
  23474950.3114    -798008.80744   -206943.57361
  20939481.4754  -12142684.97247  -9432375.68863
  22303493.9204    5879542.73845   4573227.12461
 91  4 29 22 11 14.9980000  0  4G 2G13G 6G19
  20286653.4754   -2036470.46948  -1544094.20664
  23462329.0294    -864331.88245   -258623.78061
  20933928.0224  -12171868.30247  -9455115.93763
  22308803.3654    5907460.14545   4594980.91561
 91  4 29 22 11 29.9980000  0  4G 2G13G 6G19
  20285466.6544   -2042711.70148  -1548957.49564
  23449710.889     -930624.940 4   -310280.55521
  20928381.3654  -12201011.91947  -9477825.24463
  22314133.0144    5935439.90945   4616783.30061
 91  4 29 22 11 44.9980000  0  4G 2G13G 6G19
  20284291.2404   -2048890.46748  -1553772.11464
  23437100.209     -996888.608 4   -361914.42721
  20922842.8654  -12230116.43147  -9500504.08163
  22319466.357     5963481.305 5   4638633.70821
 91  4 29 22 11 59.9980000  0  4G 2G13G 6G19
  20283125.6624   -2055009.96848  -1558540.55364
  23424494.3344   -1063125.12145   -413527.17161
  20917310.6544  -12259184.79547  -9523154.75063
  22324811.3654    5991581.15546   4660529.66761
 91  4 29 22 12 14.9980000  0  4G 2G13G 6G19
  20281974.5684   -2061066.23848  -1563259.71864
  23411897.647    -1129330.270 5   -465115.45221
  20911787.3344  -12288212.71947  -9545773.90463
  22330172.6544    6019743.38245   4682474.22961
 91  4 29 22 12 29.9980000  0  4G 2G13G 6G19
  20280832.7094   -2067063.76848  -1567933.11864
  23399305.2174   -1195508.08545   -516682.47261
  20906270.3814  -12317204.38047  -9568364.80463
  22335546.522     6047963.630 5   4704464.00421
 91  4 29 22 12 44.9980000  0  4G 2G13G 6G19
  20279703.0684   -2072999.41248  -1572558.29264
  23386717.717    -1261654.921 5   -568225.30521
  20900761.4124  -12346156.55547  -9590924.93663
  22340921.897     6076244.948 5   4726501.37221
 91  4 29 22 12 59.9980000  0  4G 2G13G 6G19
  20278585.4824   -2078870.22748  -1577132.95164
  23374138.654    -1327767.290 5   -619741.33021
  20895258.5294  -12375065.76347  -9613451.58663
  22346320.9364    6104590.51045   4748588.79361
 91  4 29 22 13 14.9980000  0  4G 2G13G 6G19
  20277481.0614   -2084678.05848  -1581658.52864
  23361565.1394   -1393846.52645   -671231.49861
  20889766.7254  -12403933.68247  -9635946.06763
  22351724.2094    6132998.50345   4770724.85561
 91  4 29 22 13 29.9980000  0  4G 2G13G 6G19
  20276388.3814   -2090423.36648  -1586135.39164
  23348994.397    -1459892.690 5   -722695.91521
  20884280.5764  -12432760.49447  -9658408.50863
  22357141.8344    6161468.58345   4792909.29261
 91  4 29 22 13 44.9980000  0  4G 2G13G 6G19
  20275306.3184   -2096105.98148  -1590563.40164
  23336433.8344   -1525905.05545   -774133.95161
  20878802.6784  -12461545.85547  -9680838.65463
  22362571.756     6190000.914 5   4815142.25621
 91  4 29 22 13 59.9980000  0  4G 2G13G 6G19
  20274236.0614   -2101731.54448  -1594946.95464
  23323876.928    -1591888.882 5   -825549.82421
  20873333.4204  -12490295.14047  -9703240.68863
  22368013.1394    6218589.85145   4837419.31361
 91  4 29 22 14 14.9980000  0  4G 2G13G 6G19
  20273177.2794   -2107297.19548  -1599283.82364
  23311325.5844   -1657840.50945   -876940.58261
  20867868.9434  -12519004.98647  -9725611.99463
  22373462.1004    6247238.45845   4859742.86861
 91  4 29 22 14 29.9980000  0  4G 2G13G 6G19
  20272130.1544   -2112799.74448  -1603571.52064
  23298782.6154   -1723756.50145   -928303.54961
  20862414.3114  -12547672.03247  -9747949.94463
  22378925.8734    6275949.92945   4882115.40661
 91  4 29 22 14 44.9980000  0  4G 2G13G 6G19
  20271095.9284   -2118237.46648  -1607808.70664
  23286247.318    -1789634.814 5   -979637.18621
  20856967.8114  -12576294.29947  -9770252.99863
  22384401.725     6304725.998 5   4904538.29321
 91  4 29 22 14 59.9980000  0  4G 2G13G 6G19
  20270072.0224   -2123612.61348  -1611997.13064
  23273716.084    -1855477.147 5  -1030942.75621
  20851528.6624  -12604873.80647  -9792522.73863
  22389889.2564    6333564.49845   4927009.82561
 91  4 29 22 15 14.9980000  0  4G 2G13G 6G19
  20269062.8974   -2128924.11048  -1616135.95664
  23261194.5764   -1921281.85445  -1082219.01661
  20846098.6544  -12633409.27747  -9814758.16463
  22395391.9434    6362466.64045   4949530.94161
 91  4 29 22 15 29.9980000  0  4G 2G13G 6G19
  20268063.8654   -2134169.21848  -1620223.05364
  23248680.4984   -1987045.87845  -1133463.59961
  20840677.1074  -12661897.55947  -9836956.81463
  22400903.654     6391435.220 5   4972103.84321
 91  4 29 22 15 44.9980000  0  4G 2G13G 6G19
  20267076.4594   -2139355.18848  -1624264.06664
  23236173.482    -2052776.092 5  -1184681.83421
  20835263.6864  -12690345.62947  -9859124.13463
  22406425.6154    6420462.83745   4994722.73161
 91  4 29 22 15 59.9980000  0  4G 2G13G 6G19
  20266101.5924   -2144480.21748  -1628257.59464
  23223671.889    -2118470.158 5  -1235871.86321
  20829859.6544  -12718751.55747  -9881258.61663
  22411963.9754    6449551.44245   5017389.15061
 91  4 29 22 16 14.9980000  0  4G 2G13G 6G19
  20265135.8974   -2149548.16348  -1632206.64364
  23211176.2874   -2184131.35445  -1287036.30461
  20824461.3734  -12747118.73047  -9903362.89763
  22417509.2404    6478697.31645   5040100.18661
 91  4 29 22 16 29.9980000  0  4G 2G13G 6G19
  20264184.4594   -2154558.64148  -1636110.90964
  23198688.740    -2249758.651 5  -1338174.34621
  20819069.2564  -12775446.45447  -9925436.44263
  22423065.2954    6507900.96845   5062856.24761
 91  4 29 22 16 44.9980000  0  4G 2G13G 6G19
  20263242.2794   -2159506.15248  -1639966.11664
  23186207.3264   -2315346.23245  -1389281.41361
  20813686.5684  -12803729.06247  -9947474.83063
  22428637.0924    6537167.72245   5085661.48361
 91  4 29 22 16 59.9980000  0  4G 2G13G 6G19
  20262312.6004   -2164386.61248  -1643769.07164
  23173734.3114   -2380889.54345  -1440354.00761
  20808315.0224  -12831962.42247  -9969474.84263
  22434216.2564    6566501.66045   5108519.06261
 91  4 29 22 17 14.9980000  0  4G 2G13G 6G19
  20261395.3424   -2169209.65448  -1647527.28764
  23161270.2484   -2446397.68445  -1491399.19561
  20802950.6004  -12860155.53347  -9991443.49263
  22439811.0374    6595893.35845   5131421.64661
 91  4 29 22 17 29.9980000  0  4G 2G13G 6G19
  20260487.6074   -2173975.68148  -1651241.07264
  23148808.8814   -2511870.45445  -1542416.79761
  20797592.1474  -12888308.64447 -10013380.97163
  22445415.6074    6625342.50145   5154369.00561
 91  4 29 22 17 44.9980000  0  4G 2G13G 6G19
  20259593.2324   -2178681.90048  -1654908.25764
  23136358.1864   -2577304.75945  -1593404.46261
  20792243.1074  -12916418.69647 -10035284.90163
  22451031.8894    6654851.84945   5177363.26561
 91  4 29 22 17 59.9980000  0  4G 2G13G 6G19
  20258708.1934   -2183327.21948  -1658527.98964
  23123915.2174   -2642699.04045  -1644360.89361
  20786902.4434  -12944484.31547 -10057154.20963
  22456656.3894    6684422.62145   5200405.39461
 91  4 29 22 18 14.9980000  0  4G 2G13G 6G19
  20257836.8264   -2187910.56848  -1662099.42864
  23111476.834    -2708051.444 5  -1695284.72121
  20781570.3264  -12972504.01047 -10078987.73563
  22462297.2724    6714056.10045   5223496.38661
 91  4 29 22 18 29.9980000  0  4G 2G13G 6G19
  20256976.6074   -2192433.63748  -1665623.90064
  23099050.3034   -2773363.25645  -1746176.95161
  20776246.7724  -13000479.20447 -10100786.57563
  22467944.0064    6743750.41245   5246634.77761
 91  4 29 22 18 44.9980000  0  4G 2G13G 6G19
  20256126.8894   -2196894.23248  -1669099.69164
  23086629.951    -2838632.202 5  -1797035.73621
  20770933.2874  -13028407.43647 -10122548.82763
  22473608.5684    6773507.86745   5269822.37261
 91  4 29 22 18 59.9980000  0  4G 2G13G 6G19
  20255289.7874   -2201294.00948  -1672528.09164
  23074217.420    -2903859.456 5  -1847862.05821
  20765626.6784  -13056290.31947 -10144275.74263
  22479281.5144    6803326.64645   5293057.74861
 91  4 29 22 19 14.9980000  0  4G 2G13G 6G19
  20254464.3654   -2205635.19048  -1675910.83164
  23061809.498    -2969046.517 5  -1898657.03921
  20760328.0924  -13084129.62547 -10165968.70463
  22484970.3184    6833204.63145   5316339.25861
 91  4 29 22 19 29.9980000  0  4G 2G13G 6G19
  20253649.1544   -2209915.52648  -1679246.16164
  23049412.4044   -3034190.70545  -1949418.63561
  20755041.1544  -13111922.86747 -10187625.76863
  22490667.9674    6863144.14645   5339668.72161
 91  4 29 22 19 44.9980000  0  4G 2G13G 6G19
  20252847.5534   -2214133.29648  -1682532.73764
  23037026.717    -3099289.975 5  -2000145.21221
  20749760.4754  -13139668.20847 -10209245.51063
  22496377.1004    6893146.85545   5363047.41061
 91  4 29 22 19 59.9980000  0  4G 2G13G 6G19
  20252055.5064   -2218290.87848  -1685772.41364
  23024644.662    -3164346.207 5  -2050838.27421
  20744489.8504  -13167367.42447 -10230829.30863
  22502094.959     6923210.511 5   5386473.59621
 91  4 29 22 20 14.9980000  0  4G 2G13G 6G19
  20251275.1074   -2222393.48548  -1688969.25364
  23012273.1394   -3229363.99445  -2101501.36361
  20739225.2874  -13195025.65947 -10252381.17463
  22507829.9434    6953330.04045   5409943.32261
 91  4 29 22 20 29.9980000  0  4G 2G13G 6G19
  20250505.7174   -2226436.41548  -1692119.59164
  22999909.8974   -3294337.94945  -2152130.32861
  20733971.5294  -13222637.70847 -10273897.05263
  22513575.3184    6983510.25545   5433460.33861
 91  4 29 22 20 44.9980000  0  4G 2G13G 6G19
  20249748.1234   -2230417.86448  -1695222.02164
  22987556.0064   -3359265.83845  -2202723.37761
  20728725.6234  -13250201.60747 -10295375.40863
  22519326.0224    7013752.82745   5457025.94661
 91  4 29 22 20 59.9980000  0  4G 2G13G 6G19
  20249003.7324   -2234338.48548  -1698277.05164
  22975206.3264   -3424148.07845  -2253280.85061
  20723489.8264  -13277717.60947 -10316816.44563
  22525089.545     7044057.430 5   5480639.88421
 91  4 29 22 21 14.9980000  0  4G 2G13G 6G19
  20248268.4984   -2238189.63648  -1701277.95164
  22962869.9594   -3488975.30545  -2303795.46661
  20718265.2014  -13305176.77647 -10338213.19063
  22530872.8034    7074432.57945   5504308.79161
 91  4 29 22 21 29.9980000  0  4G 2G13G 6G19
  20247546.5684   -2241984.26448  -1704234.80964
  22950541.873    -3553760.283 5  -2354277.15321
  20713049.0684  -13332592.07147 -10359575.75363
  22536663.334     7104865.118 5   5528022.41721
 91  4 29 22 21 44.9980000  0  4G 2G13G 6G19
  20246837.5454   -2245719.49948  -1707145.38864
  22938222.826    -3618499.738 5  -2404723.36821
  20707840.4824  -13359960.22347 -10380901.57963
  22542465.7324    7135358.17045   5551783.19561
 91  4 29 22 21 59.9980000  0  4G 2G13G 6G19
  20246136.1934   -2249397.44548  -1710011.32764
  22925909.756    -3683195.187 5  -2455135.29521
  20702641.7404  -13387282.91047 -10402191.97263
  22548278.0454    7165909.69045   5575589.54161
 91  4 29 22 22 14.9980000  0  4G 2G13G 6G19
  20245448.9364   -2253013.87948  -1712829.33064
  22913610.2724   -3747841.74445  -2505509.14061
  20697451.3344  -13414555.73847 -10423443.52263
  22554107.5294    7196523.78445   5599444.64561
 91  4 29 22 22 29.9980000  0  4G 2G13G 6G19
  20244770.6784   -2256572.33148  -1715602.15264
  22901317.8894   -3812442.60845  -2555847.38061
  20692270.7174  -13441781.71547 -10444658.56363
  22559943.7564    7227197.23445   5623345.99561
 91  4 29 22 22 44.9980000  0  4G 2G13G 6G19
  20244105.9284   -2260068.59048  -1718326.51464
  22889034.9434   -3876993.21745  -2606146.44461
  20687099.7254  -13468956.67547 -10465833.84563
  22565795.076     7257934.109 5   5647296.76421
 91  4 29 22 22 59.9980000  0  5G 2G13G 6G15G19
  20243451.8894   -2263501.92848  -1721001.84964
  22876762.0374   -3941492.17345  -2656405.25661
  20681937.6394  -13496079.38447 -10486968.42263
  23706929.8654         -0.45155
  22571657.2094    7288735.32245   5671297.67261
 91  4 29 22 23 14.9980000  0  5G 2G13G 6G15G19
  20242810.3424   -2266873.39048  -1723628.96964
  22864498.607    -4005939.942 5  -2706624.19021
  20676787.6004  -13523150.50347 -10508062.79663
  23701984.0764     -26006.98345
  22577528.6624    7319599.68245   5695347.77961
 91  4 29 22 23 29.9980000  0  5G 2G13G 6G15G19
  20242181.4904   -2270182.58448  -1726207.56564
  22852242.6474   -4070335.77045  -2756802.67861
  20671645.1314  -13550169.49747 -10529116.55263
  23697056.8114     -51906.17145
  22583416.7014    7350527.75345   5719447.53061
 91  4 29 22 23 44.9980000  0  5G 2G13G 6G15G19
  20241562.7404   -2273434.21248  -1728741.30764
  22839996.7794   -4134684.04945  -2806944.07261
  20666512.6544  -13577140.78047 -10550133.13563
  23692147.686      -77702.383 5
  22589308.9674    7381514.73345   5743593.19261
 91  4 29 22 23 59.9980000  0  5G 2G13G 6G15G19
  20240954.8264   -2276625.66548  -1731228.16164
  22827763.904    -4198981.549 5  -2857045.91421
  20661388.9984  -13604061.47547 -10571110.29863
  23687256.9514    -103392.46445
  22595220.9124    7412563.40345   5767786.91661
 91  4 29 22 24 14.9980000  0  5G 2G13G 6G15G19
  20240358.7724   -2279760.41048  -1733670.82564
  22815534.6314   -4263231.23145  -2907110.50261
  20656274.0684  -13630934.71847 -10592050.48463
  23682394.2484    -128979.84345        -0.15071
  22601138.1074    7443670.25145   5792025.98461
 91  4 29 22 24 29.9980000  0  5G 2G13G 6G15G19
  20239773.2174   -2282835.80648  -1736067.24464
  22803317.7484   -4327430.22345  -2957135.58061
  20651172.0064  -13657757.83147 -10612951.60563
  23677535.256     -154461.865 5    -19856.24421
  22607069.928     7474837.743 5   5816312.29221
 91  4 29 22 24 44.9980000  0  5G 2G13G 6G15G19
  20239199.2484   -2285851.31848  -1738417.00064
  22791110.068    -4391577.373 5  -3007120.29421
  20646077.0614  -13684529.79347 -10633812.87363
  23672707.7874    -179837.06745    -39629.11161
  22613013.920     7506066.645 5   5840646.44921
 91  4 29 22 24 59.9980000  0  5G 2G13G 6G15G19
  20238635.8814   -2288804.30448  -1740718.02764
  22778912.701    -4455669.603 5  -3057062.19221
  20640992.959   -13711247.696 7 -10654631.99923
  23667898.5144    -205102.53445    -59316.43961
  22618964.2794    7537359.69745   5865030.60861
 91  4 29 22 25 14.9980000  0  5G 2G13G 6G15G19
  20238086.0064   -2291696.00948  -1742971.31064
  22766729.686    -4519707.543 5  -3106961.79621
  20635917.7794  -13737912.28247 -10675409.59763
  23663109.9594    -230259.00445    -78918.87861
  22624929.6154    7568715.72445   5889463.84261
 91  4 29 22 25 29.9980000  0  5G 2G13G 6G15G19
  20237548.2794   -2294525.00348  -1745175.72864
  22754553.6704   -4583689.31745  -3156817.64361
  20630854.2954  -13764521.91747 -10696144.37363
  23658349.4984    -255304.73645    -98434.99761
  22630913.2094    7600136.27245   5913947.34261
 91  4 29 22 25 44.9980000  0  5G 2G13G 6G15G19
  20237020.3114   -2297297.84648  -1747336.39164
  22742387.779    -4647620.996 5  -3206634.44121
  20625800.4674  -13791082.92647 -10716841.26163
  23653604.295     -280245.794 5   -117869.56621
  22636901.326     7631614.591 5   5938475.84521
 91  4 29 22 25 59.9980000  0  5G 2G13G 6G15G19
  20236503.6394   -2300012.07148  -1749451.38164
  22730231.3734   -4711499.59945  -3256409.89161
  20620754.0534  -13817592.57647 -10737498.12963
  23648872.553     -305079.422 5   -137220.42521
  22642899.865     7663153.157 5   5963051.30621
 91  4 29 22 26 14.9980000  0  5G 2G13G 6G15G19
  20235997.9514   -2302666.71648  -1751519.94564
  22718083.670    -4775323.885 5  -3306142.99921
  20615721.1234  -13844049.79947 -10758114.14263
  23644171.1234    -329804.53545   -156486.72161
  22648916.779     7694752.879 5   5987674.42221
 91  4 29 22 26 29.9980000  0  5G 2G13G 6G15G19
  20235504.8504   -2305262.74548  -1753542.83164
  22705948.2794   -4839094.22645  -3355834.08661
  20610695.1004  -13870455.09947 -10778689.69863
  23639484.0534    -354421.65045   -175668.86161
  22654943.7014    7726412.86945   6012344.50261
 91  4 29 22 26 44.9980000  0  5G 2G13G 6G15G19
  20235021.1624   -2307803.77248  -1755522.85464
  22693825.693    -4902813.785 5  -3405485.60121
  20605681.5374  -13896811.75047 -10799227.34463
  23634819.615     -378933.960 5   -194769.33721
  22660975.561     7758129.569 5   6037058.76821
 91  4 29 22 26 59.9980000  0  5G 2G13G 6G15G19
  20234548.8734   -2310287.97848  -1757458.60264
  22681710.350    -4966480.354 5  -3455095.86221
  20600674.1074  -13923117.62447 -10819725.42663
  23630175.982     -403339.104 5   -213786.31321
  22667020.6544    7789904.85845   6061818.67861
 91  4 29 22 27 14.9980000  0  5G 2G13G 6G15G19
  20234086.3974   -2312717.40748  -1759351.67164
  22669603.6074   -5030095.73345  -3504666.16961
  20595677.9044  -13949374.48347 -10840185.31363
  23625554.686     -427638.862 5   -232721.16421
  22673078.7644    7821736.80745   6086622.75761
 91  4 29 22 27 29.9980000  0  5G 2G13G 6G15G19
  20233635.9364   -2315086.68848  -1761197.86864
  22657510.061    -5093653.681 5  -3554191.77221
  20590691.6154  -13975576.61347 -10860602.55863
  23620950.5684    -451827.39845   -251569.34161
  22679150.178     7853630.889 5   6111475.23321
 91  4 29 22 27 44.9980000  0  5G 2G13G 6G15G19
  20233195.6624   -2317397.73748  -1762998.69164
  22645424.256    -5157155.657 5  -3603673.73021
  20585715.7794  -14001725.55447 -10880978.35363
  23616373.6154    -475906.49845   -270332.24661
  22685231.6624    7885584.96745   6136374.48261
 91  4 29 22 27 59.9980000  0  5G 2G13G 6G15G19
  20232765.0454   -2319653.79848  -1764756.66664
  22633351.6314   -5220604.40345  -3653114.24061
  20580748.5684  -14027824.54347 -10901315.23163
  23611813.217     -499879.119 5   -289012.19221
  22691318.037     7917596.022 5   6161318.11221
 91  4 29 22 28 14.9980000  0  5G 2G13G 6G15G19
  20232348.3574   -2321849.81548  -1766467.85164
  22621287.5294   -5283994.66945  -3702509.18161
  20575792.6624  -14053868.23147 -10921609.00863
  23607259.7324    -523739.84045   -307604.94161
  22697426.475     7949668.835 5   6186309.87021
 91  4 29 22 28 29.9980000  0  5G 2G13G 6G15G19
  20231942.1864   -2323984.40648  -1768131.17464
  22609238.920    -5347324.522 5  -3751857.04821
  20570847.8574  -14079854.86047 -10941858.33163
  23602748.100     -547486.790 5   -326109.03121
  22703541.889     7981805.096 5   6211351.06521
 91  4 29 22 28 44.9980000  0  5G 2G13G 6G15G19
  20231547.4594   -2326062.05748  -1769750.12964
  22597198.2484   -5410598.09445  -3801161.01661
  20565912.4984  -14105788.63447 -10962066.46863
  23598248.0224    -571124.32245   -344527.86361
  22709666.662     8014000.152 5   6236438.08421
 91  4 29 22 28 59.9980000  0  5G 2G13G 6G15G19
  20231163.4284   -2328078.17748  -1771321.13764
  22585168.6544   -5473810.19445  -3850417.10861
  20560989.1544  -14131664.35847 -10982229.36863
  23593770.779     -594647.062 5   -362857.24321
  22715806.365     8046258.702 5   6261574.57421
 91  4 29 22 29 14.9980000  0  5G 2G13G 6G15G19
  20230788.8814   -2330039.06048  -1772849.10064
  22573149.795    -5536966.646 5  -3899629.84521
  20556076.3654  -14157488.04247 -11002351.71263
  23589319.092     -618061.039 5   -381101.86521
  22721953.936     8078574.508 5   6286755.67521
 91  4 29 22 29 29.9980000  0  5G 2G13G 6G15G19
  20230426.6624   -2331944.22448  -1774333.65064
  22561141.506    -5600066.315 5  -3948798.35021
  20551170.6394  -14183259.17347 -11022433.11563
  23584884.053     -641365.409 5   -399261.09521
  22728115.436     8110948.137 5   6311981.82821
 91  4 29 22 29 44.9980000  0  5G 2G13G 6G15G19
  20230076.0534   -2333791.07248  -1775772.75564
  22549145.131    -5663105.880 5  -3997920.00821
  20546278.2324  -14208974.82847 -11042471.28263
  23580461.1704    -664557.12045   -417332.52161
  22734289.225     8143382.235 5   6337255.10021
 91  4 29 22 29 59.9980000  0  5G 2G13G 6G15G19
  20229735.7954   -2335577.14548  -1777164.50864
  22537161.5144   -5726082.82845  -4046992.87161
  20541394.2324  -14234632.35447 -11062464.15963
  23576080.1394    -687633.69345   -435314.23061
  22740471.162     8175878.936 5   6362577.16321
 91  4 29 22 30 14.9980000  0  5G 2G13G 6G15G19
  20229406.6864   -2337309.43048  -1778514.34364
  22525187.529    -5789003.726 5  -4096022.05821
  20536522.3504  -14260238.37947 -11082416.90863
  23571712.5294    -710601.67945   -453211.33961
  22746667.943     8208431.320 5   6387942.61021
 91  4 29 22 30 29.9980000  0  5G 2G13G 6G15G19
  20229088.5454   -2338980.68548  -1779816.62364
  22513225.475    -5851860.916 5  -4145001.61421
  20531660.4824  -14285785.33647 -11102323.62563
  23567361.3894    -733453.75645   -471018.11761
  22752873.459     8241046.873 5   6413357.27921
 91  4 29 22 30 44.9980000  0  5G 2G13G 6G15G19
  20228781.5684   -2340594.68848  -1781074.29264
  22501275.147    -5914657.658 5  -4193934.04821
  20526809.7404  -14311276.87547 -11122187.15963
  23563030.037     -756193.091 5   -488737.06721
  22759092.498     8273721.754 5   6438818.17521
 91  4 29 22 30 59.9980000  0  5G 2G13G 6G15G19
  20228485.5374   -2342150.51448  -1782286.62864
  22489339.0764   -5977392.44545  -4242818.22261
  20521970.6004  -14336711.43847 -11142006.29563
  23558726.162     -778818.055 5   -506366.88821
  22765319.443     8306456.877 5   6464326.01621
 91  4 29 22 31 14.9980000  0  5G 2G13G 6G15G19
  20228199.4434   -2343652.93648  -1783457.35164
  22477409.959    -6040069.776 5  -4291657.62021
  20517139.9984  -14362093.54347 -11161784.55763
  23554445.068     -801333.353 5   -523911.24721
  22771560.9124    8339247.51945   6489877.11461
 91  4 29 22 31 29.9980000  0  5G 2G13G 6G15G19
  20227925.3974   -2345097.23148  -1784582.77964
  22465495.529    -6102684.369 5  -4340448.13721
  20512319.9364  -14387418.23447 -11181518.07963
  23550180.6004    -823734.24645   -541366.47861
  22777810.8814    8372098.34045   6515475.09561
 91  4 29 22 31 44.9980000  0  5G 2G13G 6G15G19
  20227659.5764   -2346488.06848  -1785666.55464
  22453591.959    -6165240.440 5  -4389193.05321
  20507511.0684  -14412690.05547 -11201210.40263
  23545938.9284    -846024.83645   -558735.73861
  22784076.6934    8405004.62245   6541116.28961
 91  4 29 22 31 59.9980000  0  5G 2G13G 6G15G19
  20227404.2644   -2347825.29048  -1786708.54964
  22441698.248    -6227737.355 5  -4437891.87021
  20502711.7954  -14437908.35347 -11220861.01863
  23541716.4594    -868204.56345   -576018.63561
  22790350.5294    8437966.71945   6566800.98961
 91  4 29 22 32 14.9980000  0  5G 2G13G 6G15G19
  20227162.7014   -2349102.41748  -1787703.71764
  22429817.1624   -6290168.14245  -4486539.16761
  20497925.6314  -14463066.39647 -11240464.68463
  23537516.4124    -890266.35745   -593209.61461
  22796632.9824    8470991.29745   6592534.36861
 91  4 29 22 32 29.9980000  0  5G 2G13G 6G15G19
  20226928.9904   -2350325.25448  -1788656.58164
  22417950.9364   -6352538.24045  -4535139.15961
  20493146.6864  -14488169.83147 -11260025.79863
  23533341.897     -912216.154 5   -610313.33621
  22802925.084     8504072.260 5   6618311.66921
 91  4 29 22 32 44.9980000  0  5G 2G13G 6G15G19
  20226708.7404   -2351486.71648  -1789561.62264
  22406095.0764   -6414839.93045  -4583685.86861
  20488382.4364  -14513210.96147 -11279538.36863
  23529189.686     -934046.144 5   -627323.69121
  22809234.818     8537216.776 5   6644138.52121
 91  4 29 22 32 59.9980000  0  5G 2G13G 6G15G19
  20226498.4904   -2352594.06848  -1790424.49864
  22394250.115    -6477080.310 5  -4632184.78421
  20483628.0614  -14538196.91647 -11299007.92963
  23525055.834     -955763.340 5   -644246.16121
  22815551.506     8570417.497 5   6670009.16521
 91  4 29 22 33 14.9980000  0  5G 2G13G 6G15G19
  20226296.2254   -2353644.82048  -1791243.27064
  22382419.303    -6539256.263 5  -4680633.50621
  20478886.0224  -14563124.82147 -11318432.27063
  23520943.693     -977365.041 5   -661078.63221
  22821881.8264    8603677.03845   6695925.63161
 91  4 29 22 33 29.9980000  0  5G 2G13G 6G15G19
  20226109.1474   -2354639.69948  -1792018.50664
  22370600.678    -6601368.221 5  -4729032.37021
  20474152.1474  -14587995.52647 -11337812.03663
  23516852.014     -998851.768 5   -677821.51621
  22828216.8264    8636994.57945   6721887.29561
 91  4 29 22 33 44.9980000  0  5G 2G13G 6G15G19
  20225929.6074   -2355579.82348  -1792751.07564
  22358792.0764   -6663416.61745  -4777381.69561
  20469430.8424  -14612809.66947 -11357147.72963
  23512789.811    -1020224.531 5   -694475.59821
  22834571.857     8670368.988 5   6747893.27921
 91  4 29 22 33 59.9980000  0  5G 2G13G 6G15G19
  20225760.2404   -2356465.05148  -1793440.86364
  22346992.8814   -6725400.91045  -4825681.09161
  20464718.2324  -14637566.52247 -11376438.77763
  23508748.389    -1041482.545 5   -711040.25221
  22840932.154     8703800.505 5   6773943.76121
 91  4 29 22 34 14.9980000  0  5G 2G13G 6G15G19
  20225602.4904   -2357291.75048  -1794085.05064
  22335212.3264   -6787316.89245  -4873927.23561
  20460020.2794  -14662262.24547 -11395682.19563
  23504722.2724   -1062621.72045   -727512.30461
  22847307.4284    8737292.87945   6800041.66061
 91  4 29 22 34 29.9980000  0  5G 2G13G 6G15G19
  20225453.8344   -2358077.60848  -1794697.41064
  22323440.709    -6849181.861 6  -4922133.62921
  20455328.7564  -14686914.42947 -11414891.68163
  23500713.8654   -1083659.37045   -743905.25761
  22853689.686     8770828.263 5   6826173.08221
 91  4 29 22 34 44.9980000  0  5G 2G13G 6G15G19
  20225314.6394   -2358804.46348  -1795263.79664
  22311683.2174   -6910977.13046  -4970285.72561
  20450647.9514  -14711504.37647 -11434052.67664
  23496735.115    -1104577.067 5   -760204.74621
  22860082.326     8804424.849 5   6852352.18821
 91  4 29 22 34 59.9980000  0  5G 2G13G 6G15G19
  20225189.5684   -2359478.51548  -1795789.03764
  22299936.1704   -6972708.51346  -5018388.04061
  20445981.6864  -14736038.11947 -11453169.87064
  23492774.014    -1125380.821 5   -776415.43521
  22866481.654     8838076.625 5   6878574.30021
 91  4 29 22 35 14.9980000  0  5G 2G13G 6G15G19
  20225068.6394   -2360099.68648  -1796273.07364
  22288199.412    -7034375.507 6  -5066440.19121
  20441322.9044  -14760515.34947 -11472243.02964
  23488842.193    -1146070.109 5   -792536.94421
  22872899.662     8871783.365 5   6904839.24221
 91  4 29 22 35 29.9980000  0  5G 2G13G 6G15G19
  20224963.1394   -2360667.02348  -1796715.15964
  22276478.350    -7095976.821 6  -5114441.13621
  20436677.1004  -14784934.73947 -11491271.11964
  23484921.545    -1166643.677 5   -808568.27521
  22879326.123     8905546.140 5   6931147.85721
 91  4 29 22 35 44.9980000  0  5G 2G13G 6G15G19
  20224864.7954   -2361179.43548  -1797114.44664
  22264768.9204   -7157510.77146  -5162389.60861
  20432039.1704  -14809294.83847 -11510253.00964
  23481033.3344   -1187100.11545   -824508.32961
  22885758.3574    8939365.96645   6957500.93361
 91  4 29 22 35 59.9980000  0  5G 2G13G 6G15G19
  20224778.5374   -2361635.09548  -1797469.50964
  22253072.0924   -7218975.21446  -5210283.92461
  20427416.6864  -14833593.60747 -11529187.10664
  23477161.154    -1207437.381 5   -840355.53021
  22892207.8574    8973244.74845   6983899.94061
 91  4 29 22 36 14.9980000  0  5G 2G13G 6G15G19
  20224702.3574   -2362036.73448  -1797782.47964
  22241389.7644   -7280372.41246  -5258125.82361
  20422803.7174  -14857833.60447 -11548075.40964
  23473315.209    -1227657.887 5   -856111.75521
  22898664.1934    9007179.87245   7010342.83461
 91  4 29 22 36 29.9980000  0  5G 2G13G 6G15G19
  20224636.9824   -2362382.31648  -1798051.77164
  22229717.475    -7341699.775 6  -5305913.32421
  20418202.4284  -14882012.33747 -11566915.97164
  23469488.123    -1247759.355 5   -871775.22221
  22905137.662     9041173.101 5   7036831.01221
 91  4 29 22 36 44.9980000  0  5G 2G13G 6G15G19
  20224576.7094   -2362682.29248  -1798285.52464
  22218061.1934   -7402967.24746  -5353654.14761
  20413610.8264  -14906139.89347 -11585716.66464
  23465685.1474   -1267751.61245   -887353.57161
  22911610.1154    9075214.39145   7063356.63861
 91  4 29 22 36 59.9980000  0  5G 2G13G 6G15G19
  20224534.2954   -2362926.93348  -1798476.15664
  22206415.3184   -7464164.66946  -5401340.39761
  20409031.6234  -14930206.35247 -11604469.74464
  23461905.0224   -1287624.80345   -902839.14561
  22918098.8654    9109313.17545   7089927.07061
 91  4 29 22 37 14.9980000  0  5G 2G13G 6G15G19
  20224497.2324   -2363115.66548  -1798623.22464
  22194783.5144   -7525291.05746  -5448971.28761
  20404463.9284  -14954210.56547 -11623174.32264
  23458145.920    -1307378.171 5   -918231.37621
  22924597.287     9143469.998 5   7116542.72321
 91  4 29 22 37 29.9980000  0  5G 2G13G 6G15G19
  20224467.2794   -2363255.85448
  22183159.8734   -7586353.24046  -5496552.15161
  20399908.2404  -14978159.94147 -11641836.16664
  23454407.404    -1327018.581 5   -933535.56221
  22931111.381     9177677.518 5   7143197.87821
 91  4 29 22 37 44.9980000  0  5G 2G13G 6G15G19
  20224454.3504   -2363342.16048
  22171554.8034   -7647345.62546  -5544078.62461
  20395360.5684  -15002048.70747 -11660450.78564
  23450691.381    -1346540.230 5   -948747.21821
  22937630.920     9211941.198 5   7169896.80021
 91  4 29 22 37 59.9980000  0  5G 2G13G 6G15G19
  20224447.3974   -2363373.83648
  22159960.5924   -7708266.78646  -5591549.59161
  20390827.0064  -15025875.76847 -11679017.31964
  23447001.436    -1365942.260 5   -963865.65921
  22944160.022     9246261.659 5   7196639.95921
 91  4 29 22 38 14.9980000  0  5G 2G13G 6G15G19
  20224452.0064   -2363352.36048
  22148384.443    -7769117.786 6  -5638965.90821
  20386303.8424  -15049642.46847 -11697536.82164
  23443329.4364   -1385225.87045   -978891.84861
  22950700.131     9280637.456 5   7223426.23721
 91  4 29 22 38 29.9980000  0  5G 2G13G 6G15G19
  20224464.6234   -2363279.38048
  22136816.4044   -7829899.90346  -5686328.52261
  20381792.0144  -15073349.93347 -11716010.17064
  23439680.881    -1404392.083 5   -993826.54321
  22957253.225     9315067.185 5   7250254.53621
 91  4 29 22 38 44.9980000  0  5G 2G13G 6G15G19
  20224490.3424   -2363154.62048
  22125261.8264   -7890612.30446  -5733636.83161
  20377292.6474  -15096997.65147 -11734436.95464
  23436057.178    -1423440.558 5  -1008669.47921
  22963816.178     9349550.712 5   7277124.76721
 91  4 29 22 38 59.9980000  0  5G 2G13G 6G15G19
  20224524.2094   -2362977.10148
  22113721.9124   -7951253.74546  -5780889.84061
  20372803.9434  -15120584.54847 -11752816.35164
  23432454.826    -1442370.074 5  -1023419.73021
  22970390.350     9384089.135 5   7304037.77321
 91  4 29 22 39 14.9980000  0  5G 2G13G 6G15G19
  20224567.6864   -2362745.64548
  22102197.178    -8011822.497 6  -5828086.21421
  20368326.4824  -15144109.01647 -11771147.10664
  23428876.0844   -1461179.34245  -1038076.28561
  22976971.193     9418683.690 5   7330994.52021
 91  4 29 22 39 29.9980000  0  5G 2G13G 6G15G19
  20224617.9434   -2362465.30048  -1798116.49064
  22090686.1394   -8072323.14846  -5875229.52061
  20363861.5454  -15167575.59947 -11789432.75864
  23425318.553    -1479872.771 5  -1052642.61521
  22983564.037     9453329.367 5   7357991.10121
 91  4 29 22 39 44.9980000  0  5G 2G13G 6G15G19
  20224682.2174   -2362134.37448  -1797858.62864
  22079183.576    -8132753.545 6  -5922318.09121
  20359408.1154  -15190982.53647 -11807671.92464
  23421780.4754   -1498448.47645  -1067117.18361
  22990167.115     9488027.719 5   7385028.72121
 91  4 29 22 39 59.9980000  0  5G 2G13G 6G15G19
  20224755.6394   -2361752.59748  -1797561.14664
  22067697.7014   -8193113.09046  -5969351.45461
  20354963.5374  -15214329.12647 -11825864.06564
  23418269.967    -1516905.895 5  -1081499.55821
  22996782.107     9522779.197 5   7412107.74221
 91  4 29 22 40 14.9980000  0  5G 2G13G 6G15G19
  20224835.0454   -2361322.44948  -1797225.97464
  22056226.3814   -8253403.78946  -6016331.15761
  20350533.2014  -15237617.59847 -11844010.92364
  23414784.826    -1535247.462 5  -1095791.67221
  23003403.803     9557581.145 5   7439226.09521
 91  4 29 22 40 29.9980000  0  5G 2G13G 6G15G19
  20224929.2564   -2360844.60848  -1796853.63364
  22044764.9674   -8313625.75246  -6063257.30461
  20346113.0224  -15260848.38847 -11862112.83864
  23411313.4824   -1553473.61945  -1109993.86161
  23010033.662     9592432.780 5   7466383.15821
 91  4 29 22 40 44.9980000  0  5G 2G13G 6G15G19
  20225030.0764   -2360314.71548  -1796440.73664
  22033319.7644   -8373774.20546  -6110126.17861
  20341703.3504  -15284016.80447 -11880166.15064
  23407869.865    -1571579.197 5  -1124102.09321
  23016676.865     9627338.568 5   7493582.42821
 91  4 29 22 40 59.9980000  0  5G 2G13G 6G15G19
  20225138.4984   -2359737.36948  -1795990.85464
  22021888.857    -8433853.316 6  -6156941.00621
  20337305.7094  -15307126.94747 -11898174.04764
  23404445.990    -1589568.623 5  -1138119.80421
  23023329.5374    9662294.08245   7520820.43361
 91  4 29 22 41 14.9980000  0  5G 2G13G 6G15G19
  20225259.8894   -2359109.60348  -1795501.69064
  22010466.920    -8493859.700 6  -6203699.17121
  20332919.7794  -15330175.77947 -11916134.17564
  23401049.0764   -1607438.84845  -1152044.66161
  23029991.717     9697302.108 5   7548099.36021
 91  4 29 22 41 29.9980000  0  5G 2G13G 6G15G19
  20225386.4904   -2358430.75248  -1794972.71664
  21999064.201    -8553792.207 6  -6250399.77421
  20328545.7254  -15353162.28747 -11934045.73464
  23397664.5924   -1625188.86345  -1165875.82461
  23036660.850     9732363.366 5   7575419.77521
 91  4 29 22 41 44.9980000  0  5G 2G13G 6G15G19
  20225525.9594   -2357703.65948  -1794406.15564
  21987672.686    -8613653.417 6  -6297044.81121
  20324183.9514  -15376088.96647 -11951910.67364
  23394310.3654   -1642821.11545  -1179615.21761
  23043345.3894    9767474.77945   7602779.26361
 91  4 29 22 41 59.9980000  0  5G 2G13G 6G15G19
  20225673.2324   -2356925.49248  -1793799.79464
  21976294.389    -8673440.105 6  -6343631.79021
  20319831.9514  -15398952.99647 -11969726.79964
  23390976.615    -1660332.535 5  -1193260.46921
  23050033.279     9802639.182 5   7630180.04721
 91  4 29 22 42 14.9980000  0  5G 2G13G 6G15G19
  20225830.7644   -2356099.90948  -1793156.49164
  21964935.100    -8733155.403 6  -6390163.13421
  20315492.3424  -15421757.47447 -11987496.51664
  23387667.9284   -1677726.64545  -1206814.30961
  23056739.186     9837852.963 5   7657619.30021
 91  4 29 22 42 29.9980000  0  5G 2G13G 6G15G19
  20225998.0684   -2355223.62248  -1792473.67664
  21953583.264    -8792795.529 6  -6436635.91321
  20311166.1474  -15444498.93047 -12005217.12864
  23384382.2324   -1694999.84845  -1220273.94661
  23063446.967     9873119.380 5   7685099.57621
 91  4 29 22 42 44.9980000  0  5G 2G13G 6G15G19
  20226173.8184   -2354308.49448  -1791760.59164
  21942246.818    -8852371.629 6  -6483058.79321
  20306845.7874  -15467188.75147 -12022897.50964
  23381116.772    -1712163.647 5  -1233648.32521
  23070166.772     9908426.767 5   7712611.77921
 91  4 29 22 42 59.9980000  0  5G 2G13G 6G15G19
  20226356.7254   -2353340.20648  -1791006.08364
  21930924.2954   -8911869.21046  -6529420.48661
  20302542.7324  -15489812.24147 -12040526.19564
  23377874.1074   -1729203.37845  -1246926.01361
  23076896.162     9943789.356 5   7740166.98321
 91  4 29 22 43 14.9980000  0  5G 2G13G 6G15G19
  20226549.2174   -2352323.15248  -1790213.58064
  21919614.631    -8971292.442 6  -6575724.25321
  20298250.1394  -15512373.66447 -12058106.52564
  23374652.4984   -1746123.15445  -1260110.24361
  23083636.7094    9979202.70945   7767761.74661
 91  4 29 22 43 29.9980000  0  5G 2G13G 6G15G19
  20226752.6314   -2351262.65248  -1789387.21964
  21908322.5294   -9030645.76046  -6621973.53261
  20293966.7404  -15534877.96947 -12075642.34464
  23371458.3654   -1762927.87145  -1273204.81461
  23090381.467    10014661.439 5   7795391.85921
 91  4 29 22 43 44.9980000  0  5G 2G13G 6G15G19
  20226962.5294   -2350153.52248  -1788522.96464
  21897041.654    -9089923.768 6  -6668164.14621
  20289695.2484  -15557319.73747 -12093129.43364
  23368280.865    -1779612.331 5  -1286205.67521
  23097140.397    10050170.717 5   7823061.38221
 91  4 29 22 43 59.9980000  0  5G 2G13G 6G15G19
  20227181.5844   -2348997.67948  -1787622.31364
  21885775.826    -9149128.071 6  -6714297.31621
  20285436.2724  -15579700.64447 -12110569.09464
  23365127.8814   -1796178.45745  -1299114.34861
  23103906.9754   10085728.51245   7850768.72061
 91  4 29 22 44 14.9980000  0  5G 2G13G 6G15G19
  20227412.2874   -2347793.07648  -1786683.66564
  21874522.803    -9208256.081 6  -6760371.04021
  20281189.7324  -15602018.31747 -12127959.48964
  23361999.076    -1812623.611 5  -1311928.74221
  23110685.2404   10121336.85945   7878515.41961
 91  4 29 22 44 29.9980000  0  5G 2G13G 6G15G19
  20227650.1934   -2346538.76848  -1785706.28864
  21863284.8504   -9267306.37646  -6806384.20261
  20276954.8504  -15624271.42947 -12145299.57164
  23358891.9904   -1828946.44145  -1324647.82061
  23117470.6934   10156996.61945   7906302.17361
 91  4 29 22 44 44.9980000  0  5G 2G13G 6G15G19
  20227899.3734   -2345231.01948  -1784687.27164
  21852066.436    -9326275.040 6  -6852333.76821
  20272733.5844  -15646456.22847 -12162586.42464
  23355811.1154   -1845143.20445  -1337268.67261
  23124263.740    10192711.415 5   7934131.84021
 91  4 29 22 44 59.9980000  0  5G 2G13G 6G15G19
  20228158.3504   -2343874.13248  -1783629.95664
  21840858.0534   -9385165.62046  -6898222.47861
  20268524.7724  -15668576.31947 -12179822.85564
  23352752.4434   -1861218.01545  -1349794.46661
  23131068.5764   10228477.08045   7962001.12661
 91  4 29 22 45 14.9980000  0  5G 2G13G 6G15G19
  20228425.4204   -2342470.00448  -1782535.83364
  21829664.4364   -9443979.70246  -6944051.57361
  20264327.9824  -15690633.34147 -12197010.14164
  23349718.326    -1877172.327 5  -1362226.38921
  23137885.170    10264291.725 5   7989908.59621
 91  4 29 22 45 29.9980000  0  5G 2G13G 6G15G19
  20228702.1394   -2341018.67648  -1781404.93364
  21818488.0924   -9502716.90446  -6989820.77661
  20260141.5374  -15712627.26747 -12214148.25764
  23346703.982    -1893005.923 5  -1374564.24021
  23144712.5064   10300155.28745   8017854.16761
 91  4 29 22 45 44.9980000  0  5G 2G13G 6G15G19
  20228986.0144   -2339521.19648  -1780238.07164
  21807325.670    -9561377.870 6  -7035530.57221
  20255968.0534  -15734558.73747 -12231237.71564
  23343711.6004   -1908719.44745  -1386808.55361
  23151544.1784   10336066.57745   8045836.93861
 91  4 29 22 45 59.9980000  0  5G 2G13G 6G15G19
  20229280.6004   -2337972.37248  -1779031.19864
  21796177.686    -9619956.940 6  -7081176.55021
  20251807.3974  -15756422.17847 -12248274.15864
  23340744.0684   -1924307.38945  -1398954.98961
  23158386.3504   10372030.78345   8073860.93561
 91  4 29 22 46 14.9980000  0  5G 2G13G 6G15G19
  20229584.1474   -2336374.39348  -1777786.02464
  21785046.053    -9678455.855 6  -7126760.07221
  20247660.5374  -15778219.49247 -12265259.07364
  23337805.6784   -1939771.95345  -1411005.30461
  23165240.6074   10408045.75245   8101924.48361
 91  4 29 22 46 29.9980000  0  5G 2G13G 6G15G19
  20229898.2404   -2334728.12548  -1776503.22264
  21773930.365    -9736875.224 6  -7172281.60821
  20243525.2564  -15799951.16047 -12282192.83564
  23334882.303    -1955113.695 5  -1422959.88321
  23172102.0294   10444110.55745   8130026.86161
 91  4 29 22 46 44.9980000  0  5G 2G13G 6G15G19
  20230220.4594   -2333037.79648  -1775186.09264
  21762828.404    -9795218.783 6  -7217744.08621
  20239400.8734  -15821621.34347 -12299078.68764
  23331985.607    -1970336.571 5  -1434821.85421
  23178977.600    10480221.048 4   8158164.84521
 91  4 29 22 46 59.9980000  0  5G 2G13G 6G15G19
  20230551.4044   -2331300.19948  -1773832.12564
  21751739.178    -9853482.788 6  -7263144.55821
  20235288.6154  -15843226.39647 -12315913.78964
  23329113.1154   -1985437.12745  -1446588.50961
  23185855.0534   10516380.24744   8186340.78561
 91  4 29 22 47 14.9980000  0  5G 2G13G 6G15G19
  20230890.5064   -2329511.09248  -1772438.02264
  21740667.615    -9911662.588 6  -7308479.41721
  20231191.6864  -15864761.94447 -12332694.73264
  23326263.2724   -2000411.03245  -1458256.47861
  23192745.467    10552592.214 4   8214557.84121
 91  4 29 22 47 29.9980000  0  5G 2G13G 6G15G19
  20231241.9984   -2327663.37548  -1770998.24464
  21729615.225    -9969750.430 6  -7353742.61821
  20227108.2874  -15886220.35447 -12349415.56664
  23323442.0374   -2015250.58945  -1469819.78761
  23199648.0144   10588864.28545   8242821.73261
 91  4 29 22 47 44.9980000  0  5G 2G13G 6G15G19
  20231602.5224   -2325769.65748  -1769522.62664
  21718576.4434  -10027758.82646  -7398943.92861
  20223036.9674  -15907614.07747 -12366085.99564
  23320639.1864   -2029968.23945  -1481288.08261
  23206561.7874   10625183.79844   8271122.59061
 91  4 29 22 47 59.9980000  0  5G 2G13G 6G15G19
  20231970.7644   -2323829.01948  -1768010.44764
  21707553.772   -10085686.316 6  -7444082.17321
  20218979.7174  -15928941.76347 -12382704.96864
  23317863.256    -2044563.112 5  -1492660.69921
  23213484.9904   10661551.60244   8299461.08661
 91  4 29 22 48 14.9980000  0  5G 2G13G 6G15G19
  20232349.9824   -2321843.25148  -1766463.10264
  21696545.3264  -10143534.33046  -7489158.50161
  20214932.5224  -15950205.11947 -12399273.81064
  23315108.6074   -2059036.57245  -1503938.72061
  23220413.8814   10697965.84544   8327835.74961
 91  4 29 22 48 29.9980000  0  5G 2G13G 6G15G19
  20232736.9204   -2319808.44048  -1764877.54164
  21685554.2794  -10201298.53446  -7534169.53061
  20210897.2014  -15971399.76847 -12415789.11564
  23312377.5144   -2073384.43645  -1515118.86461
  23227351.2724   10734430.57544   8356249.77161
 91  4 29 22 48 44.9980000  0  5G 2G13G 6G15G19
  20233134.1784   -2317721.66348  -1763251.48964
  21674576.670   -10258975.764 6  -7579112.77721
  20206879.5924  -15992522.66447 -12432248.51364
  23309671.5374   -2087603.52545  -1526198.67661
  23234302.7484   10770948.39944   8384705.15061
 91  4 29 22 48 59.9980000  0  5G 2G13G 6G15G19
  20233540.7484   -2315586.01548  -1761587.35664
  21663616.357   -10316568.384 6  -7623990.09721
  20202873.3574  -16013576.37047 -12448653.98963
  23306992.490    -2101696.509 5  -1537180.22121
  23241260.5844   10807516.41344   8413199.64761
 91  4 29 22 49 14.9980000  0  5G 2G13G 6G15G19
  20233958.3814   -2313397.98748  -1759882.40564
  21652675.139   -10374072.458 6  -7668798.42621
  20198879.9514  -16034557.11347 -12465002.61464
  23304334.170    -2115659.912 5  -1548060.76121
  23248229.131    10844137.975 4   8441735.87221
 91  4 29 22 49 29.9980000  0  5G 2G13G 6G15G19
  20234383.0614   -2311162.56648  -1758140.52464
  21641749.607   -10431492.638 6  -7713541.37921
  20194901.1234  -16055469.87647 -12481298.27063
  23301701.506    -2129498.535 5  -1558844.09921
  23255208.0374   10880807.96344   8470309.82061
 91  4 29 22 49 44.9980000  0  5G 2G13G 6G15G19
  20234817.4904   -2308878.75748  -1756360.93964
  21630838.139   -10488827.661 6  -7758217.97721
  20190933.2874  -16076313.13947 -12497539.77064
  23299089.4984   -2143211.11945  -1569529.20861
  23262197.936    10917527.516 4   8498922.40421
 91  4 29 22 49 59.9980000  0  5G 2G13G 6G15G19
  20235260.9754   -2306544.21648  -1754541.82064
  21619944.537   -10546074.876 6  -7802826.14821
  20186982.5534  -16097084.28347 -12513725.07363
  23296501.1154   -2156795.10045  -1580114.13661
  23269191.303    10954298.717 4   8527575.21421
 91  4 29 22 50 14.9980000  0  5G 2G13G 6G15G19
  20235714.0764   -2304164.41148  -1752687.43264
  21609064.6624  -10603239.19846  -7847369.73561
  20183041.6314  -16117788.61247 -12529858.31463
  23293944.2564   -2170255.52145  -1590602.78261
  23276196.3114   10991116.03444   8556263.97661
 91  4 29 22 50 29.9980000  0  5G 2G13G 6G15G19
  20236175.2484   -2301735.88348  -1750795.07664
  21598204.436   -10660316.479 6  -7891845.49321
  20179114.8894  -16138422.12347 -12545936.37063
  23291409.1544   -2183588.59245  -1600992.17761
  23283213.8114   11027983.12544   8584991.50761
 91  4 29 22 50 44.9980000  0  5G 2G13G 6G15G19
  20236645.6314   -2299262.61248  -1748867.85764
  21587360.279   -10717310.505 6  -7936256.37121
  20175201.4434  -16158988.55447 -12561962.15863
  23288893.0684   -2196798.28045  -1611285.42661
  23290237.842    11064895.976 4   8613754.72021
 91  4 29 22 50 59.9980000  0  5G 2G13G 6G15G19
  20237126.4754   -2296740.41848  -1746902.51464
  21576530.881   -10774216.725 6  -7980598.83921
  20171302.8894  -16179483.38447 -12577932.15163
  23286402.9514   -2209880.12445  -1621479.06961
  23297273.4514   11101858.70244   8642556.78661
 91  4 29 22 51 14.9980000  0  5G 2G13G 6G15G19
  20237616.4124   -2294171.98248  -1744901.14064
  21565717.1704  -10831037.29646  -8024874.56261
  20167415.8344  -16199909.03547 -12593848.23863
  23283934.170    -2222836.735 5  -1631575.11721
  23304313.5844   11138868.42644   8671395.46361
 91  4 29 22 51 29.9980000  0  5G 2G13G 6G15G19
  20238113.2254   -2291558.16048  -1742864.40264
  21554920.311   -10887772.683 6  -8069083.91821
  20163541.8574  -16220266.03747 -12609710.83663
  23281495.881    -2235668.642 5  -1641574.01221
  23311366.3424   11175924.27544   8700270.09861
 91  4 29 22 51 44.9980000  0  5G 2G13G 6G15G19
  20238620.5454   -2288890.60848  -1740785.80164
  21544141.3894  -10944414.17046  -8113220.09761
  20159682.2404  -16240545.98647 -12625513.39063
  23279079.5684   -2248367.14445  -1651468.94961
  23318430.326    11213034.727 4   8729187.26321
 91  4 29 22 51 59.9980000  0  5G 2G13G 6G15G19
  20239138.2094   -2286169.51748  -1738665.47764
  21533381.6074  -11000961.19146  -8157282.67161
  20155837.9514  -16260748.46647 -12641255.57763
  23276690.178    -2260932.178 5  -1661259.86921
  23325498.865    11250199.606 4   8758146.83821
 91  4 29 22 52 14.9980000  0  5G 2G13G 6G15G19
  20239664.9514   -2283397.44648  -1736505.42964
  21522638.436   -11057416.321 6  -8201273.64121
  20152007.9514  -16280876.06847 -12656939.42063
  23274323.5844   -2273366.33845  -1670948.82761
  23332585.8974   11287415.92744   8787146.50861
 91  4 29 22 52 29.9980000  0  5G 2G13G 6G15G19
  20240204.8574   -2280560.25448  -1734294.63964
  21511916.100   -11113765.175 6  -8245181.78821
  20148194.2254  -16300914.31547 -12672553.64063
  23271983.1864   -2285655.07545  -1680524.45161
  23339678.4284   11324697.85144   8816197.29761
 91  4 29 22 52 44.9980000  0  5G 2G13G 6G15G19
  20240756.0064   -2277669.92348  -1732042.44064
  21501210.7644  -11170019.01046  -8289015.90761
  20144395.3734  -16320874.72047 -12688107.20463
  23269674.8974   -2297810.35745  -1689996.12261
  23346779.6004   11362033.43844   8845289.89061
 91  4 29 22 52 59.9980000  0  5G 2G13G 6G15G19
  20241315.2014   -2274726.33348  -1729748.74064
  21490524.154   -11226177.343 6  -8332775.60521
  20140612.7954  -16340756.82247 -12703599.74863
  23267382.5534   -2309831.95845  -1699363.58961
  23353892.9904   11399422.69244   8874424.31261
 91  4 29 22 53 14.9980000  0  5G 2G13G 6G15G19
  20241887.1864   -2271730.92548  -1727414.66664
  21479856.451   -11282241.126 6  -8376461.63121
  20136845.2794  -16360561.86447 -12719032.24963
  23265121.3734   -2321720.74245  -1708627.57161
  23361021.537    11436864.423 4   8903599.61121
 91  4 29 22 53 29.9980000  0  5G 2G13G 6G15G19
  20242466.1864   -2268685.66548  -1725041.74464
  21469205.8504  -11338211.75146  -8420075.06361
  20133091.6474  -16380291.32147 -12734405.85263
  23262878.490    -2333478.268 5  -1717789.26021
  23368155.670    11474356.504 4   8932814.14321
 91  4 29 22 53 44.9980000  0  5G 2G13G 6G15G19
  20243054.537    -2265586.439 8  -1722626.77924
  21458572.357   -11394085.300 6  -8463612.85321
  20129350.3504  -16399941.26147 -12749717.49463
  23260668.9204   -2345100.86045  -1726845.81961
  23375300.475    11511902.594 4   8962070.78121
 91  4 29 22 53 59.9980000  0  5G 2G13G 6G15G19
  20243654.8504   -2262436.79548  -1720172.51364
  21447957.8654  -11449864.75046  -8507077.31961
  20125625.0144  -16419514.57747 -12764969.42563
  23258485.9204   -2356591.54745  -1735799.61361
  23382454.4984   11549499.37244   8991366.91361
 91  4 29 22 54 14.9980000  0  5G 2G13G 6G15G19
  20244263.7254   -2259235.01848  -1717677.63164
  21437362.498   -11505548.076 6  -8550466.88221
  20121916.1934  -16439009.42547 -12780160.21463
  23256322.2404   -2367948.41745  -1744649.11861
  23389617.8344   11587148.60544   9020703.92561
 91  4 29 22 54 29.9980000  0  5G 2G13G 6G15G19
  20244882.2874   -2255983.54248  -1715144.02364
  21426784.2724  -11561136.90246  -8593782.80461
  20118220.6004  -16458427.66747 -12795291.31163
  23254188.0764   -2379173.50445  -1753395.95561
  23396793.7094   11624847.84044   9050079.89761
 91  4 29 22 54 44.9980000  0  5G 2G13G 6G15G19
  20245512.0614   -2252676.08048  -1712566.79064
  21416223.5614  -11616624.58946  -8637019.92861
  20114542.0064  -16477762.86747 -12810357.70163
  23252078.9124   -2390260.32145  -1762035.02661
  23403979.576    11662603.239 4   9079499.61421
 91  4 29 22 54 59.9980000  0  5G 2G13G 6G15G19
  20246152.3424   -2249313.48448  -1709946.59764
  21405685.1704  -11672011.59846  -8680178.60361
  20110877.5684  -16497015.62847 -12825359.85263
  23249992.701    -2401209.807 5  -1770567.07121
  23411171.9984   11700413.90444   9108962.40561
 91  4 29 22 55 14.9980000  0  5G 2G13G 6G15G19
  20246802.4904   -2245891.95848  -1707280.47964
  21395166.5224  -11727293.98746  -8723255.74161
  20107229.7174  -16516181.84847 -12840294.56363
  23247938.9434   -2412017.85145  -1778988.91861
  23418379.8034   11738283.57044   9138471.17361
 91  4 29 22 55 29.9980000  0  5G 2G13G 6G15G19
  20247463.9364   -2242417.96848  -1704573.48364
  21384663.3574  -11782477.96646  -8766256.21061
  20103598.2254  -16535267.87347 -12855166.79463
  23245905.6784   -2422690.82845  -1787305.52261
  23425596.7724   11776205.52545   9168020.66461
 91  4 29 22 55 44.9980000  0  5G 2G13G 6G15G19
  20248135.647    -2238888.236 8  -1701823.05524
  21374183.0614  -11837559.47346  -8809176.81761
  20099981.6004  -16554269.87147 -12869973.54663
  23243900.9284   -2433225.26645  -1795514.17461
  23432824.318    11814183.179 4   9197613.59521
 91  4 29 22 55 59.9980000  0  5G 2G13G 6G15G19
  20248817.5684   -2235305.56748  -1699031.37464
  21363719.584   -11892541.203 6  -8852019.68421
  20096381.3734  -16573190.60247 -12884716.97463
  23241925.350    -2443623.686 5  -1803616.84021
  23440058.7254   11852213.59844   9227247.61861
 91  4 29 22 56 14.9980000  0  5G 2G13G 6G15G19
  20249509.2644   -2231671.27648  -1696199.47264
  21353277.576   -11947423.867 6  -8894785.35721
  20092795.8264  -16592030.90347 -12899397.73063
  23239971.193    -2453887.231 5  -1811614.39021
  23447306.061    11890295.338 4   9256921.63521
 91  4 29 22 56 29.9980000  0  5G 2G13G 6G15G19
  20250208.9044   -2227992.12348  -1693332.60764
  21342849.7564  -12002213.94746  -8937478.89061
  20089225.3574  -16610797.20947 -12914020.82363
  23238041.0764   -2464022.21645  -1819511.78861
  23454557.6154   11928421.72444   9286630.42561
 91  4 29 22 56 44.9980000  0  5G 2G13G 6G15G19
  20250919.0454   -2224261.83148  -1690425.89664
  21332442.8184  -12056904.58446  -8980094.93561
  20085670.5374  -16629482.91647 -12928581.11663
  23236138.842    -2474022.267 5  -1827304.01221
  23461826.334    11966598.873 4   9316378.79821
 91  4 29 22 56 59.9980000  0  5G 2G13G 6G15G19
  20251639.0534   -2220478.59048  -1687477.92564
  21322053.6544  -12111493.67146  -9022631.85161
  20082130.6474  -16648085.99447 -12943077.02363
  23234263.7174   -2483885.60945  -1834989.73961
  23469103.8504   12004828.53044   9346168.08261
 91  4 29 22 57 14.9980000  0  5G 2G13G 6G15G19
  20252369.1624   -2216644.32848  -1684490.19464
  21311684.9514  -12165982.96946  -9065091.00361
  20078604.6004  -16666608.23547 -12957509.93863
  23232409.6004   -2493613.95345  -1842570.27261
  23476383.7484   12043108.73944   9375996.74361
 91  4 29 22 57 29.9980000  0  5G 2G13G 6G15G19
  20253108.0454   -2212760.14948  -1681463.57664
  21301334.5924  -12220373.12346  -9107472.90861
  20075095.8504  -16685050.33047 -12971880.39863
  23230583.8424   -2503208.18545  -1850046.29661
  23483677.232    12081438.221 4   9405863.81021
 91  4 29 22 57 44.9980000  0  5G 2G13G 6G15G19
  20253855.7564   -2208827.51748  -1678399.19164
  21291005.1154  -12274664.99146  -9149778.21861
  20071600.7644  -16703413.54247 -12986189.39463
  23228781.9044   -2512669.60945  -1857418.83261
  23490981.1074   12119815.49944   9435768.11161
 91  4 29 22 57 59.9980000  0  5G 2G13G 6G15G19
  20254613.0374   -2204848.97748  -1675299.03664
  21280689.9594  -12328860.87046  -9192008.73961
  20068121.2794  -16721700.08347 -13000438.64963
  23227009.1934   -2522000.71345  -1864689.82661
  23498296.6934   12158237.93344   9465707.60261
 91  4 29 22 58 14.9980000  0  5G 2G13G 6G15G19
  20255382.3184   -2200818.31148  -1672158.26464
  21270397.0224  -12382954.06246  -9234159.24461
  20064657.8654  -16739903.44047 -13014623.07963
  23225259.904    -2531194.928 5  -1871854.13221
  23505617.561    12196711.732 4   9495687.11921
 91  4 29 22 58 29.9980000  0  5G 2G13G 6G15G19
  20256156.7644   -2196738.24048  -1668978.99664
  21260121.4124  -12436947.01746  -9276231.63861
  20061209.2404  -16758025.90747 -13028744.48263
  23223535.3894   -2540254.75545  -1878913.73161
  23512944.2404   12235234.13344   9525704.50461
 91  4 29 22 58 44.9980000  0  5G 2G13G 6G15G19
  20256943.7954   -2192605.62448  -1665758.78164
  21249867.2794  -12490836.12346  -9318223.11561
  20057776.9754  -16776064.20747 -13042800.29863
  23221838.5924   -2549176.83345  -1885865.97461
  23520288.022    12273808.301 4   9555762.21921
 91  4 29 22 58 59.9980000  0  5G 2G13G 6G15G19
  20257739.4364   -2188423.88448  -1662500.29264
  21239632.9824  -12544624.56346  -9360136.15361
  20054360.6234  -16794021.41447 -13056792.92063
  23220162.943    -2557964.390 5  -1892713.41221
  23527635.154    12312430.735 4   9585857.56021
 91  4 29 22 59 14.9970000  0  5G 2G13G 6G15G19
  20258544.5484   -2184190.82348  -1659201.80964
  21229417.9154  -12598306.03946  -9401965.83761
  20050959.2354  -16811893.62347 -13070719.31163
  23218518.2744   -2566614.55045  -1899453.79961
  23534995.962    12351101.259 4   9615990.36321
 91  4 29 22 59 29.9970000  0  5G 2G13G 6G15G19
  20259360.9784   -2179906.34748  -1655863.26464
  21219219.821   -12651887.414 6  -9443717.51621
  20047573.2204  -16829683.29247 -13084581.38563
  23216898.298    -2575128.638 5  -1906088.13421
  23542361.118    12389824.418 4   9646164.20621
 91  4 29 22 59 44.9970000  0  5G 2G13G 6G15G19
  20260184.5174   -2175573.53548  -1652487.05664
  21209041.3374  -12705367.45046  -9485390.24161
  20044203.7514  -16847391.72447 -13098380.16363
  23215299.196    -2583508.492 5  -1912617.87621
  23549745.517    12428594.767 4   9676374.78821
 91  4 29 22 59 59.9970000  0  5G 2G13G 6G15G19
  20261019.4464   -2171187.45248  -1649069.33364
  21198888.8144  -12758741.10546  -9526980.07161
  20040850.4544  -16865013.88047 -13112111.71263
  23213736.1574   -2591749.20045  -1919039.20361
  23557127.337    12467417.048 4   9706625.86321
 91  4 29 23  0 14.9970000  0  5G 2G13G 6G15G19
  20261863.1034   -2166750.78248  -1645612.19664
  21188751.868   -12812010.761 6  -9568488.85421
  20037511.6894  -16882552.07847 -13125777.84063
  23212196.7284   -2599853.42545  -1925354.19061
  23564529.579    12506288.664 4   9736915.34821
 91  4 29 23  0 29.9970000  0  5G 2G13G 6G15G19
  20262718.2744   -2162263.92248  -1642115.94864
  21178633.8534  -12865176.17146  -9609916.41461
  20034191.0014  -16900006.41247 -13139378.61463
  23210680.376    -2607821.239 5  -1931562.85621
  23571936.0644   12545208.96943   9767242.80961
 91  4 29 23  0 44.9970000  0  5G 2G13G 6G15G19
  20263581.1814   -2157726.55248  -1638580.34264
  21168534.9784  -12918236.80246  -9651262.32061
  20030886.0644  -16917376.37247 -13152913.64663
  23209190.7744   -2615652.18945  -1937664.89761
  23579347.782    12584178.327 4   9797608.44521
 91  4 29 23  0 59.9970000  0  5G 2G13G 6G15G19
  20264454.7824   -2153131.40248  -1634999.71364
  21158460.5874  -12971185.23946  -9692520.81061
  20027598.6574  -16934654.35247 -13166377.00363
  23207724.6814   -2623338.85845  -1943654.50361
  23586778.103    12623203.901 4   9828017.90221
 91  4 29 23  1 14.9970000  0  5G 2G13G 6G15G19
  20265338.3844   -2148485.25548  -1631379.34764
  21148405.0484  -13024027.59446  -9733696.63861
  20024327.0404  -16951846.86647 -13179773.76263
  23206286.4464   -2630887.89845  -1949536.85161
  23594211.954    12662278.729 4   9858465.76821
 91  4 29 23  1 29.9970000  0  5G 2G13G 6G15G19
  20266232.3764   -2143795.33248  -1627724.86764
  21138365.7904  -13076770.93446  -9774795.31261
  20021070.2514  -16968960.88947 -13193109.36663
  23204874.931    -2638306.216 5  -1955317.35921
  23601659.493    12701395.653 3   9888946.43121
 91  4 29 23  1 44.9970000  0  5G 2G13G 6G15G19
  20267135.243    -2139053.661 8  -1624030.07224
  21128350.9704  -13129406.58846  -9815810.07561
  20017828.9624  -16985987.86247 -13206377.13863
  23203489.712    -2645585.559 5  -1960989.55621
  23609107.9234   12740562.65544   9919466.08561
 91  4 29 23  1 59.9970000  0  5G 2G13G 6G15G19
  20268045.4394   -2134265.69848  -1620299.19964
  21118355.7204  -13181939.66447  -9856744.90361
  20014605.2354  -17002933.18047 -13219581.27963
  23202131.1964   -2652731.34045  -1966557.67461
  23616570.564    12779774.165 4   9950020.43821
 91  4 29 23  2 14.9970000  0  5G 2G13G 6G15G19
  20268966.0714   -2129428.60948  -1616530.04664
  21108378.2124  -13234367.23047  -9897597.51761
  20011395.9154  -17019793.67547 -13232719.32363
  23200800.2044   -2659740.73545  -1972019.53761
  23624042.735    12819032.880 4   9980611.57121
 91  4 29 23  2 29.9970000  0  5G 2G13G 6G15G19
  20269895.4074   -2124541.66948  -1612722.04564
  21098422.2674  -13286688.08547  -9938366.98161
  20008204.1264  -17036568.43247 -13245790.56563
  23199487.3064   -2666612.89645  -1977374.44261
  23631520.8604   12858339.47344  10011240.02661
 91  4 29 23  2 44.9970000  0  4G 2G13G 6G15
  20270834.4234   -2119607.67348  -1608877.38264
  21088486.2514  -13338904.72646  -9979055.24061
  20005028.7434  -17053259.74547 -13258796.78363
  23198209.5014   -2673350.34345  -1982624.39161
 91  4 29 23  2 59.9970000  0  4G 2G13G 6G15
  20271783.9234   -2114621.99448  -1604992.44764
  21078568.8684  -13391012.18046 -10019658.41661
  20001869.1104  -17069863.03247 -13271734.40563
  23196949.595    -2679948.494 5  -1987765.79221
 91  4 29 23  3 14.9970000  0  4G 2G13G 6G15
  20272741.0174   -2109588.56748  -1601070.30664
  21068672.9074  -13443013.93146 -10060179.23161
  19998725.1034  -17086381.85747 -13284606.21563
  23195721.548    -2686411.015 5  -1992801.50021
 91  4 29 23  3 29.9970000  0  4G 2G13G 6G15
  20273709.3924   -2104497.04548  -1597102.89464
  21058800.7204  -13494899.41747 -10100609.44361
  19995600.2514  -17102805.47447 -13297403.83563
  23194520.462    -2692727.521 5  -1997723.43721
 91  4 29 23  3 44.9970000  0  4G 2G13G 6G15
  20274688.6184   -2099352.56548  -1593094.21664
  21048948.2824  -13546672.93447 -10140952.40361
  19992492.7514  -17119138.60347 -13310130.94963
  23193345.017    -2698902.636 5  -2002535.20221
 91  4 29 23  3 59.9970000  0  4G 2G13G 6G15
  20275676.6034   -2094159.31348  -1589047.53164
  21039117.1654  -13598338.70546 -10181211.41061
  19989399.4394  -17135385.35947 -13322790.75663
  23192197.0484   -2704940.52845  -2007240.04461
 91  4 29 23  4 14.9970000  0  4G 2G13G 6G15
  20276674.6654   -2088914.40348  -1584960.59764
  21029306.6654  -13649893.44747 -10221383.90761
  19986324.8684  -17151542.47047 -13335380.71363
  23191073.5954   -2710838.29245  -2011835.71261
 91  4 29 23  4 29.9970000  0  4G 2G13G 6G15
  20277683.4934   -2083615.40648  -1580831.51464
  21019516.9934  -13701334.38747 -10261467.72361
  19983268.9234  -17167607.33047 -13347898.78563
  23189976.2284   -2716593.41845  -2016320.21961
 91  4 29 23  4 44.9970000  0  4G 2G13G 6G15
  20278702.1894   -2078267.40448  -1576664.24764
  21009749.5644  -13752666.51047 -10301466.74561
  19980227.4314  -17183584.77747 -13360348.74363
  23188907.7674   -2722211.01545  -2020697.54861
 91  4 29 23  4 59.9970000  0  4G 2G13G 6G15
  20279725.5564   -2072880.75148  -1572466.86164
  20999998.6034  -13803899.64047 -10341388.63061
  19977203.9394  -17199484.98247 -13372738.51263
  23187863.8294   -2727701.30745  -2024975.69561
 91  4 29 23  5 14.9970000  0  4G 2G13G 6G15
  20280761.3214   -2067445.90148  -1568231.92064
  20990271.2824  -13855023.56947 -10381225.42561
  19974194.1654  -17215297.88447 -13385060.25263
  23186846.446    -2733054.126 5  -2029146.71321
 91  4 29 23  5 29.9970000  0  4G 2G13G 6G15
  20281804.8214   -2061960.75348  -1563957.78764
  20980563.7044  -13906035.95147 -10420975.30061
  19971201.4784  -17231020.95847 -13397311.99363
  23185854.915    -2738267.495 5  -2033209.05421
 91  4 29 23  5 44.9970000  0  4G 2G13G 6G15
  20282857.7514   -2056427.84548  -1559646.43964
  20970876.3144  -13956938.89846 -10460639.90561
  19968225.8144  -17246656.75047 -13409495.72663
  23184888.407    -2743343.833 5  -2037164.63021
 91  4 29 23  5 59.9970000  0  4G 2G13G 6G15
  20283919.4544   -2050844.23648  -1555295.58664
  20961212.8374  -14007729.35047 -10500216.84861
  19965268.0484  -17262201.94047 -13421608.86363
  23183948.0174   -2748280.14145  -2041011.07561
 91  4 29 23  6 14.9970000  0  4G 2G13G 6G15
  20284990.2824   -2045214.06048  -1550908.44364
  20951567.1104  -14058411.00346 -10539709.00661
  19962326.7124  -17277660.58647 -13433654.55663
  23183039.3764   -2753080.44945  -2044751.56061
 91  4 29 23  6 29.9970000  0  4G 2G13G 6G15
  20286072.6964   -2039533.95748  -1546482.39564
  20941945.0324  -14108980.22546 -10579113.56661
  19959400.8144  -17293029.01447 -13445629.95664
  23182145.9394   -2757741.41745  -2048383.47761
 91  4 29 23  6 44.9970000  0  4G 2G13G 6G15
  20287161.6574   -2033803.70748  -1542017.27164
  20932344.579   -14159436.447 7 -10618430.06921
  19956494.6104  -17308306.59147 -13457534.56364
  23181289.9624   -2762262.66545  -2051906.51261
 91  4 29 23  6 59.9970000  0  4G 2G13G 6G15
  20288260.8684   -2028031.38248  -1537519.36364
  20922761.6344  -14209787.38847 -10657664.52961
  19953602.2594  -17323501.18347 -13469374.50464
  23180450.6814   -2766652.03845  -2055326.78961
 91  4 29 23  7 14.9970000  0  4G 2G13G 6G15
  20289367.2904   -2022210.52648  -1532983.62864
  20913200.7514  -14260026.21747 -10696811.63961
  19950727.4234  -17338606.00647 -13481144.49463
  23179643.8764   -2770902.78245  -2058639.03661
 91  4 29 23  7 29.9970000  0  4G 2G13G 6G15
  20290485.9854   -2016338.36848  -1528407.92764
  20903662.9854  -14310150.03747 -10735869.13061
  19947872.3214  -17353617.98147 -13492842.13064
  23178864.345    -2775012.223 5  -2061841.18321
 91  4 29 23  7 44.9970000  0  4G 2G13G 6G15
  20291614.6734   -2010411.86148  -1523789.88164
  20894146.3534  -14360155.07247 -10774834.05861
  19945033.3374  -17368533.77747 -13504464.82664
  23178110.399    -2778977.138 5  -2064930.73221
 91  4 29 23  7 59.9970000  0  4G 2G13G 6G15
  20292751.0324   -2004440.86448  -1519137.16264
  20884650.8994  -14410051.31347 -10813714.22161
  19942212.4314  -17383363.14747 -13516020.16964
  23177376.860    -2782807.567 5  -2067915.46521
 91  4 29 23  8 14.9970000  0  4G 2G13G 6G15
  20293893.3454   -1998436.26648  -1514458.26564
  20875175.8064  -14459849.19847 -10852517.72461
  19939403.6344  -17398116.64847 -13527516.40064
  23176672.485    -2786513.976 5  -2070803.56721
 91  4 29 23  8 29.9970000  0  4G 2G13G 6G15
  20295043.2124   -1992385.73148  -1509743.56664
  20865721.1494  -14509535.90647 -10891234.60861
  19936612.8994  -17412781.63447 -13538943.65464
  23175992.751    -2790084.063 5  -2073585.43921
 91  4 29 23  8 44.9970000  0  4G 2G13G 6G15
  20296205.0324   -1986288.97648  -1504992.85064
  20856286.5244  -14559110.75447 -10929864.32961
  19933839.5564  -17427357.46747 -13550301.44563
  23175338.0644   -2793517.32945  -2076260.71161
 91  4 29 23  8 59.9970000  0  4G 2G13G 6G15
  20297373.8294   -1980146.62348  -1500206.61164
  20846875.6034  -14608574.08247 -10968407.14761
  19931082.2124  -17441844.55247 -13561590.08064
  23174711.751    -2796814.341 5  -2078829.79821
 91  4 29 23  9 14.9970000  0  4G 2G13G 6G15
  20298550.6104   -1973957.98048  -1495384.29964
  20837482.4934  -14657924.69447 -11006862.13661
  19928343.5404  -17456241.90247 -13572808.78864
  23174113.235    -2799974.246 5  -2081292.04521
 91  4 29 23  9 29.9970000  0  4G 2G13G 6G15
  20299737.4624   -1967725.79048  -1490528.05464
  20828112.1894  -14707164.85247 -11045231.05761
  19925620.1264  -17470551.91547 -13583959.44464
  23173535.509    -2802999.583 5  -2083649.44021
 91  4 29 23  9 44.9970000  0  4G 2G13G 6G15
  20300931.8604   -1961446.32048  -1485634.96964
  20818765.4544  -14756290.65747 -11083510.87161
  19922914.6654  -17484770.61147 -13595038.94664
  23172988.1184   -2805886.75445  -2085899.18461
 91  4 29 23  9 59.9970000  0  4G 2G13G 6G15
  20302135.0714   -1955117.74148  -1480703.61564
  20809438.2744  -14805300.25147 -11121700.12861
  19920226.6344  -17498896.09347 -13606045.81264
  23172463.665    -2808634.021 5  -2088039.89521
 91  4 29 23 10 14.9970000  0  4G 2G13G 6G15
  20303349.0324   -1948744.74448  -1475737.64964
  20800133.1654  -14854197.96047 -11159802.20861
  19917555.3144  -17512932.82647 -13616983.52364
  23171967.353    -2811245.704 5  -2090074.96821
 91  4 29 23 10 29.9970000  0  4G 2G13G 6G15
  20304569.7594   -1942332.11548  -1470740.80464
  20790850.4234  -14902988.29147 -11197820.61561
  19914898.7434  -17526885.18047 -13627855.48364
  23171495.399    -2813726.544 5  -2092008.10021
 91  4 29 23 10 44.9970000  0  4G 2G13G 6G15
  20305797.3534   -1935875.92148  -1465710.00864
  20781587.6734  -14951666.84047 -11235751.92061
  19912260.9934  -17540749.07147 -13638658.51664
  23171048.243    -2816072.592 5  -2093836.16521
 91  4 29 23 10 59.9970000  0  4G 2G13G 6G15
  20307035.9934   -1929372.11548  -1460642.11664
  20772345.4854  -15000229.25147 -11273592.72561
  19909641.9624  -17554520.03947 -13649389.13764
  23170627.259    -2818279.514 5  -2095555.83521
 91  4 29 23 11 14.9970000  0  4G 2G13G 6G15
  20308281.6264   -1922818.91748  -1455535.73764
  20763124.8534  -15048673.22747 -11311341.24961
  19907038.7824  -17568196.01447 -13660045.73864
  23170234.501    -2820345.662 5  -2097165.81221
 91  4 29 23 11 29.9970000  0  4G 2G13G 6G15
  20309537.5484   -1916219.68148  -1450393.48064
  20753929.5564  -15097001.84647 -11348999.88261
  19904454.9784  -17581780.09347 -13670630.73564
  23169868.642    -2822274.233 5  -2098668.57621
 91  4 29 23 11 44.9970000  0  4G 2G13G 6G15
  20310802.0014   -1909573.91648  -1445214.96664
  20744754.415   -15145214.330 7 -11386568.02021
  19901886.8534  -17595271.59747 -13681143.59663
  23169526.6424   -2824064.61945  -2100063.68361
 91  4 29 23 11 59.9970000  0  4G 2G13G 6G15
  20312076.7284   -1902882.51348  -1440000.89564
  20735601.2044  -15193311.14047 -11424046.02061
  19899338.0874  -17608671.07547 -13691584.74264
  23169211.7124   -2825717.59245  -2101351.70461
 91  4 29 23 12 14.9970000  0  4G 2G13G 6G15
  20313357.978    -1896141.592 8  -1434748.23924
  20726473.0564  -15241288.37747 -11461430.85261
  19896804.9624  -17621974.45247 -13701951.00964
  23168924.1104   -2827229.38645  -2102529.74061
 91  4 29 23 12 29.9970000  0  4G 2G13G 6G15
  20314649.3214   -1889356.99048  -1429461.53864
  20717365.3064  -15289151.61847 -11498726.85461
  19894290.7354  -17635187.43847 -13712246.84564
  23168663.2824   -2828605.94445  -2103602.37461
 91  4 29 23 12 44.9970000  0  4G 2G13G 6G15
  20315947.7904   -1882533.05048  -1424144.19064
  20708277.2984  -15336904.96047 -11535937.22061
  19891795.0874  -17648314.02047 -13722475.34764
  23168422.9544   -2829851.29845  -2104572.77261
 91  4 29 23 12 59.9970000  0  4G 2G13G 6G15
  20317255.3214   -1875663.79948  -1418791.53664
  20699213.5094  -15384541.62147 -11573056.66861
  19889314.3144  -17661347.89647 -13732631.61563
  23168214.1344   -2830959.23645  -2105436.08961
 91  4 29 23 13 14.9970000  0  4G 2G13G 6G15
  20318571.2674   -1868752.63748  -1413406.22364
  20690169.9074  -15432065.07347 -11610087.89361
  19886849.7984  -17674292.30047 -13742718.16864
  23168031.1654   -2831933.17245  -2106194.99361
 91  4 29 23 13 29.9970000  0  4G 2G13G 6G15
  20319893.2044   -1861798.22748  -1407987.21064
  20681148.2904  -15479473.81947 -11647029.74261
  19884404.0564  -17687145.58747 -13752733.71463
  23167871.923    -2832771.880 5  -2106848.51821
 91  4 29 23 13 44.9970000  0  4G 2G13G 6G15
  20321226.5014   -1854799.84648  -1402533.93064
  20672148.1424  -15526766.50247 -11683881.15361
  19881974.2434  -17699906.71147 -13762677.45164
  23167735.6964   -2833474.47045  -2107395.97961
 91  4 29 23 13 59.9970000  0  4G 2G13G 6G15
  20322567.4784   -1847751.45548  -1397041.68364
  20663171.7904  -15573936.69847 -11720637.12061
  19879565.1104  -17712569.56547 -13772544.60663
  23167629.939    -2834034.871 5  -2107832.64821
 91  4 29 23 14 14.9970000  0  4G 2G13G 6G15
  20323916.5244   -1840657.32748  -1391513.79864
  20654217.4234  -15620988.47747 -11757300.81361
  19877174.3764  -17725137.93747 -13782338.14264
  23167552.3764   -2834457.40045  -2108161.89461
 91  4 29 23 14 29.9970000  0  4G 2G13G 6G15
  20325277.3844   -1833511.42448  -1385945.57164
  20645288.024   -15667915.437 7 -11793867.24421
  19874801.7204  -17737605.71047 -13792053.29064
  23167495.5714   -2834735.77645  -2108378.80461
 91  4 29 23 14 44.9970000  0  4G 2G13G 6G15
  20326645.6184   -1826320.22148  -1380342.04364
  20636380.2514  -15714723.86047 -11830341.31061
  19872446.8924  -17749978.99547 -13801694.81063
  23167471.126    -2834876.126 5
 91  4 29 23 14 59.9970000  0  4G 2G13G 6G15
  20328021.7904   -1819084.47848  -1374703.81064
  20627494.6894  -15761414.25747 -11866723.41461
  19870110.6344  -17762258.28347 -13811263.08364
  23167470.681    -2834879.823 5
 91  4 29 23 15 14.9970000  0  4G 2G13G 6G15
  20329406.1574   -1811814.40448  -1369038.82764
  20618631.1734  -15807996.45247 -11903021.19761
  19867789.9784  -17774453.81347 -13820766.09964
  23167490.274    -2834756.781 5
 91  4 29 23 15 29.9970000  0  4G 2G13G 6G15
  20330797.6964   -1804501.18448  -1363340.22364
  20609789.5564  -15854461.47147 -11939227.66961
  19865485.9934  -17786556.19547 -13830196.52464
  23167541.103    -2834498.031 5
 91  4 29 23 15 44.9970000  0  4G 2G13G 6G15
  20332197.1494   -1797142.59648  -1357606.26064
  20600970.3684  -15900806.83447 -11975340.90861
  19863202.6344  -17798562.91447 -13839552.40964
  23167621.673    -2834101.168 5
 91  4 29 23 15 59.9970000  0  4G 2G13G 6G15
  20333607.2904   -1789740.84348  -1351838.67064
  20592171.9624  -15947034.18947 -12011362.19061
  19860934.5794  -17810476.18947 -13848835.48264
  23167716.9314   -2833568.54145  -2107469.25061
 91  4 29 23 16 14.9970000  0  4G 2G13G 6G15
  20335024.1734   -1782290.06548  -1346032.87364
  20583400.7284  -15993137.69547 -12047286.97261
  19858686.3064  -17822289.74947 -13858040.85464
  23167848.3924   -2832894.19845  -2106943.79961
 91  4 29 23 16 29.9970000  0  4G 2G13G 6G15
  20336450.6654   -1774794.42348  -1340192.11664
  20574649.1654  -16039121.04347 -12083118.11461
  19856456.2824  -17834007.42247 -13867171.51664
  23168001.9314   -2832082.35945  -2106311.18661
 91  4 29 23 16 44.9970000  0  4G 2G13G 6G15
  20337884.6894   -1767255.52348  -1334317.65764
  20565921.7044  -16084985.34147 -12118856.49961
  19854245.8294  -17845630.63547 -13876228.55863
  23168182.1264   -2831134.30045  -2105572.42961
 91  4 29 23 16 59.9970000  0  4G 2G13G 6G15
  20339328.6894   -1759674.59248  -1328410.45064
  20557216.6424  -16130731.54147 -12154502.85861
  19852049.7124  -17857160.29847 -13885212.71264
  23168385.9544   -2830051.20745  -2104728.45961
 91  4 29 23 17 14.9970000  0  4G 2G13G 6G15
  20340780.1344   -1752042.63148  -1322463.47564
  20548536.5484  -16176350.56747 -12190050.11961
  19849876.9784  -17868587.27747 -13894116.84464
  23168619.3844   -2828824.40545  -2103772.51561
 91  4 29 23 17 29.9970000  0  4G 2G13G 6G15
  20342241.9854   -1744361.37148  -1316478.07864
  20539879.9154  -16221844.15647 -12225499.63661
  19847721.3454  -17879913.05047 -13902942.11864
  23168883.5174   -2827455.29045  -2102705.66961
 91  4 29 23 17 44.9970000  0  4G 2G13G 6G15
  20343712.8684   -1736629.73148  -1310453.43264
  20531244.4784  -16267210.51647 -12260850.01761
  19845583.8064  -17891136.44447 -13911687.62863
  23169172.8924   -2825942.90145  -2101527.18261
 91  4 29 23 17 59.9970000  0  4G 2G13G 6G15
  20345194.6104   -1728844.55048  -1304387.06264
  20522638.3064  -16312446.48747 -12296098.79361
  19843470.1424  -17902253.86347 -13920350.55364
  23169488.4234   -2824284.14745  -2100234.63961
 91  4 29 23 18 14.9970000  0  4G 2G13G 6G15
  20346684.9854   -1721012.41048  -1298284.10464
  20514052.8454  -16357557.97647 -12331250.56961
  19841373.8454  -17913271.64847 -13928935.83963
  23169825.2744   -2822485.24645  -2098832.89861
 91  4 29 23 18 29.9970000  0  4G 2G13G 6G15
  20348184.3994   -1713135.77248  -1292146.47264
  20505491.6034  -16402547.19147 -12366307.07661
  19839295.2984  -17924191.93447 -13937445.14963
  23170193.9464   -2820548.97345  -2097324.08061
 91  4 29 23 18 44.9970000  0  4G 2G13G 6G15
  20349692.7044   -1705211.54448  -1285971.75764
  20496954.1344  -16447410.92347 -12401265.79261
  19837234.6264  -17935011.50047 -13945875.97763
  23170592.8374   -2818472.25745  -2095705.86561
 91  4 29 23 18 59.9970000  0  4G 2G13G 6G15
  20351207.8844   -1697243.55948  -1279762.95164
  20488440.782   -16492152.604 7 -12436129.41221
  19835195.6344  -17945733.87047 -13954231.07363
  23171013.173    -2816258.544 5  -2093980.88021
 91  4 29 23 19 14.9970000  0  4G 2G13G 6G15
  20352733.1184   -1689234.78448  -1273522.35464
  20479949.1494  -16536775.17047 -12470900.20861
  19833173.1814  -17956361.78747 -13962512.56664
  23171460.2434   -2813911.02345  -2092151.65161
 91  4 29 23 19 29.9970000  0  4G 2G13G 6G15
  20354264.7984   -1681182.24448  -1267247.65564
  20471481.3994  -16581275.23347 -12505575.55661
  19831168.9934  -17966891.99847 -13970717.92963
  23171933.1264   -2811426.58145  -2090215.71661
 91  4 29 23 19 44.9970000  0  4G 2G13G 6G15
  20355803.7354   -1673090.62448  -1260942.50464
  20463035.7284  -16625657.10747 -12540158.80761
  19829183.5954  -17977328.89847 -13978850.57963
  23172433.0484   -2808809.93445  -2088176.75961
 91  4 29 23 19 59.9970000  0  4G 2G13G 6G15
  20357352.7514   -1664955.11748  -1254603.15464
  20454612.0794  -16669915.71147 -12574646.00261
  19827216.4394  -17987667.66647 -13986906.76663
  23172952.7904   -2806056.17845  -2086030.98361
 91  4 29 23 20 14.9970000  0  4G 2G13G 6G15
  20358908.6894   -1656775.18548  -1248229.18664
  20446214.8374  -16714050.35747 -12609036.60761
  19825267.8144  -17997907.41047 -13994885.78863
  23173505.595    -2803164.888 5  -2083778.02721
 91  4 29 23 20 29.9970000  0  4G 2G13G 6G15
  20360473.634    -1648555.994 8  -1241824.63424
  20437838.8684  -16758066.02247 -12643334.49161
  19823337.7434  -18008053.16247 -14002791.56863
  23174083.1264   -2800141.37845  -2081422.01961
 91  4 29 23 20 44.9970000  0  4G 2G13G 6G15
  20362046.415    -1640290.399 8  -1235383.92524
  20429486.0324  -16801955.38147 -12677533.96661
  19821423.9544  -18018097.59747 -14010618.40563
  23174680.071    -2796978.222 5  -2078957.21921
 91  4 29 23 20 59.9970000  0  4G 2G13G 6G15
  20363627.2904   -1631981.70048  -1228909.62464
  20421160.9464  -16845721.20047 -12711637.17161
  19819532.4464  -18028043.57547 -14018368.51663
  23175310.501    -2793678.685 5  -2076386.13321
 91  4 29 23 21 14.9970000  0  4G 2G13G 6G15
  20365216.1104   -1623632.63148  -1222403.86164
  20412852.8994  -16889365.92747 -12745646.02062
  19817658.0714  -18037893.55447 -14026043.83063
  23175962.8604   -2790245.56245  -2073710.95661
 91  4 29 23 21 29.9970000  0  4G 2G13G 6G15
  20366813.4154   -1615242.04148  -1215865.74864
  20404572.0174  -16932888.31747 -12779559.54161
  19815803.0714  -18047646.23147 -14033643.31763
  23176645.5564   -2786677.62945  -2070930.75361
 91  4 29 23 21 44.9970000  0  4G 2G13G 6G15
  20368415.978    -1606814.043 8  -1209298.49024
  20396311.6034  -16976292.17147 -12813380.69262
  19813965.8994  -18057305.47747 -14041170.00563
  23177341.6264   -2782979.06345  -2068048.74661
 91  4 29 23 21 59.9970000  0  4G 2G13G 6G15
  20370028.9624   -1598341.56048  -1202696.56364
  20388076.2744  -17019570.26647 -12847103.85261
  19812144.1104  -18066863.98747 -14048618.19763
  23178075.9234   -2779142.81545  -2065059.45061
 91  4 29 23 22 14.9970000  0  4G 2G13G 6G15
  20371646.2824   -1589831.56948  -1196065.41364
  20379863.8844  -17062729.17447 -12880734.14561
  19810345.3994  -18076328.37147 -14055993.04263
  23178833.985    -2775175.832 5  -2061968.29121
 91  4 29 23 22 29.9970000  0  4G 2G13G 6G15
  20373275.2044   -1581278.60748  -1189400.77364
  20371673.4544  -17105763.27247 -12914267.17761
  19808563.6734  -18085693.29147 -14063290.38563
  23179614.1734   -2771072.86345  -2058771.17161
 91  4 29 23 22 44.9970000  0  4G 2G13G 6G15
  20374909.6104   -1572692.08448  -1182709.98364
  20363505.8684  -17148681.56547 -12947709.97861
  19806797.7514  -18094967.66647 -14070517.17463
  23180418.345    -2766842.961 5  -2055475.12621
 91  4 29 23 22 59.9970000  0  4G 2G13G 6G15
  20376552.251    -1564060.441 8  -1175984.04224
  20355363.4784  -17191472.30347 -12981053.38061
  19805052.5484  -18104139.62847 -14077664.15863
  23181243.1574   -2762474.76245  -2052071.32861
 91  4 29 23 23 14.9970000  0  4G 2G13G 6G15
  20378204.282    -1555383.791 8  -1169223.02224
  20347246.2824  -17234135.32447 -13014297.26261
  19803325.9704  -18113209.08747 -14084731.27163
  23182103.868    -2757968.155 5  -2048559.68021
 91  4 29 23 23 29.9970000  0  4G 2G13G 6G15
  20379862.2284   -1546663.80948  -1162428.24864
  20339151.3534  -17276672.13447 -13047442.80162
  19801619.4154  -18122177.60447 -14091719.72363
  23182989.978    -2753325.052 5  -2044941.67021
 91  4 29 23 23 44.9970000  0  4G 2G13G 6G15
  20381530.3064   -1537902.68548  -1155601.39764
  20331080.1814  -17319084.67547 -13080491.50661
  19799931.4624  -18131047.14047 -14098631.05263
  23183896.5564   -2748547.49645  -2041218.90961
 91  4 29 23 23 59.9970000  0  4G 2G13G 6G15
  20383204.7984   -1529098.64048  -1148741.10964
  20323033.0794  -17361370.86247 -13113441.75361
  19798264.5174  -18139815.67247 -14105463.67563
  23184836.8064   -2743633.89145  -2037390.11161
 91  4 29 23 24 14.9970000  0  4G 2G13G 6G15
  20384887.7514   -1520255.51048  -1141850.36464
  20315008.8064  -17403534.06047 -13146296.16562
  19796614.5324  -18148486.81247 -14112220.40963
  23185791.3454   -2738588.17545  -2033458.38461
 91  4 29 23 24 29.9970000  0  4G 2G13G 6G15
  20386578.5954   -1511373.09948  -1134929.02064
  20307010.5484  -17445574.03047 -13179054.55761
  19794980.2124  -18157060.06047 -14118900.86763
  23186779.7044   -2733409.87745  -2029423.33761
 91  4 29 23 24 44.9970000  0  4G 2G13G 6G15
  20388276.9784   -1502450.54448  -1127976.38964
  20299033.1574  -17487489.58147 -13211715.99861
  19793370.3064  -18165534.23047 -14125504.11563
  23187788.2354   -2728098.10245  -2025284.28861
 91  4 29 23 24 59.9970000  0  4G 2G13G 6G15
  20389982.5644   -1493486.66648  -1120991.55664
  20291080.985   -17529279.490 7 -13244279.53321
  19791776.9464  -18173908.19447 -14132029.28563
  23188822.6494   -2722652.20345  -2021040.72861
 91  4 29 23 25 14.9970000  0  4G 2G13G 6G15
  20391697.3214   -1484479.53348  -1113973.02264
  20283153.9854  -17570941.45047 -13276743.37261
  19790201.1574  -18182179.64647 -14138474.57363
  23189888.587    -2717069.886 5  -2016690.86521
 91  4 29 23 25 29.9970000  0  4G 2G13G 6G15
  20393417.8994   -1475429.37448  -1106920.96064
  20275249.2824  -17612475.61347 -13309107.62361
  19788646.2514  -18190348.68347 -14144840.05563
  23190980.610    -2711351.571 5  -2012235.03921
 91  4 29 23 25 44.9970000  0  4G 2G13G 6G15
  20395148.6964   -1466339.21248  -1099837.72564
  20267370.720   -17653884.866 7 -13341374.55121
  19787111.7674  -18198417.98347 -14151127.82263
  23192090.9314   -2705500.21945  -2007675.54161
 91  4 29 23 25 59.9970000  0  4G 2G13G 6G15
  20396884.8844   -1457208.02948  -1092722.52364
  20259513.5874  -17695167.87847 -13373543.09961
  19785595.2904  -18206386.51447 -14157337.07163
  23193230.6654   -2699514.80845  -2003011.58461
 91  4 29 23 26 14.9970000  0  4G 2G13G 6G15
  20398631.3144   -1448036.87048  -1085576.17264
  20251681.4074  -17736325.24147 -13405613.74461
  19784098.2124  -18214254.97647 -14163468.33963
  23194394.751    -2693396.477 5  -1998244.04121
 91  4 29 23 26 29.9970000  0  4G 2G13G 6G15
  20400382.8214   -1438829.64748  -1078401.72564
  20243873.8534  -17777360.74447 -13437589.43562
  19782619.5874  -18222026.99547 -14169524.46263
  23195583.571    -2687149.109 5  -1993375.96821
 91  4 29 23 26 44.9970000  0  4G 2G13G 6G15
  20402144.2904   -1429577.86348  -1071192.54764
  20236088.4314  -17818265.61947 -13469463.33761
  19781160.5874  -18229693.98047 -14175498.73663
  23196799.5714   -2680764.15445  -1988400.68661
 91  4 29 23 26 59.9970000  0  4G 2G13G 6G15
  20403911.9394   -1420287.49448  -1063953.30664
  20228328.2284  -17859046.02247 -13501240.24562
  19779721.1034  -18237261.71747 -14181395.67363
  23198037.2674   -2674247.90345  -1983323.09561
 91  4 29 23 27 14.9970000  0  4G 2G13G 6G15
  20405687.853    -1410960.800 8  -1056685.76624
  20220591.2284  -17899703.57247 -13532921.42762
  19778297.6494  -18244732.13247 -14187216.77363
  23199298.7514   -2667602.39945  -1978144.78461
 91  4 29 23 27 29.9970000  0  4G 2G13G 6G15
  20407468.1494   -1401595.70448  -1049388.30064
  20212878.5174  -17940235.99847 -13564505.10962
  19776896.0714  -18252102.95047 -14192960.27063
  23200590.9154   -2660825.74045  -1972864.27361
 91  4 29 23 27 44.9970000  0  4G 2G13G 6G15
  20409260.4624   -1392184.52248  -1042054.91964
  20205190.4624  -17980635.44947 -13595985.16761
  19775512.8994  -18259366.35247 -14198620.06463
  23201906.6964   -2653910.05345  -1967475.43461
 91  4 29 23 27 59.9970000  0  4G 2G13G 6G15
  20411057.2674   -1382731.36548  -1034688.83264
  20197527.040   -18020905.638 7 -13627364.52021
  19774151.3764  -18266526.22447 -14204199.18663
  23203248.548    -2646859.781 5  -1961981.72621
 91  4 29 23 28 14.9970000  0  4G 2G13G 6G15
  20412864.4234   -1373239.73448  -1027292.76164
  20189888.439   -18061049.893 7 -13658645.73022
  19772807.4934  -18273585.59147 -14209699.98963
  23204616.9544   -2639678.37245  -1956385.82161
 91  4 29 23 28 29.9970000  0  4G 2G13G 6G15
  20414678.360    -1363706.049 8  -1019863.93124
  20182273.165   -18101064.406 7 -13689825.84721
  19771484.5874  -18280540.88847 -14215119.70863
  23206008.7984   -2632362.11345  -1950684.84961
 91  4 29 23 28 44.9970000  0  4G 2G13G 6G15
  20416502.3374   -1354130.27748  -1012402.30164
  20174683.9314  -18140949.22947 -13720904.90462
  19770181.2044  -18287391.91347 -14220458.17163
  23207425.9544   -2624911.46645  -1944879.15361
 91  4 29 23 28 59.9970000  0  4G 2G13G 6G15
  20418331.1184   -1344508.73848  -1004905.00564
  20167120.7744  -18180700.13747 -13751879.61162
  19768898.7434  -18294134.61847 -14225712.22863
  23208874.2904   -2617322.50745  -1938965.68261
 91  4 29 23 29 14.9970000  0  4G 2G13G 6G15
  20420171.7904   -1334844.58748   -997374.49864
  20159580.439   -18220320.148 7 -13782752.32222
  19767633.3684  -18300772.08747 -14230884.28363
  23210340.8144   -2609598.46645  -1932946.95461
 91  4 29 23 29 29.9970000  0  4G 2G13G 6G15
  20422017.6494   -1325140.76748   -989813.08664
  20152066.196   -18259811.964 7 -13813525.14322
  19766391.5644  -18307307.10147 -14235976.50763
  23211832.3534   -2601742.34745  -1926825.31061
 91  4 29 23 29 44.9970000  0  4G 2G13G 6G15
  20423871.1574   -1315404.23348   -982226.18164
  20144573.853   -18299182.574 7 -13844203.51122
  19765165.8604  -18313746.35447 -14240994.10663
  23213349.5564   -2593761.31745  -1920606.33161
 91  4 29 23 29 59.9970000  0  4G 2G13G 6G15
  20425731.1734   -1305624.74048   -974605.80064
  20137107.282   -18338421.270 7 -13874779.09822
  19763960.6264  -18320079.33847 -14245928.90263
  23214895.4544   -2585644.86245  -1914281.82261
 91  4 29 23 30 14.9970000  0  4G 2G13G 6G15
  20427600.7514   -1295803.47748   -966952.87164
  20129664.5484  -18377529.11847 -13905252.71962
  19762775.2594  -18326306.99247 -14250781.62063
  23216465.3534   -2577394.30445  -1907852.82161
 91  4 29 23 30 29.9970000  0  4G 2G13G 6G15
  20429477.4704   -1285938.97548   -959266.25464
  20122245.868   -18416504.476 7 -13935623.10322
  19761611.5094  -18332427.81747 -14255551.09163
  23218060.8534   -2569008.36545  -1901318.32261
 91  4 29 23 30 44.9970000  0  4G 2G13G 6G15
  20431362.8604   -1276032.59148   -951547.00464
  20114856.915   -18455348.668 7 -13965891.28522
  19760466.0644  -18338442.93147 -14260238.19963
  23219679.7354   -2560488.29145  -1894679.32961
 91  4 29 23 30 59.9970000  0  4G 2G13G 6G15
  20433257.3064   -1266079.67248   -943791.48564
  20107489.6424  -18494056.62547 -13996053.30362
  19759342.1574  -18344347.33347 -14264839.02863
  23221329.0794   -2551829.59245  -1887932.30361
 91  4 29 23 31 14.9970000  0  4G 2G13G 6G15
  20435158.2204   -1256083.06348   -936001.92664
  20100148.571   -18532630.796 7 -14026111.07722
  19758239.9154  -18350143.76947 -14269355.73663
  23223008.5954   -2543035.11745  -1881079.46361
 91  4 29 23 31 29.9970000  0  4G 2G13G 6G15
  20437067.8994   -1246044.02248   -928179.30264
  20092833.853   -18571072.332 7 -14056065.50122
  19757157.3534  -18355833.19547 -14273789.05863
  23224707.743    -2534106.161 5  -1874121.85521
 91  4 29 23 31 44.9970000  0  4G 2G13G 6G15
  20438988.0954   -1235956.65548   -920319.02064
  20085546.626   -18609375.254 7 -14085911.91022
  19756096.6184  -18361409.56247 -14278134.28163
  23226428.298    -2525037.132 5  -1867055.08821
 91  4 29 23 31 59.9970000  0  4G 2G13G 6G15
  20440916.1104   -1225825.45248   -912424.58064
  20078281.548   -18647543.935 7 -14115653.71022
  19755055.7744  -18366877.33747 -14282394.88663
  23228183.3454   -2515832.46345  -1859882.61861
 91  4 29 23 32 14.9970000  0  4G 2G13G 6G15
  20442852.5404   -1215649.21248   -904495.05064
  20071045.056   -18685576.744 7 -14145289.64722
  19754036.0094  -18372234.92847 -14286569.63263
  23229960.0244   -2506490.96245  -1852603.54561
 91  4 29 23 32 29.9970000  0  4G 2G13G 6G15
  20444799.1734   -1205424.56048   -896527.79764
  20063833.954   -18723470.156 7 -14174816.95722
  19753037.2904  -18377478.72447 -14290655.70863
  23231763.5174   -2497009.15245  -1845215.12561
 91  4 29 23 32 44.9970000  0  4G 2G13G 6G15
  20446754.6424   -1195152.55448   -888523.64664
  20056648.884   -18761225.149 7 -14204236.41122
  19752061.6734  -18382609.66447 -14294653.84563
  23233588.4624   -2487388.57945  -1837718.58261
 91  4 29 23 32 59.9970000  0  4G 2G13G 6G15
  20448715.2904   -1184831.34348   -880481.14764
  20049491.353   -18798839.711 7 -14233546.44222
  19751105.8994  -18387625.76347 -14298562.49463
  23235456.056    -2477627.309 5  -1830112.38721
 91  4 29 23 33 14.9970000  0  4G 2G13G 6G15
  20450690.6344   -1174461.02148   -872400.38464
  20042360.595   -18836313.533 7 -14262746.79522
  19750173.8604  -18392526.85747 -14302381.53063
  23237338.9464   -2467725.36645  -1822396.60061
 91  4 29 23 33 29.9970000  0  4G 2G13G 6G15
  20452672.9704   -1164045.25748   -864284.21364
  20035256.274   -18873650.548 7 -14291840.55522
  19749263.6574  -18397316.59347 -14306113.79763
  23239244.6344   -2457686.73645  -1814574.29961
 91  4 29 23 33 44.9970000  0  4G 2G13G 6G15
  20454664.0324   -1153582.31348   -856131.27964
  20028177.110   -18910848.638 7 -14320826.05722
  19748373.0954  -18401992.94847 -14309757.71363
  23241181.2284   -2447509.55845  -1806644.02061
 91  4 29 23 33 59.9970000  0  4G 2G13G 6G15
  20456664.0874   -1143071.78848   -847941.27064
  20021123.946   -18947907.142 7 -14349702.79322
  19747505.9704  -18406555.28947 -14313312.78463
  23243148.259    -2437193.547 5  -1798605.58621
 91  4 29 23 34 14.9970000  0  4G 2G13G 6G15
  20458672.1654   -1132515.43048
  20014099.962   -18984827.624 7 -14378471.97922
  19746657.9784  -18411005.12247 -14316780.19263
  23245139.9544   -2426740.66445
 91  4 29 23 34 29.9970000  0  4G 2G13G 6G15
  20460690.1964   -1121912.68548
  20007098.845   -19021609.371 7 -14407133.06122
  19745833.3764  -18415341.74447 -14320159.37963
  23247153.8534   -2416150.41045
 91  4 29 23 34 44.9970000  0  3G 2G13G 6
  20462718.2204   -1111257.98548   -823151.30564
  20000128.696   -19058246.668 7 -14435681.58822
  19745031.1104  -18419559.26947 -14323445.76863
 91  4 29 23 34 59.9970000  0  3G 2G13G 6
  20464756.2204   -1100549.37148   -814806.93564
  19993184.243   -19094737.364 7 -14464115.87322
  19744250.3214  -18423655.76447 -14326637.84763
 91  4 29 23 35 14.9970000  0  3G 2G13G 6
  20466803.5564   -1089789.80748   -806422.86463
  19986267.556   -19131084.293 7 -14492438.13522
  19743495.4784  -18427634.03247 -14329737.80163
 91  4 29 23 35 29.9970000  0  3G 2G13G 6
  20468860.8994   -1078976.26748   -797996.73363
  19979380.103   -19167284.132 7 -14520645.78222
  19742760.3844  -18431490.81047 -14332743.08763
 91  4 29 23 35 44.9970000  0  3G 2G13G 6
  20470929.6494   -1068106.35548   -789526.68263
  19972517.595   -19203334.379 7 -14548736.86322
  19742049.8374  -18435223.54047 -14335651.71063
 91  4 29 23 35 59.9970000  0  3G 2G13G 6
  20473008.3684   -1057185.56548   -781016.98863
  19965685.384   -19239240.381 7 -14576715.54422
  19741361.7824  -18438837.38447 -14338467.69263
 91  4 29 23 36 14.9970000  0  3G 2G13G 6
  20475095.6104   -1046211.74448   -772465.96763
  19958881.399   -19274999.838 7 -14604580.03722
  19740697.8844  -18442330.12947 -14341189.31563
 91  4 29 23 36 29.9970000  0  3G 2G13G 6
  20477194.2904   -1035187.25048   -763875.45963
  19952102.579   -19310614.794 7 -14632331.93222
  19740056.0244  -18445703.91847 -14343818.24563
 91  4 29 23 36 44.9970000  0  3G 2G13G 6
  20479302.5014   -1024107.10748   -755241.59264
  19945354.681   -19346080.321 7 -14659967.38822
  19739436.6654  -18448953.64647 -14346350.50563
 91  4 29 23 36 59.9970000  0  3G 2G13G 6
  20481420.3684   -1012981.28048   -746572.12563
  19938632.603   -19381406.133 7 -14687493.97722
  19738839.9934  -18452089.10947 -14348793.72363
 91  4 29 23 37 14.9970000  0  3G 2G13G 6
  20483544.8374   -1001811.20648   -737868.18163
  19931936.689   -19416593.540 7 -14714912.71622
  19738264.8374  -18455111.44847 -14351148.79863
 91  4 29 23 37 29.9970000  0  3G 2G13G 6
  20485679.3764    -990595.35848   -729128.56463
  19925267.595   -19451640.781 7 -14742222.23922
  19737711.7824  -18458018.92747 -14353414.37663
 91  4 29 23 37 44.9970000  0  3G 2G13G 6
  20487822.1574    -979339.06348   -720357.43263
  19918623.501   -19486552.946 7 -14769426.50422
  19737179.5564  -18460816.81647 -14355594.55063
 91  4 29 23 37 59.9970000  0  3G 2G13G 6
  20489969.931     -968049.809 8   -711560.62223
  19912005.196   -19521337.300 7 -14796531.17722
  19736666.0874  -18463512.34247 -14357694.96563
 91  4 29 23 38 14.9970000  0  3G 2G13G 6
  20492126.2124    -956715.44948   -702728.66263
  19905410.806   -19555981.570 7 -14823526.69722
  19736175.3924  -18466093.25747 -14359706.06663
 91  4 29 23 38 29.9970000  0  3G 2G13G 6
  20494291.7434    -945334.86748   -693860.68963
  19898845.556   -19590484.717 7 -14850412.24822
  19735706.1344  -18468558.44947 -14361627.00263
 91  4 29 23 38 44.9970000  0  3G 2G13G 6
  20496465.3684    -933916.19848   -684963.03463
  19892305.415   -19624854.622 7 -14877193.97822
  19735258.5324  -18470915.71347 -14363463.83263
 91  4 29 23 38 59.9970000  0  3G 2G13G 6
  20498645.9854    -922460.16448   -676036.25863
  19885791.696   -19659091.827 7 -14903872.30022
  19734829.5324  -18473165.66347 -14365217.04363
 91  4 29 23 39 14.9970000  0  3G 2G13G 6
  20500834.0794    -910962.52948   -667077.07263
  19879302.282   -19693192.134 7 -14930443.95322
  19734421.8924  -18475303.92247 -14366883.22463
 91  4 29 23 39 29.9970000  0  3G 2G13G 6
  20503029.7434    -899425.35548   -658087.07963
  19872838.220   -19727157.437 7 -14956910.40722
  19734036.9394  -18477332.29747 -14368463.78263
 91  4 29 23 39 44.9970000  0  3G 2G13G 6
  20505230.6104    -887851.63848   -649068.60863
  19866399.103   -19760990.388 7 -14983273.72822
  19733670.2434  -18479253.49647 -14369960.82563
 91  4 29 23 39 59.9970000  0  3G 2G13G 6
  20507439.8144    -876242.82448   -640022.78663
  19859987.353   -19794692.328 7 -15009534.96422
  19733325.0324  -18481068.89947 -14371375.42863
 91  4 29 23 40 14.9970000  0  3G 2G13G 6
  20509656.610     -864590.818 8   -630943.31323
  19853599.860   -19828255.164 7 -15035687.80922
  19733001.2824  -18482770.33147 -14372701.22363
 91  4 29 23 40 29.9970000  0  3G 2G13G 6
  20511883.415     -852893.724 8   -621828.70923
  19847239.040   -19861676.938 7 -15061730.73322
  19732700.4934  -18484355.77247 -14373936.63863
 91  4 29 23 40 44.9970000  0  3G 2G13G 6
  20514116.103     -841156.957 8   -612683.19123
  19840906.720   -19894962.763 7 -15087667.72522
  19732420.0874  -18485830.43847 -14375085.73463
 91  4 29 23 40 59.9970000  0  3G 2G13G 6
  20516358.064     -829378.592 8   -603505.26124
  19834597.751   -19928110.494 7 -15113497.11022
  19732160.1964  -18487191.99247 -14376146.69163
 91  4 29 23 41 14.9970000  0  3G 2G13G 6
  20518609.024     -817556.476 8   -594293.23423
  19828316.876   -19961117.993 7 -15139217.22522
  19731923.0244  -18488438.45747 -14377117.96863
 91  4 29 23 41 29.9970000  0  3G 2G13G 6
  20520865.595     -805693.560 8   -585049.42023
  19822062.235   -19993988.106 7 -15164830.28422
  19731707.2044  -18489572.44547 -14378001.59663
 91  4 29 23 41 44.9970000  0  3G 2G13G 6
  20523131.806     -793784.186 8   -575769.40123
  19815834.267   -20026714.738 7 -15190331.54222
  19731513.2744  -18490588.16447 -14378793.06663
 91  4 29 23 41 59.9970000  0  3G 2G13G 6
  20525404.790     -781837.074 8   -566459.97823
  19809632.868   -20059306.690 7 -15215727.84722
  19731341.1494  -18491494.25247 -14379499.11563
 91  4 29 23 42 14.9970000  0  3G 2G13G 6
  20527686.743     -769848.566 8   -557118.29423
  19803456.907   -20091760.117 7 -15241016.22022
  19731191.4704  -18492286.86047 -14380116.73163
 91  4 29 23 42 29.9970000  0  3G 2G13G 6
  20529976.5174    -757820.07348   -547745.45963
  19797307.376   -20124076.506 7 -15266197.80822
  19731062.8994  -18492967.12847 -14380646.81563
 91  4 29 23 42 44.9970000  0  3G 2G13G 6
  20532272.134     -745749.930 8   -538340.16723
  19791183.814   -20156254.036 7 -15291271.19422
  19730955.0404  -18493533.48547 -14381088.13963
 91  4 29 23 42 59.9970000  0  3G 2G13G 6
  20534578.235     -733639.710 8   -528903.65023
  19785087.274   -20188294.173 7 -15316237.51922
  19730866.7744  -18493987.15247 -14381441.64763
 91  4 29 23 43 14.9970000  0  3G 2G13G 6
  20536888.8294    -721490.53348   -519436.77263
  19779016.314   -20220197.771 7 -15341097.45022
  19730804.2824  -18494329.21147 -14381708.19063
 91  4 29 23 43 29.9970000  0  3G 2G13G 6
  20539209.189     -709300.704 8   -509938.21423
  19772971.2434  -20251963.17247 -15365849.69962
  19730758.1734  -18494557.84647 -14381886.35463
 91  4 29 23 43 44.9970000  0  3G 2G13G 6
  20541535.548     -697067.170 8   -500405.60424
  19766952.743   -20283587.355 7 -15390491.90222
  19730738.735   -18494669.799 7
 91  4 29 23 43 59.9970000  0  3G 2G13G 6
  20543870.673     -684794.840 8   -490842.76323
  19760961.8064  -20315074.98747 -15415027.70862
  19730738.439   -18494670.022 7
 91  4 29 23 44 14.9970000  0  3G 2G13G 6
  20546214.720     -672486.702 8   -481252.01923
  19754994.751   -20346428.561 7 -15439459.04922
  19730757.407   -18494561.086 7
 91  4 29 23 44 29.9970000  0  3G 2G13G 6
  20548562.751     -660138.388 8   -471629.97723
  19749055.548   -20377643.961 7 -15463782.72122
  19730802.3454  -18494338.57647
 91  4 29 23 44 44.9970000  0  3G 2G13G 6
  20550920.939     -647753.172 8   -461979.17223
  19743141.228   -20408724.428 7 -15488001.25422
  19730861.8844  -18494005.77347
 91  4 29 23 44 59.9970000  0  3G 2G13G 6
  20553285.079     -635329.873 8   -452298.69323
  19737252.517   -20439668.594 7 -15512113.57222
  19730950.8374  -18493561.19447 -14381109.79863
 91  4 29 23 45 14.9970000  0  3G 2G13G 6
  20555655.759     -622868.024 8   -442588.17423
  19731388.470   -20470475.962 7 -15536119.30022
  19731055.4704  -18493004.15147 -14380675.74163
 91  4 29 23 45 29.9970000  0  3G 2G13G 6
  20558036.696     -610363.460 8   -432844.37623
  19725553.306   -20501141.888 7 -15560014.81622
  19731182.3534  -18492330.40547 -14380150.75363
 91  4 29 23 45 44.9970000  0  3G 2G13G 6
  20560424.5794    -597814.11048   -423065.67263
  19719745.478   -20531664.441 7 -15583798.60422
  19731333.0484  -18491537.86247 -14379533.19563
 91  4 29 23 45 59.9970000  0  3G 2G13G 6
  20562819.181     -585225.012 8   -413256.00323
  19713963.3144  -20562048.52147 -15607474.49862
  19731506.1654  -18490631.19547 -14378826.70763
 91  4 29 23 46 14.9970000  0  3G 2G13G 6
  20565222.517     -572599.931 8   -403418.30123
  19708206.689   -20592297.814 7 -15631045.36022
  19731698.5794  -18489614.21247 -14378034.25763
 91  4 29 23 46 29.9970000  0  3G 2G13G 6
  20567631.478     -559932.941 8   -393547.93323
  19702478.103   -20622406.291 7 -15654506.50022
  19731914.8994  -18488480.75147 -14377151.04663
 91  4 29 23 46 44.9970000  0  3G 2G13G 6
  20570052.149     -547218.967 8   -383640.95623
  19696776.142   -20652368.863 7 -15677853.93922
  19732153.7744  -18487225.69447 -14376173.09663
 91  4 29 23 46 59.9970000  0  3G 2G13G 6
  20572480.032     -534463.750 8   -373701.84423
  19691100.7594  -20682191.04447 -15701091.99162
  19732413.907   -18485854.583 7 -14375104.71023
 91  4 29 23 47 14.9970000  0  3G 2G13G 6
  20574914.626     -521663.667 8   -363727.76523
  19685454.806   -20711869.014 7 -15724217.66722
  19732698.548   -18484363.674 7 -14373942.97623
 91  4 29 23 47 29.9970000  0  3G 2G13G 6
  20577359.446     -508820.016 8   -353719.74123
  19679832.399   -20741404.330 7 -15747232.17822
  19733003.9784  -18482754.20147 -14372688.85363
 91  4 29 23 47 44.9970000  0  3G 2G13G 6
  20579811.189     -495932.123 8   -343677.24323
  19674240.181   -20770796.109 7 -15770134.85222
  19733332.3924  -18481025.36647 -14371341.71763
 91  4 29 23 47 59.9970000  0  3G 2G13G 6
  20582272.517     -482998.000 8   -333598.72123
  19668675.282   -20800042.352 7 -15792924.11722
  19733686.7824  -18479175.08747 -14369899.93963
 91  4 29 23 48 14.9970000  0  3G 2G13G 6
  20584741.8994    -470019.79448   -323485.84863
  19663134.985   -20829144.858 7 -15815601.37922
  19734061.2514  -18477205.30547 -14368365.05763
 91  4 29 23 48 29.9970000  0  3G 2G13G 6
  20587219.728     -456997.150 8   -313338.34023
  19657626.407   -20858103.350 7 -15838166.42522
  19734458.571   -18475115.519 7 -14366736.66523
 91  4 29 23 48 44.9970000  0  3G 2G13G 6
  20589706.235     -443933.929 8   -303159.22623
  19652142.423   -20886921.403 7 -15860622.03622
  19734878.899   -18472909.417 7 -14365017.63923
 91  4 29 23 48 59.9970000  0  3G 2G13G 6
  20592200.6104    -430825.45447   -292944.84163
  19646685.8994  -20915594.47047 -15882964.67562
  19735321.485   -18470582.282 7 -14363204.30223
 91  4 29 23 49 14.9970000  0  3G 2G13G 6
  20594703.610     -417666.360 7   -282691.01723
  19641258.649   -20944117.157 7 -15905190.13422
  19735787.6654  -18468128.60747 -14361292.36063
 91  4 29 23 49 29.9970000  0  3G 2G13G 6
  20597217.134     -404464.855 8   -272404.14823
  19635856.915   -20972497.675 7 -15927304.80722
  19736277.9934  -18465556.61447 -14359288.22063
 91  4 29 23 49 44.9970000  0  3G 2G13G 6
  20599737.853     -391218.953 8   -262082.68523
  19630484.6424  -21000734.05347 -15949307.17062
  19736789.9464  -18462864.06647 -14357190.13263
 91  4 29 23 49 59.9970000  0  3G 2G13G 6
  20602267.282     -377926.232 8   -251724.74023
  19625138.196   -21028823.598 7 -15971195.11322
  19737326.454   -18460048.355 7 -14354996.08423
 91  4 29 23 50 14.9970000  0  3G 2G13G 6
  20604805.845     -364588.685 8   -241331.86023
  19619821.6264  -21056768.12447 -15992970.06062
  19737883.9854  -18457111.49947 -14352707.63063
 91  4 29 23 50 29.9970000  0  3G 2G13G 6
  20607352.7674    -351200.61948   -230899.60863
  19614532.985   -21084561.932 7 -16014627.55722
  19738468.3844  -18454047.58447 -14350320.17863
 91  4 29 23 50 44.9970000  0  3G 2G13G 6
  20609908.571     -337772.755 8   -220436.35223
  19609269.931   -21112215.730 7 -16036175.95922
  19739073.3604  -18450867.39647 -14347842.11763
 91  4 29 23 50 59.9970000  0  3G 2G13G 6
  20612470.7674    -324303.37648   -209940.74163
  19604035.274   -21139727.747 7 -16057613.88322
  19739699.3604  -18447569.04947 -14345271.98763
 91  4 29 23 51 14.9970000  0  3G 2G13G 6
  20615043.751     -310785.773 8   -199407.55723
  19598827.5174  -21167091.33247 -16078936.14462
  19740352.5954  -18444145.70847 -14342604.46063
 91  4 29 23 51 29.9970000  0  3G 2G13G 6
  20617623.7044    -297229.49048   -188844.23663
  19593647.0324  -21194315.94947 -16100150.12162
  19741024.8924  -18440606.83947 -14339846.91363
 91  4 29 23 51 44.9970000  0  3G 2G13G 6
  20620211.454     -283626.241 8   -178244.31223
  19588494.7434  -21221393.25147 -16121249.30962
  19741723.9544  -18436943.86347 -14336992.65063
 91  4 29 23 51 59.9970000  0  3G 2G13G 6
  20622808.603     -269984.375 8   -167614.30623
  19583368.454   -21248331.340 7 -16142240.01822
  19742439.9154  -18433165.18147 -14334048.22563
 91  4 29 23 52 14.9970000  0  3G 2G13G 6
  20625410.860     -256306.241 8   -156956.03323
  19578268.267   -21275132.631 7 -16163124.13122
  19743182.3994  -18429272.91747 -14331015.29863
 91  4 29 23 52 29.9970000  0  3G 2G13G 6
  20628020.290     -242589.938 8   -146268.02023
  19573194.0174  -21301795.15647 -16183900.11662
  19743946.0324  -18425265.21547 -14327892.41863
 91  4 29 23 52 44.9970000  0  3G 2G13G 6
  20630638.845     -228833.405 8   -135548.65823
  19568147.6184  -21328316.80247 -16204566.32362
  19744729.4464  -18421139.86047 -14324677.86463
 91  4 29 23 52 59.9970000  0  3G 2G13G 6
  20633265.642     -215035.506 8   -124797.06523
  19563125.798   -21354696.448 7 -16225121.87422
  19745537.2904  -18416895.63447 -14321370.68563
 91  4 29 23 53 14.9970000  0  3G 2G13G 6
  20635897.845     -201197.369 8   -114014.11323
  19558134.3994  -21380935.19347 -16245567.64162
  19746367.8144  -18412533.57347 -14317971.68963
 91  4 29 23 53 29.9970000  0  3G 2G13G 6
  20638539.634     -187321.571 8   -103201.81823
  19553166.962   -21407035.375 7 -16265905.43622
  19747220.0484  -18408056.14247 -14314482.79063
 91  4 29 23 53 44.9970000  0  3G 2G13G 6
  20641186.267     -173405.201 8    -92357.91423
  19548227.4154  -21432994.08747 -16286132.98762
  19748094.6894  -18403460.28847 -14310901.61163
 91  4 29 23 53 59.9970000  0  3G 2G13G 6
  20643841.712     -159448.146 8    -81482.30123
  19543315.4854  -21458811.13147 -16306250.15462
  19748992.1184  -18398745.77247 -14307227.97263
 91  4 29 23 54 14.9970000  0  3G 2G13G 6
  20646506.071     -145449.952 8    -70574.63323
  19538428.524   -21484486.213 7 -16326256.69922
  19749911.6654  -18393912.10447 -14303461.48663
 91  4 29 23 54 29.9970000  0  3G 2G13G 6
  20649178.962     -131410.911 8    -59635.13523
  19533569.228   -21510019.468 7 -16346152.73122
  19750853.7434  -18388959.51447 -14299602.33263
 91  4 29 23 54 44.9970000  0  3G 2G13G 6
  20651859.329     -117325.156 7    -48659.24523
  19528740.689   -21535404.906 7 -16365933.58022
  19751818.548   -18383882.012 7 -14295645.84523
 91  4 29 23 54 59.9970000  0  3G 2G13G 6
  20654546.7904    -103194.66147    -37648.47963
  19523936.868   -21560644.626 7 -16385600.88422
  19752809.1964  -18378681.37847 -14291593.41063
 91  4 29 23 55 14.9970000  0  3G 2G13G 6
  20657243.126      -89022.906 7    -26605.56823
  19519162.1424  -21585742.16747 -16405157.39862
  19753822.8534  -18373360.92747 -14287447.60763
 91  4 29 23 55 29.9970000  0  3G 2G13G 6
  20659950.634      -74804.599 7    -15526.38923
  19514412.1654  -21610692.15347 -16424598.93862
  19754858.2674  -18367915.63647 -14283204.52763
 91  4 29 23 55 44.9970000  0  3G 2G13G 6
  20662663.790      -60545.446 7     -4415.37623
  19509693.1814  -21635499.97847 -16443929.69862
  19755916.0244  -18362350.79147 -14278868.28463
 91  4 29 23 55 59.9970000  0  3G 2G13G 6
  20665382.6894     -46252.70447      6721.81363
  19504997.173   -21660173.067 7 -16463155.46922
  19756998.0484  -18356673.74947 -14274444.62463
 91  4 29 23 56 14.9970000  0  3G 2G13G 6
  20668111.431      -31918.137 7     17891.59223
  19500329.6424  -21684703.17747 -16482269.83462
  19758099.7674  -18350876.20847 -14269927.07563
 91  4 29 23 56 29.9970000  0  3G 2G13G 6
  20670847.220      -17537.446 7     29097.30123
  19495688.829   -21709086.013 7 -16501269.43522
  19759228.673   -18344953.668 7 -14265312.12723
 91  4 29 23 56 44.9970000  0  3G 2G13G 6
  20673592.087       -3115.485 7     40335.17523
  19491076.0174  -21733326.41447 -16520158.04862
  19760376.720   -18338911.058 7 -14260603.61323
 91  4 29 23 56 59.9970000  0  3G 2G13G 6
  20676342.228       11340.590 7     51599.63123
  19486489.196   -21757431.544 7 -16538941.25622
  19761549.728   -18332755.385 7 -14255807.01023
 91  4 29 23 57 14.9970000  0  3G 2G13G 6
  20679101.564       25838.242 7     62896.48623
  19481929.774   -21781394.043 7 -16557613.32322
  19762744.118   -18326479.323 7 -14250916.59523
 91  4 29 23 57 29.9970000  0  3G 2G13G 6
  20681867.860       40372.840 7     74222.13223
  19477397.267   -21805218.291 7 -16576177.65722
  19763957.579   -18320087.102 7 -14245935.66223
 91  4 29 23 57 44.9970000  0  3G 2G13G 6
  20684641.274       54953.267 7     85583.49023
  19472889.9154  -21828895.40647 -16594627.34962
  19765200.634   -18313569.785 7 -14240857.24523
 91  4 29 23 57 59.9970000  0  3G 2G13G 6
  20687424.743       69578.783 7     96979.97723
  19468412.478   -21852426.314 7 -16612963.10922
  19766465.7594  -18306928.00847 -14235681.84363
 91  4 29 23 58 14.9970000  0  3G 2G13G 6
  20690216.579       84250.053 7    108412.11023
  19463962.595   -21875810.306 7 -16631184.39222
  19767752.3374  -18300161.23747 -14230409.04263
 91  4 29 23 58 29.9970000  0  3G 2G13G 6
  20693016.290       98968.803 7    119881.25323
  19459540.6424  -21899045.53347 -16649289.75562
  19769064.6494  -18293267.59147 -14225037.38363
 91  4 29 23 58 44.9970000  0  3G 2G13G 6
  20695827.009      113736.141 7    131388.25123
  19455146.853   -21922130.920 7 -16667278.35322
  19770400.2284  -18286245.77047 -14219565.84563
 91  4 29 23 58 59.9970000  0  3G 2G13G 6
  20698646.556      128550.776 7    142932.10423
  19450783.2824  -21945067.76047 -16685151.20662
  19771761.3764  -18279097.04447 -14213995.41763
 91  4 29 23 59 14.9970000  0  3G 2G13G 6
  20701474.814      143410.520 7    154511.10723
  19446446.6424  -21967858.07447 -16702909.88062
  19773146.0714  -18271823.69647 -14208327.87463
 91  4 29 23 59 29.9970000  0  3G 2G13G 6
  20704312.509      158320.015 7    166128.87623
  19442138.4624  -21990497.44647 -16720550.94162
  19774554.485   -18264420.863 7 -14202559.45023
 91  4 29 23 59 44.9970000  0  3G 2G13G 6
  20707157.2284     173273.70547    177781.09363
  19437859.1264  -22012991.31047 -16738078.61862
  19775985.204   -18256894.148 7 -14196694.49223
 91  4 29 23 59 59.9970000  0  3G 2G13G 6
  20710014.189      188274.705 7    189470.17223
  19433602.009   -22035336.327 7 -16755490.31122
  19777443.587   -18249240.237 7 -14190730.42122
 91  4 30  0  0 14.9970000  0  3G 2G13G 6
  20712874.212      203320.728 7    201194.32723
  19429381.2044  -22057535.08947 -16772788.03562
  19778922.9624  -18241461.46047 -14184669.05063
 91  4 30  0  0 29.9970000  0  3G 2G13G 6
  20715747.7124     218417.25847    212957.84763
  19425186.829   -22079582.222 7 -16789967.60822
  19780428.5644  -18233552.15147 -14178505.96263
 91  4 30  0  0 44.9970000  0  3G 2G13G 6
  20718631.321      233556.962 7    224754.99223
  19421016.7984  -22101484.97047 -16807034.67862
  19781954.6424  -18225519.65747 -14172246.88663
 91  4 30  0  0 59.9970000  0  3G 2G13G 6
  20721517.845      248741.934 7    236587.41923
  19416877.1654  -22123241.15647 -16823987.54162
  19783509.5564  -18217361.95947 -14165890.24663
 91  4 30  0  1 14.9970000  0  3G 2G13G 6
  20724418.446      263970.853 7    248454.09423
  19412765.571   -22144852.204 7 -16840827.30522
  19785083.071   -18209080.196 7 -14159436.94123
 91  4 30  0  1 29.9970000  0  3G 2G13G 6
  20727320.423      279239.642 7    260351.83723
  19408680.6184  -22166321.98847 -16857557.00062
  19786684.743   -18200678.392 7 -14152890.09923
 91  4 30  0  1 44.9970000  0  3G 2G13G 6
  20730237.9544     294552.37347    272283.82963
  19404622.3454  -22187646.55147 -16874173.52862
  19788303.267   -18192152.298 7 -14146246.40723
 91  4 30  0  1 59.9970000  0  3G 2G13G 6
  20733158.5564     309910.08947    284250.86763
  19400591.4624  -22208825.12747 -16890676.31162
  19789951.720   -18183500.969 7 -14139505.13123
 91  4 30  0  2 14.9970000  0  3G 2G13G 6
  20736088.6184     325306.80747    296248.29863
  19396589.298   -22229863.443 7 -16907069.78922
  19791620.962   -18174730.284 7 -14132670.85223
 91  4 30  0  2 29.9970000  0  3G 2G13G 6
  20739026.9394     340743.29047    308276.72063
  19392612.392   -22250760.855 7 -16923353.47722
  19793310.4464  -18165839.35847 -14125742.86663
 91  4 30  0  2 44.9970000  0  3G 2G13G 6
  20741974.0954     356224.22847    320339.78163
  19388663.274   -22271512.687 7 -16939523.72422
  19795026.962   -18156823.496 7 -14118717.52923
 91  4 30  0  2 59.9970000  0  3G 2G13G 6
  20744927.1734     371745.90547    332434.58063
  19384739.9934  -22292122.53147 -16955583.33062
  19796765.329   -18147686.340 7 -14111597.68223
 91  4 30  0  3 14.9970000  0  3G 2G13G 6
  20747887.064      387311.253 7    344563.40923
  19380846.1344  -22312587.56447 -16971530.10162
  19798530.814   -18138424.960 7 -14104381.03823
 91  4 30  0  3 29.9970000  0  3G 2G13G 6
  20750858.173      402916.144 7    356723.05123
  19376978.5874  -22332912.01647 -16987367.32562
  19800315.392   -18129043.540 7 -14097070.85723
 91  4 30  0  3 44.9970000  0  3G 2G13G 6
  20753833.907      418560.953 7    368913.79723
  19373137.392   -22353095.444 7 -17003094.66022
  19802122.571   -18119541.510 7 -14089666.69623
 91  4 30  0  3 59.9970000  0  3G 2G13G 6
  20756819.071      434245.807 7    381135.74023
  19369324.0014  -22373137.88547 -17018712.13462
  19803955.399   -18109918.813 7 -14082168.50623
 91  4 30  0  4 14.9970000  0  3G 2G13G 6
  20759812.540      449971.665 7    393389.63723
  19365537.3214  -22393038.27447 -17034218.91862
  19805807.274   -18100174.429 7 -14074575.49923
 91  4 30  0  4 29.9970000  0  3G 2G13G 6
  20762815.399      465744.307 7    405679.99223
  19361778.9314  -22412791.01647 -17049610.65962
  19807685.235   -18090302.451 7 -14066883.06723
 91  4 30  0  4 44.9970000  0  3G 2G13G 6
  20765822.2824     481560.54347    418004.32363
  19358048.189   -22432399.055 7 -17064889.63722
  19809588.4854  -18080306.05447 -14059093.67863
 91  4 30  0  4 59.9970000  0  3G 2G13G 6
  20768839.814      497414.394 7    430357.96223
  19354343.2904  -22451868.69747 -17080060.77762
  19811515.181   -18070191.258 7 -14051212.03423
 91  4 30  0  5 14.9970000  0  3G 2G13G 6
  20771864.243      513307.621 7    442742.27623
  19350665.1574  -22471197.97547 -17095122.54462
  19813460.0324  -18059956.09047 -14043236.58863
 91  4 30  0  5 29.9970000  0  3G 2G13G 6
  20774896.892      529240.392 7    455157.40623
  19347011.7984  -22490387.03547 -17110075.04762
  19815431.634   -18049600.509 7 -14035167.31623
 91  4 30  0  5 44.9960000  0  3G 2G13G 6
  20777934.856      545215.690 7    467605.66723
  19343387.3164  -22509430.54247 -17124914.13162
  19817427.840   -18039121.164 7 -14027001.61123
 91  4 30  0  5 59.9960000  0  3G 2G13G 6
  20780986.1994     561240.21647    480092.28162
  19339792.941   -22528326.632 7 -17139638.34722
  19819443.879   -18028512.103 7 -14018734.82423
 91  4 30  0  6 14.9960000  0  3G 2G13G 6
  20784042.6064     577306.73447    492611.61663
  19336224.6214  -22547080.03947 -17154251.38462
  19821488.1844  -18017780.08247 -14010372.22163
 91  4 30  0  6 29.9960000  0  3G 2G13G 6
  20787107.629      593412.909 7    505161.86423
  19332681.4574  -22565693.11847 -17168755.07262
  19823552.4654  -18006927.35247 -14001915.56063
 91  4 30  0  6 44.9960000  0  3G 2G13G 6
  20790182.832      609563.741 7    517746.90622
  19329167.8014  -22584160.80747 -17183145.46862
  19825640.6914  -17995948.84647 -13993360.87963
 91  4 30  0  6 59.9960000  0  3G 2G13G 6
  20793262.332      625755.074 7    530363.50522
  19325679.5984  -22602487.53148 -17197426.02462
  19827754.9414  -17984848.67847 -13984711.41063
 91  4 30  0  7 14.9960000  0  3G 2G13G 6
  20796352.1374     641989.07347    543013.36562
  19322219.246   -22620671.401 8 -17211595.26322
  19829889.926   -17973624.813 7 -13975965.56523
 91  4 30  0  7 29.9960000  0  3G 2G13G 6
  20799451.0904     658269.06147    555699.05862
  19318787.316   -22638708.945 8 -17225650.48122
  19832049.3244  -17962273.61747 -13967120.48963
 91  4 30  0  7 44.9960000  0  3G 2G13G 6
  20802557.7854     674590.44447    568417.00662
  19315381.6684  -22656604.76648 -17239595.26562
  19834232.309   -17950800.021 7 -13958180.04023
 91  4 30  0  7 59.9960000  0  3G 2G13G 6
  20805671.051      690958.213 7    581171.09422
  19312005.2314  -22674353.63048 -17253425.54262
  19836439.8014  -17939198.72847 -13949140.08163
 91  4 30  0  8 14.9960000  0  3G 2G13G 6
  20808793.863      707370.823 7    593960.12922
  19308654.8874  -22691957.55848 -17267142.87662
  19838672.238   -17927471.423 7 -13940001.94323
 91  4 30  0  8 29.9960000  0  3G 2G13G 6
  20811927.051      723831.731 7    606786.79722
  19305332.7464  -22709413.03248 -17280744.53662
  19840927.1374  -17915614.65047 -13930762.90963
 91  4 30  0  8 44.9960000  0  3G 2G13G 6
  20815068.629      740339.091 7    619649.65623
  19302039.231   -22726721.833 8 -17294231.90322
  19843209.0594  -17903630.18247 -13921424.36963
 91  4 30  0  8 59.9960000  0  3G 2G13G 6
  20818218.6994     756894.38847    632549.88162
  19298773.8714  -22743882.49048 -17307603.83162
  19845512.3014  -17891516.48347 -13911985.13763
 91  4 30  0  9 14.9960000  0  3G 2G13G 6
  20821376.973      773498.597 7    645488.20422
  19295537.1134  -22760894.33448 -17320859.80662
  19847844.770   -17879272.676 7 -13902444.51923
 91  4 30  0  9 29.9960000  0  3G 2G13G 6
  20824545.613      790152.328 7    658465.11422
  19292328.356   -22777756.769 8 -17333999.35822
  19850201.012   -17866897.864 7 -13892801.82523
 91  4 30  0  9 44.9960000  0  3G 2G13G 6
  20827725.691      806857.859 7    671482.38822
  19289147.152   -22794467.667 7 -17347020.81622
  19852581.3094  -17854390.03947 -13883055.47863
 91  4 30  0  9 59.9960000  0  3G 2G13G 6
  20830914.9414     823612.64847    684538.03762
  19285997.3874  -22811029.61448 -17359926.22162
  19854982.1294  -17841751.67747 -13873207.40963
 91  4 30  0 10 14.9960000  0  3G 2G13G 6
  20834112.1764     840422.45747    697636.56663
  19282874.0044  -22827436.63248 -17372710.91062
  19857416.3244  -17828977.00247 -13863253.11963
 91  4 30  0 10 29.9960000  0  3G 2G13G 6
  20837322.3244     857286.26347    710777.16662
  19279780.496   -22843690.115 8 -17385375.95022
  19859871.4884  -17816066.99247 -13853193.37963
 91  4 30  0 10 44.9960000  0  3G 2G13G 6
  20840540.137      874196.776 7    723954.16822
  19276715.4344  -22859797.47048 -17397927.12762
  19862353.3164  -17803029.09647 -13843033.98463
 91  4 30  0 10 59.9960000  0  3G 2G13G 6
  20843767.145      891156.468 7    737169.49722
  19273678.121   -22875756.457 8 -17410362.69022
  19864858.3324  -17789860.84547 -13832773.01663
 91  4 30  0 11 14.9960000  0  3G 2G13G 6
  20847003.637      908168.746 7    750425.79622
  19270669.926   -22891563.620 8 -17422679.94022
  19867391.6064  -17776558.80347 -13822407.80463
 91  4 30  0 11 29.9960000  0  3G 2G13G 6
  20850253.027      925236.666 7    763725.45622
  19267691.5434  -22907215.95148 -17434876.55562
  19869947.074   -17763119.861 7 -13811935.91323
 91  4 30  0 11 44.9960000  0  3G 2G13G 6
  20853510.6294     942354.59147    777064.07563
  19264741.8484  -22922719.07748 -17446956.90462
  19872529.176   -17749549.503 7 -13801361.62823
 91  4 30  0 11 59.9960000  0  3G 2G13G 6
  20856774.473      959520.415 7    790440.02022
  19261820.2624  -22938075.08548 -17458922.61862
  19875138.059   -17735849.880 7 -13790686.61123
 91  4 30  0 12 14.9960000  0  3G 2G13G 6
  20860051.270      976736.097 7    803854.81823
  19258926.473   -22953282.061 8 -17470772.19822
  19877770.7074  -17722018.82547 -13779909.17563
 91  4 30  0 12 29.9960000  0  3G 2G13G 6
  20863339.731      994009.370 7    817314.48323
  19256062.3014  -22968332.53348 -17482499.82962
  19880427.027   -17708048.832 7 -13769023.48023
 91  4 30  0 12 44.9960000  0  3G 2G13G 6
  20866635.902     1011333.432 7    830813.73723
  19253226.2384  -22983233.29948 -17494110.80762
  19883108.785   -17693946.732 7 -13758034.84923
 91  4 30  0 12 59.9960000  0  3G 2G13G 6
  20869943.270     1028704.286 7    844349.44223
  19250418.809   -22997988.316 8 -17505608.21122
  19885817.8564  -17679716.39347 -13746946.27763
 91  4 30  0 13 14.9960000  0  3G 2G13G 6
  20873257.637     1046129.449 7    857927.47123
  19247639.668   -23012590.386 8 -17516986.43522
  19888550.3244  -17665350.66447 -13735752.21363
 91  4 30  0 13 29.9960000  0  3G 2G13G 6
  20876583.996     1063606.720 7    871546.10923
  19244890.3484  -23027041.76748 -17528247.24562
  19891310.527   -17650851.683 7 -13724454.31723
 91  4 30  0 13 44.9960000  0  4G 2G13G 6G12
  20879918.137     1081133.327 7    885203.19122
  19242168.887   -23041345.345 8 -17539392.87522
  19894095.2544  -17636221.80047 -13713054.42163
  23108423.0664         -0.50155
 91  4 30  0 13 59.9960000  0  4G 2G13G 6G12
  20883262.199     1098710.299 7    898899.51723
  19239474.418   -23055500.330 8 -17550422.72522
  19896906.9414  -17621460.40947 -13701552.05063
  23098161.3874     -53916.47745
 91  4 30  0 14 14.9960000  0  4G 2G13G 6G12
  20886614.301     1116328.434 7    912627.91922
  19236807.7934  -23069515.77648 -17561343.83762
  19899738.418   -17606576.651 7 -13689954.33123
  23087903.6374    -107831.35945
 91  4 30  0 14 29.9960000  0  4G 2G13G 6G12
  20889979.543     1133994.876 7    926393.95422
  19234168.293   -23083384.547 8 -17572150.66122
  19902593.1914  -17591563.29947 -13678255.62563
  23077642.496     -161737.569 5
 91  4 30  0 14 44.9960000  0  4G 2G13G 6G12
  20893349.137     1151713.913 7    940200.97522
  19231558.777   -23097102.550 8 -17582840.00422
  19905476.113   -17576416.107 7 -13666452.63623
  23067387.5274    -215630.58845
 91  4 30  0 14 59.9960000  0  4G 2G13G 6G12
  20896729.816     1169481.507 7    954045.84123
  19228975.473   -23110673.990 8 -17593415.13922
  19908385.7384  -17561139.19347 -13654548.55663
  23057132.543     -269514.342 5        -0.13631
 91  4 30  0 15 14.9960000  0  4G 2G13G 6G12
  20900124.8794    1187310.42247    967938.47462
  19226422.7774  -23124086.08548 -17603866.11362
  19911316.691   -17545719.509 7 -13642533.23623
  23046884.5354    -323375.68845    -41969.95761
 91  4 30  0 15 29.9960000  0  4G 2G13G 6G12
  20903525.9964    1205193.81147    981873.55362
  19223899.7464  -23137346.11348 -17614198.59262
  19914278.824   -17530164.414 7 -13630412.39423
  23036635.059     -377221.496 5    -83927.68521
 91  4 30  0 15 44.9960000  0  4G 2G13G 6G12
  20906937.629     1223118.881 7    995841.11622
  19221403.5274  -23150466.95848 -17624422.61762
  19917259.402   -17514486.523 7 -13618195.87323
  23026392.324     -431064.178 5   -125882.94821
 91  4 30  0 15 59.9960000  0  4G 2G13G 6G12
  20910359.2774    1241095.84447   1009849.11462
  19218934.6524  -23163438.40248 -17634530.22962
  19920271.5044  -17498675.65047 -13605875.72263
  23016151.1214    -484893.40045   -167827.75561
 91  4 30  0 16 14.9960000  0  4G 2G13G 6G12
  20913788.887     1259126.307 7   1023898.79823
  19216495.5204  -23176259.00548 -17644520.29962
  19923304.941   -17482730.213 7 -13593450.72123
  23005911.231     -538707.313 5   -209760.61421
 91  4 30  0 16 29.9960000  0  4G 2G13G 6G12
  20917229.707     1277204.377 7   1037985.58722
  19214082.4654  -23188934.65948 -17654397.42762
  19926361.7624  -17466656.17947 -13580925.50963
  22995670.4654    -592511.51145   -251685.90061
 91  4 30  0 16 44.9960000  0  4G 2G13G 6G12
  20920680.238     1295329.992 7   1052109.42722
  19211698.4964  -23201465.58248 -17664161.77162
  19929446.871   -17450453.410 7 -13568299.99023
  22985430.731     -646305.810 5   -293603.47721
 91  4 30  0 16 59.9960000  0  4G 2G13G 6G12
  20924136.918     1313508.202 7   1066274.25022
  19209342.0044  -23213846.76248 -17673809.43462
  19932555.520   -17434117.008 7 -13555570.33923
  22975196.457     -700084.879 5   -335509.18521
 91  4 30  0 17 14.9960000  0  4G 2G13G 6G12
  20927605.777     1331736.244 7   1080477.89322
  19207013.4964  -23226081.22448 -17683342.78362
  19935690.4414  -17417649.84747 -13542738.79363
  22964965.6604    -753851.35045   -377405.06861
 91  4 30  0 17 29.9960000  0  4G 2G13G 6G12
  20931082.824     1350009.691 7   1094716.91922
  19204711.8484  -23238173.50948 -17692765.33162
  19938847.9024  -17401056.34447 -13529808.80463
  22954737.902     -807609.474 5   -419294.45821
 91  4 30  0 17 44.9960000  0  4G 2G13G 6G12
  20934569.035     1368332.309 7   1108994.26322
  19202440.1844  -23250119.84248 -17702074.15562
  19942029.3094  -17384332.65347 -13516777.36563
  22944511.4184    -861355.24545   -461174.22061
 91  4 30  0 17 59.9960000  0  4G 2G13G 6G12
  20938064.566     1386700.878 7   1123307.41522
  19200191.9574  -23261923.36148 -17711271.69262
  19945237.160   -17367482.070 7 -13503647.05323
  22934285.887     -915091.453 5   -503046.53521
 91  4 30  0 18 14.9960000  0  4G 2G13G 6G12
  20941569.012     1405117.342 7   1137657.88722
  19197975.3954  -23273582.29648 -17720356.57062
  19948467.7774  -17350502.79247 -13490416.45963
  22924060.410     -968816.029 5   -544909.78821
 91  4 30  0 18 29.9960000  0  4G 2G13G 6G12
  20945082.4414    1423580.34447   1152044.61462
  19195782.7154  -23285098.43048 -17729330.17362
  19951724.1214  -17333396.05347 -13477086.54363
  22913837.9104   -1022530.01845   -586764.77161
 91  4 30  0 18 44.9960000  0  4G 2G13G 6G12
  20948604.7704    1442086.06047   1166464.63962
  19193617.8794  -23296475.64348 -17738195.52662
  19955001.145   -17316165.752 7 -13463660.34523
  22903618.293    -1076237.094 5   -628614.42221
 91  4 30  0 18 59.9960000  0  4G 2G13G 6G12
  20952136.910     1460636.321 7   1180919.37122
  19191480.2624  -23307712.09648 -17746951.19862
  19958301.8714  -17298809.92647 -13450136.34063
  22893401.1914   -1129934.95945   -670456.85961
 91  4 30  0 19 14.9960000  0  4G 2G13G 6G12
  20955676.356     1479230.315 7   1195408.18022
  19189368.4344  -23318808.71648 -17755597.91162
  19961629.074   -17281329.807 7 -13436515.48123
  22883183.848    -1183624.635 5   -712292.89521
 91  4 30  0 19 29.9960000  0  4G 2G13G 6G12
  20959218.395     1497860.855 7   1209925.46322
  19187282.3014  -23329773.26848 -17764141.70862
  19964979.645   -17263732.578 7 -13422803.37523
  22872969.223    -1237313.104 5   -754128.03821
 91  4 30  0 19 44.9960000  0  4G 2G13G 6G12
  20962775.098     1516534.305 7   1224476.18322
  19185221.7854  -23340599.38348 -17772577.63262
  19968350.434   -17246011.865 7 -13408995.04823
  22862751.7384   -1290993.52245   -795956.88561
 91  4 30  0 19 59.9960000  0  4G 2G13G 6G12
  20966333.277     1535251.628 7   1239061.08522
  19183188.254   -23351285.955 8 -17780904.81122
  19971746.2624  -17228166.58647 -13395089.64663
  22852539.1134   -1344664.47945   -837778.36761
 91  4 30  0 20 14.9960000  0  4G 2G13G 6G12
  20969905.356     1554012.080 7   1253679.60022
  19181181.2774  -23361833.82648 -17789123.93162
  19975164.895   -17210197.491 7 -13381087.76623
  22842325.715    -1398326.609 5   -879592.92621
 91  4 30  0 20 29.9960000  0  4G 2G13G 6G12
  20973480.090     1572813.777 7   1268330.25822
  19179201.0824  -23372245.12348 -17797236.62662
  19978609.457   -17192106.728 7 -13366991.08623
  22832116.754    -1451981.685 5   -921402.02721
 91  4 30  0 20 44.9960000  0  4G 2G13G 6G12
  20977069.598     1591660.964 7   1283016.35922
  19177244.8564  -23382515.76748 -17805239.72362
  19982073.9494  -17173889.95447 -13352796.20963
  22821908.613    -1505625.407 5   -963202.27721
 91  4 30  0 20 59.9960000  0  4G 2G13G 6G12
  20980665.184     1610554.806 7   1297738.81522
  19175317.7384  -23392644.84248 -17813132.50662
  19985566.6684  -17155546.35347 -13338502.50163
  22811705.684    -1559256.268 5  -1004992.51521
 91  4 30  0 21 14.9960000  0  4G 2G13G 6G12
  20984268.582     1629497.249 7   1312499.13722
  19173417.4344  -23402630.49648 -17820913.52662
  19989080.816   -17137073.730 7 -13324108.26823
  22801501.863    -1612872.063 5  -1046770.99321
 91  4 30  0 21 29.9960000  0  4G 2G13G 6G12
  20987883.387     1648487.751 7   1327296.90822
  19171544.5434  -23412473.43448 -17828583.34362
  19992618.621   -17118472.801 7 -13309614.05823
  22791302.113    -1666472.981 5  -1088537.88421
 91  4 30  0 21 44.9960000  0  4G 2G13G 6G12
  20991506.168     1667526.524 7   1342132.29922
  19169698.348   -23422173.623 8 -17836141.91722
  19996184.4734  -17099743.38747 -13295019.71763
  22781102.7234   -1720058.62346  -1130292.90061
 91  4 30  0 21 59.9960000  0  4G 2G13G 6G12
  20995139.676     1686612.516 7   1357004.48222
  19167879.2074  -23431731.89848 -17843589.91862
  19999772.4964  -17080886.63347 -13280326.15663
  22770907.496    -1773629.824 6  -1172036.64321
 91  4 30  0 22 14.9960000  0  4G 2G13G 6G12
  20998776.504     1705744.073 7   1371912.17322
  19166087.9574  -23441150.24648 -17850928.89062
  20003386.668   -17061904.128 7 -13265534.60623
  22760716.434    -1827187.843 6  -1213770.10421
 91  4 30  0 22 29.9960000  0  4G 2G13G 6G12
  21002427.9494    1724922.13447
  19164321.9414  -23450427.97348 -17858158.28062
  20007023.270   -17042795.071 7
  22750527.3954   -1880731.59846  -1255492.46061
 91  4 30  0 22 44.9960000  0  4G 2G13G 6G12
  21006085.8094    1744149.27947
  19162583.6214  -23459562.67648 -17865276.22462
  20010683.535   -17023556.879 7
  22740341.699    -1934258.347 6  -1297201.56021
 91  4 30  0 22 59.9960000  0  4G 2G13G 6G12
  21009753.4964    1763424.65847   1416858.02362
  19160871.9414  -23468555.50148 -17872283.61162
  20014369.066   -17004190.381 7 -13220562.90323
  22730160.3484   -1987768.66446  -1338897.85961
 91  4 30  0 23 14.9960000  0  4G 2G13G 6G12
  21013429.598     1782735.964 7   1431905.77422
  19159186.1524  -23477418.90348 -17879190.15862
  20018075.629   -16984708.200 7 -13205381.99423
  22719974.949    -2041274.670 6  -1380590.79621
 91  4 30  0 23 29.9960000  0  4G 2G13G 6G12
  21017113.559     1802087.723 7   1446985.05222
  19157524.4814  -23486148.04948 -17885992.08262
  20021803.863   -16965105.764 7 -13190107.38823
  22709797.348    -2094771.520 6  -1422276.59721
 91  4 30  0 23 44.9960000  0  4G 2G13G 6G12
  21020805.270     1821484.141 7   1462099.12822
  19155891.1524  -23494739.12948 -17892686.42662
  20025557.606   -16945378.840 7 -13174735.77923
  22699620.473    -2148254.712 6  -1463951.77321
 91  4 30  0 23 59.9960000  0  4G 2G13G 6G12
  21024501.199     1840923.881 7   1477246.95822
  19154281.4494  -23503193.44548 -17899274.19762
  20029337.988   -16925528.836 7 -13159268.26723
  22689442.3634   -2201725.31246  -1505617.12961
 91  4 30  0 24 14.9960000  0  4G 2G13G 6G12
  21028211.941     1860408.616 7   1492429.85722
  19152697.9104  -23511509.56848 -17905754.28962
  20033137.957   -16905554.004 7 -13143703.48423
  22679271.754    -2255181.354 6  -1547271.12921
 91  4 30  0 24 29.9960000  0  4G 2G13G 6G12
  21031926.918     1879939.973 7   1507649.08022
  19151142.1764  -23519686.08148 -17912125.59262
  20036960.160   -16885452.959 7 -13128040.35023
  22669104.676    -2308621.013 6  -1588912.37821
 91  4 30  0 24 44.9960000  0  4G 2G13G 6G12
  21035651.715     1899516.525 7   1522903.51822
  19149612.7624  -23527724.66648 -17918389.41662
  20040813.637   -16865227.270 7 -13112280.08923
  22658938.074    -2362045.629 6  -1630541.89721
 91  4 30  0 24 59.9960000  0  4G 2G13G 6G12
  21039386.254     1919138.362 7   1538193.25322
  19148108.7314  -23535625.59948 -17924545.98862
  20044683.098   -16844876.900 7 -13096422.67823
  22648774.5124   -2415454.83146  -1672159.42461
 91  4 30  0 25 14.9960000  0  4G 2G13G 6G12
  21043126.059     1938802.786 7   1553516.16422
  19146631.9104  -23543391.47748 -17930597.31762
  20048580.551   -16824404.633 7 -13080470.26923
  22638611.949    -2468851.058 6  -1713766.82021
 91  4 30  0 25 29.9960000  0  4G 2G13G 6G12
  21046880.316     1958515.823 7   1568876.95822
  19145180.2384  -23551016.49348 -17936538.88162
  20052499.254   -16803804.463 7 -13064418.20523
  22628455.1214   -2522228.01946  -1755359.21161
 91  4 30  0 25 44.9960000  0  4G 2G13G 6G12
  21050639.715     1978274.300 7   1584273.15822
  19143756.1454  -23558504.08248 -17942373.36162
  20056444.207   -16783079.758 7 -13048269.10523
  22618301.574    -2575588.705 6  -1796938.91621
 91  4 30  0 25 59.9960000  0  4G 2G13G 6G12
  21054407.113     1998082.554 7   1599708.14622
  19142357.5514  -23565850.18448 -17948097.59162
  20060412.965   -16762226.273 7 -13032019.65623
  22608151.770    -2628928.330 6  -1838502.21821
 91  4 30  0 26 14.9960000  0  4G 2G13G 6G12
  21058188.316     2017938.784 7   1615180.51722
  19140986.1764  -23573056.58148 -17953712.96562
  20064403.160   -16741245.643 7 -13015671.13423
  22598002.3874   -2682248.52046  -1880050.36161
 91  4 30  0 26 29.9960000  0  4G 2G13G 6G12
  21061976.754     2037843.299 7   1630690.51022
  19139641.5204  -23580123.00548 -17959219.26162
  20068419.434   -16720137.794 7 -12999223.47223
  22587861.9734   -2735548.61646  -1921582.85661
 91  4 30  0 26 44.9960000  0  4G 2G13G 6G12
  21065770.215     2057793.175 7   1646235.85122
  19138322.5044  -23587052.59948 -17964618.93862
  20072462.707   -16698905.547 7 -12982678.87623
  22577721.3794   -2788831.27546  -1963101.76061
 91  4 30  0 26 59.9960000  0  4G 2G13G 6G12
  21069575.1214    2077788.14947   1661816.34562
  19137029.8324  -23593845.77148 -17969912.31262
  20076525.793   -16677549.417 7 -12966037.76123
  22567584.5044   -2842096.76446  -2004607.30161
 91  4 30  0 27 14.9960000  0  4G 2G13G 6G12
  21073388.6374    2097831.07547   1677434.19562
  19135764.3484  -23600500.08048 -17975097.48262
  20080615.840   -16656066.647 7 -12949297.96123
  22557452.754    -2895341.890 6  -2046096.97321
 91  4 30  0 27 29.9960000  0  4G 2G13G 6G12
  21077210.973     2117918.166 7   1693086.46222
  19134523.5904  -23607019.55348 -17980177.58862
  20084725.316   -16634461.030 7 -12932462.43723
  22547325.7934   -2948570.13546  -2087573.45061
 91  4 30  0 27 44.9960000  0  4G 2G13G 6G12
  21081042.1134    2138049.70947   1708773.36562
  19133308.8634  -23613403.80448 -17985152.32562
  20088860.816   -16612732.269 7 -12915530.95622
  22537198.1994   -3001781.02546  -2129036.43361
 91  4 30  0 27 59.9960000  0  4G 2G13G 6G12
  21084882.996     2158232.183 7   1724499.95922
  19132120.7154  -23619646.46348 -17990016.72962
  20093020.215   -16590874.091 7 -12898498.62723
  22527077.012    -3054967.722 6  -2170480.56321
 91  4 30  0 28 14.9960000  0  4G 2G13G 6G12
  21088734.738     2178462.529 7   1740263.85122
  19130959.3014  -23625750.96848 -17994773.48062
  20097203.246   -16568889.739 7 -12881367.97922
  22516958.8794   -3108133.12046  -2211908.09761
 91  4 30  0 28 29.9960000  0  4G 2G13G 6G12
  21092592.7464    2198739.04647   1756063.71962
  19129823.2464  -23631719.21048 -17999424.05562
  20101409.434   -16546780.933 7 -12864140.36322
  22506847.848    -3161278.564 6  -2253320.10021
 91  4 30  0 28 44.9960000  0  4G 2G13G 6G12
  21096463.301     2219062.590 7   1771900.23722
  19128714.1914  -23637550.48148 -18003967.90262
  20105640.020   -16524546.804 7 -12846815.09522
  22496737.613    -3214402.773 6  -2294715.53521
 91  4 30  0 28 59.9960000  0  4G 2G13G 6G12
  21100332.848     2239429.665 7   1787770.66522
  19127628.9414  -23643248.43148 -18008407.85762
  20109896.418   -16502190.975 7 -12829394.99022
  22486633.6604   -3267509.46446  -2336097.33461
 91  4 30  0 29 14.9960000  0  4G 2G13G 6G12
  21104221.160     2259838.614 7   1803673.73122
  19126569.8324  -23648814.89148 -18012745.35662
  20114171.895   -16479715.449 7 -12811881.61022
  22476529.629    -3320599.890 6  -2377466.46121
 91  4 30  0 29 29.9960000  0  4G 2G13G 6G12
  21108112.441     2280293.037 7   1819612.22422
  19125536.4184  -23654246.53748 -18016977.79962
  20118471.793   -16457116.454 7 -12794272.03022
  22466431.738    -3373669.955 6  -2418819.70321
 91  4 30  0 29 44.9960000  0  4G 2G13G 6G12
  21112012.6994    2300793.21447   1835586.37462
  19124528.8714  -23659543.37548 -18021105.20062
  20122798.707   -16434393.862 7 -12776566.13222
  22456337.2384   -3426719.18146  -2460156.72461
 91  4 30  0 29 59.9960000  0  4G 2G13G 6G12
  21115923.4414    2321333.58347   1851591.84862
  19123545.6294  -23664710.82748 -18025131.78462
  20127142.348   -16411553.204 7 -12758768.24422
  22446242.9024   -3479752.77446  -2501481.55561
 91  4 30  0 30 14.9960000  0  4G 2G13G 6G12
  21119838.684     2341915.606 7   1867629.77522
  19122585.6294  -23669747.77648 -18029056.67362
  20131513.160   -16388593.294 7 -12740877.42422
  22436155.699    -3532769.186 6  -2542792.99621
 91  4 30  0 30 29.9960000  0  4G 2G13G 6G12
  21123762.754     2362536.165 7   1883697.72822
  19121652.0044  -23674657.55248 -18032882.46162
  20135904.106   -16365517.374 7 -12722896.21422
  22426068.863    -3585771.339 6  -2584093.31721
 91  4 30  0 30 44.9960000  0  4G 2G13G 6G12
  21127694.348     2383200.001 7   1899799.40522
  19120743.4964  -23679435.45948 -18036605.49762
  20140316.465   -16342320.679 7 -12704820.88922
  22415986.0594   -3638754.10146  -2625378.55061
 91  4 30  0 30 59.9960000  0  4G 2G13G 6G12
  21131634.449     2403903.735 7   1915932.16822
  19119858.0744  -23684085.16248 -18040228.63362
  20144755.637   -16319006.607 7 -12686654.10022
  22405906.598    -3691720.596 6  -2666651.10021
 91  4 30  0 31 14.9960000  0  4G 2G13G 6G12
  21135581.613     2424649.816 7   1932097.93822
  19118998.3244  -23688604.80748 -18043750.43062
  20149213.949   -16295573.121 7 -12668394.26422
  22395832.9814   -3744668.15946  -2707908.89161
 91  4 30  0 31 29.9960000  0  4G 2G13G 6G12
  21139537.762     2445438.712 7   1948297.06022
  19118163.6214  -23692993.58648 -18047170.25362
  20153695.566   -16272019.605 7 -12650040.89422
  22385761.543    -3797596.060 6  -2749151.37821
 91  4 30  0 31 44.9960000  0  4G 2G13G 6G12
  21143503.902     2466273.157 7   1964531.68022
  19117352.4884  -23697249.34848 -18050486.42662
  20158199.481   -16248343.467 7 -12631591.98322
  22375694.059    -3850501.372 6  -2790376.24621
 91  4 30  0 31 59.9960000  0  4G 2G13G 6G12
  21147476.9104    2487150.85247   1980800.00362
  19116568.4104  -23701374.36348 -18053700.71662
  20162728.199   -16224547.231 7 -12613049.48222
  22365628.3714   -3903386.10246  -2831585.06961
 91  4 30  0 32 14.9960000  0  4G 2G13G 6G12
  21151457.863     2508074.786 7   1997104.34622
  19115808.3244  -23705365.84048 -18056810.95362
  20167280.793   -16200627.987 7 -12594411.13022
  22355567.2774   -3956246.94446  -2872775.29961
 91  4 30  0 32 29.9960000  0  4G 2G13G 6G12
  21155449.449     2529046.269 7   2013445.74822
  19115075.2774  -23709222.62248 -18059816.22862
  20171857.129   -16176584.223 7 -12575675.74922
  22345514.809    -4009082.221 6  -2913945.59921
 91  4 30  0 32 44.9960000  0  4G 2G13G 6G12
  21159449.606     2550062.094 7   2029821.70222
  19114366.1684  -23712948.28148 -18062719.33662
  20176454.637   -16152419.440 7 -12556846.06622
  22335466.332    -4061894.884 6  -2955098.27421
 91  4 30  0 32 59.9960000  0  4G 2G13G 6G12
  21163458.231     2571124.561 7   2046233.99022
  19113681.8014  -23716540.29048 -18065518.29862
  20181076.3794  -16128131.45747 -12537920.38162
  22325419.6294   -4114682.25546  -2996231.26161
 91  4 30  0 33 14.9960000  0  4G 2G13G 6G12
  21167472.434     2592226.023 7   2062676.67422
  19113022.0204  -23720006.82348 -18068219.48562
  20185719.496   -16103728.115 7 -12518904.80322
  22315378.863    -4167451.864 6  -3037350.38721
 91  4 30  0 33 29.9960000  0  4G 2G13G 6G12
  21171492.918     2613369.735 7   2079152.27622
  19112386.7934  -23723345.05548 -18070820.69962
  20190388.051   -16079206.297 7 -12499796.91622
  22305342.5274   -4220200.20646  -3078452.96061
 91  4 30  0 33 44.9960000  0  4G 2G13G 6G12
  21175526.629     2634553.916 7   2095659.40922
  19111776.9104  -23726556.98648 -18073323.50262
  20195075.988   -16054567.910 7 -12480598.19522
  22295305.3094   -4272928.89346  -3119540.19061
 91  4 30  0 33 59.9960000  0  4G 2G13G 6G12
  21179566.496     2655781.153 7   2112200.09422
  19111189.2314  -23729639.95448 -18075725.80762
  20199786.098   -16029810.578 7 -12461306.78622
  22285277.629    -4325635.007 6  -3160609.84221
 91  4 30  0 34 14.9960000  0  4G 2G13G 6G12
  21183613.574     2677053.371 7   2128775.83422
  19110628.2384  -23732592.18548 -18078026.24562
  20204520.199   -16004932.152 7 -12441921.01922
  22275254.3484   -4378316.22446  -3201660.10861
 91  4 30  0 34 29.9960000  0  4G 2G13G 6G12
  21187670.316     2698371.624 7   2145387.44322
  19110090.1294  -23735413.13048 -18080224.37662
  20209279.598   -15979931.974 7 -12422440.38522
  22265232.941    -4430971.389 6  -3242690.06521
 91  4 30  0 34 44.9960000  0  4G 2G13G 6G12
  21191738.629     2719738.414 7   2162036.87422
  19109579.4734  -23738100.32748 -18082318.29062
  20214059.199   -15954807.517 7 -12402862.90422
  22255219.0984   -4483597.60246  -3283697.46461
 91  4 30  0 34 59.9960000  0  4G 2G13G 6G12
  21195809.574     2741157.608 7   2178727.13722
  19109094.1374  -23740650.20148 -18084305.19862
  20218866.949   -15929555.075 7 -12383185.69722
  22245210.543    -4536190.741 6  -3324679.08421
 91  4 30  0 35 14.9960000  0  4G 2G13G 6G12
  21199897.590     2762622.695 7   2195453.16122
  19108635.2624  -23743069.24148 -18086190.15562
  20223692.645   -15904181.298 7 -12363413.94222
  22235207.496    -4588756.993 6  -3365639.75621
 91  4 30  0 35 29.9960000  0  4G 2G13G 6G12
  21203990.410     2784134.962 7   2212215.94922
  19108199.0204  -23745356.68748 -18087972.58162
  20228545.582   -15878684.965 7 -12343546.69522
  22225208.2074   -4641294.88446  -3406578.33261
 91  4 30  0 35 44.9960000  0  4G 2G13G 6G12
  21208090.840     2805697.487 7   2229017.89722
  19107789.3324  -23747509.55548 -18089650.13462
  20233420.3164  -15853063.08747 -12323581.61062
  22215216.3404   -4693801.02246  -3447492.17261
 91  4 30  0 35 59.9960000  0  4G 2G13G 6G12
  21212204.824     2827301.618 7   2245852.26422
  19107402.0824  -23749536.44848 -18091229.52562
  20238318.629   -15827324.597 7 -12303525.65522
  22205229.5044   -4746283.74346  -3488387.76861
 91  4 30  0 36 14.9960000  0  4G 2G13G 6G12
  21216324.231     2848954.369 7   2262724.52122
  19107042.0744  -23751430.66648 -18092705.53462
  20243240.621   -15801462.527 7 -12283373.40722
  22195248.496    -4798735.757 6  -3529259.42221
 91  4 30  0 36 29.9960000  0  4G 2G13G 6G12
  21220454.731     2870654.468 7   2279633.67122
  19106706.3164  -23753194.02548 -18094079.57262
  20248187.0354  -15775478.19347 -12263125.88962
  22185274.449    -4851158.071 6  -3570107.92821
 91  4 30  0 36 44.9960000  0  4G 2G13G 6G12
  21224592.7464    2892400.62547   2296578.70462
  19106395.6294  -23754827.77548 -18095352.62062
  20253152.637   -15749373.174 7 -12242784.33522
  22175301.6764   -4903551.75346  -3610934.14561
 91  4 30  0 36 59.9960000  0  4G 2G13G 6G12
  21228741.246     2914199.557 7   2313564.86122
  19106111.0274  -23756325.39048 -18096519.58562
  20258144.8714  -15723140.79847 -12222343.55262
  22165339.973    -4955909.902 6  -3651732.68021
 91  4 30  0 37 14.9960000  0  4G 2G13G 6G12
  21232899.199     2936054.890 7   2330594.97022
  19105853.2934  -23757683.78248 -18097578.06962
  20263159.481   -15696777.519 7 -12201800.75722
  22155385.137    -5008228.613 6  -3692500.47821
 91  4 30  0 37 29.9960000  0  4G 2G13G 6G12
  21237068.113     2957961.533 7   2347665.05522
  19105620.6064  -23758907.96648 -18098531.97662
  20268202.152   -15670288.666 7 -12181160.11122
  22145433.684    -5060512.580 6  -3733241.21421
 91  4 30  0 37 44.9960000  0  4G 2G13G 6G12
  21241246.559     2979915.335 7   2364771.88822
  19105410.5594  -23760002.36648 -18099384.74862
  20273264.762   -15643678.340 7 -12160424.81522
  22135491.4184   -5112765.58246  -3773957.79761
 91  4 30  0 37 59.9960000  0  4G 2G13G 6G12
  21245431.879     3001915.996 7   2381915.23822
  19105226.4414  -23760967.40548 -18100136.71962
  20278352.410   -15616947.134 7 -12139595.32222
  22125553.2074   -5164987.57846  -3814650.23361
 91  4 30  0 38 14.9960000  0  4G 2G13G 6G12
  21249628.934     3023966.504 7   2399097.42822
  19105069.9574  -23761800.77448 -18100786.09062
  20283462.910   -15590092.357 7 -12118669.53922
  22115624.2154   -5217175.66446  -3855316.23861
 91  4 30  0 38 29.9960000  0  4G 2G13G 6G12
  21253832.004     3046066.217 7   2416317.95722
  19104933.6604  -23762503.02448 -18101333.29862
  20288597.184   -15563114.716 7 -12097648.02122
  22105701.7074   -5269330.07546  -3895956.00361
 91  4 30  0 38 44.9960000  0  4G 2G13G 6G12
  21258050.098     3068216.518 7   2433577.90722
  19104826.2384  -23763072.77248 -18101777.24562
  20293754.356   -15536012.675 7 -12076529.57322
  22095778.1214   -5321448.86946  -3936568.01961
 91  4 30  0 38 59.9960000  0  4G 2G13G 6G12
  21262276.168     3090416.403 7   2450876.49222
  19104744.5434  -23763511.59748 -18102119.18162
  20298934.8014  -15508787.57347 -12055315.23762
  22085868.270    -5373532.986 6  -3977153.00521
 91  4 30  0 39 14.9960000  0  4G 2G13G 6G12
  21266507.465     3112659.867 7   2468209.03622
  19104682.7384  -23763825.72548 -18102363.94862
  20304137.496   -15481445.675 7 -12034009.88922
  22075962.9344   -5425588.29246  -4017715.55561
 91  4 30  0 39 29.9960000  0  4G 2G13G 6G12
  21270747.7384    3134945.87947   2485574.73562
  19104645.8014  -23764016.47348
  20309362.7544  -15453987.89647 -12012614.24662
  22066062.2774   -5477615.24546  -4058256.00561
 91  4 30  0 39 44.9960000  0  4G 2G13G 6G12
  21274998.856     3157278.441 7   2502976.70722
  19104637.3094  -23764080.02048
  20314609.2074  -15426410.59947 -11991125.47462
  22056166.2774   -5529609.70046  -4098771.13161
 91  4 30  0 39 59.9960000  0  4G 2G13G 6G12
  21279254.5744    3179656.65447   2520414.25462
  19104647.9814  -23764017.45648
  20319880.7854  -15398714.81947 -11969544.37362
  22046278.9574   -5581572.27746  -4139261.41761
 91  4 30  0 40 14.9960000  0  4G 2G13G 6G12
  21283523.191     3202074.914 7   2537883.00421
  19104679.2774  -23763834.48948
  20325172.0204  -15370906.22047 -11947875.36462
  22036395.5594   -5633508.17146  -4179730.90461
 91  4 30  0 40 29.9960000  0  4G 2G13G 6G12
  21287794.574     3224538.633 7   2555387.18022
  19104742.4414  -23763525.83248
  20330485.918   -15342979.427 7 -11926114.24722
  22026520.012    -5685411.647 6  -4220175.14521
 91  4 30  0 40 44.9960000  0  4G 2G13G 6G12
  21292079.676     3247045.460 7   2572924.94121
  19104821.9574  -23763094.30448 -18101793.98462
  20335821.965   -15314937.051 7 -11904263.06922
  22016647.4414   -5737285.05246  -4260595.94561
 91  4 30  0 40 59.9960000  0  4G 2G13G 6G12
  21296372.098     3269594.382 7   2590495.50322
  19104928.3634  -23762541.46548 -18101363.20362
  20341181.301   -15286780.390 7 -11882322.83922
  22006782.1454   -5789129.08246  -4300993.85561
 91  4 30  0 41 14.9960000  0  4G 2G13G 6G12
  21300667.113     3292188.154 7   2608101.01821
  19105058.2234  -23761864.36548 -18100835.59262
  20346561.6604  -15258506.55147 -11860291.30762
  21996924.5514   -5840940.62046  -4341366.44261
 91  4 30  0 41 29.9960000  0  4G 2G13G 6G12
  21304978.481     3314826.636 7   2625741.37222
  19105210.1454  -23761063.60148 -18100211.61562
  20351963.5744  -15230116.00647 -11838168.82962
  21987068.3874   -5892719.27646  -4381713.41961
 91  4 30  0 41 44.9960000  0  4G 2G13G 6G12
  21309295.340     3337513.043 6   2643419.06322
  19105387.0204  -23760136.10048 -18099488.89062
  20357388.981   -15201605.831 7 -11815953.13322
  21977223.191    -5944461.451 6  -4422031.95921
 91  4 30  0 41 59.9960000  0  4G 2G13G 6G12
  21313622.277     3360248.144 7   2661134.70422
  19105587.3404  -23759081.17448 -18098666.86762
  20362837.2154  -15172975.08447 -11793643.49162
  21967384.5514   -5996166.35046  -4462321.45261
 91  4 30  0 42 14.9960000  0  4G 2G13G 6G12
  21317956.6844    3383029.86146   2678886.66761
  19105810.7624  -23757901.03548 -18097747.27662
  20368310.0124  -15144226.14847 -11771241.75262
  21957551.8014   -6047835.78846  -4502583.32261
 91  4 30  0 42 29.9960000  0  4G 2G13G 6G12
  21322299.012     3405853.019 6   2696670.92121
  19106058.6994  -23756601.52648 -18096734.67062
  20373800.9884  -15115364.46447 -11748752.15862
  21947723.6064   -6099474.74146  -4542821.43461
 91  4 30  0 42 44.9960000  0  4G 2G13G 6G12
  21326652.223     3428726.466 7   2714494.36322
  19106330.9104  -23755173.75948 -18095622.12462
  20379316.2384  -15086381.14847 -11726167.78862
  21937908.7544   -6151074.04946  -4583028.64861
 91  4 30  0 42 59.9960000  0  4G 2G13G 6G12
  21331012.176     3451651.914 6   2732358.32521
  19106627.9814  -23753616.31248 -18094408.52762
  20384856.379   -15057274.658 7 -11703487.43522
  21928094.988    -6202631.596 6  -4623203.32021
 91  4 30  0 43 14.9960000  0  4G 2G13G 6G12
  21335388.356     3474627.552 6   2750261.39421
  19106948.0594  -23751931.45448 -18093095.65262
  20390416.8094  -15028047.27547 -11680712.87962
  21918292.691    -6254148.958 6  -4663346.68921
 91  4 30  0 43 29.9960000  0  4G 2G13G 6G12
  21339772.2384    3497659.43046   2768208.28361
  19107293.1604  -23750113.23248 -18091678.86162
  20396002.1524  -14998692.78847 -11657839.28462
  21908498.3794   -6305619.52146  -4703453.58761
 91  4 30  0 43 44.9960000  0  4G 2G13G 6G12
  21344163.582     3520742.831 6   2786195.32721
  19107663.7384  -23748166.56548 -18090161.97762
  20401611.0354  -14969216.09247 -11634870.46062
  21898711.4414   -6357048.05146  -4743527.73961
 91  4 30  0 43 59.9960000  0  4G 2G13G 6G12
  21348564.645     3543877.546 6   2804222.35521
  19108059.3564  -23746091.81948 -18088545.29462
  20407244.7704  -14939617.45147 -11611806.61262
  21888932.5204   -6408434.24546  -4783568.89261
 91  4 30  0 44 14.9960000  0  4G 2G13G 6G12
  21352977.801     3567061.630 6   2822287.85021
  19108477.6134  -23743891.37748 -18086830.66262
  20412899.7774  -14909899.20747 -11588649.57162
  21879162.3244   -6459779.95846  -4823578.50761
 91  4 30  0 44 29.9960000  0  4G 2G13G 6G12
  21357397.832     3590295.921 6   2840392.47021
  19108919.5904  -23741564.82648 -18085017.76862
  20418577.246   -14880060.786 7 -11565398.87922
  21869401.1214   -6511084.10946  -4863555.72761
 91  4 30  0 44 44.9960000  0  4G 2G13G 6G12
  21361830.098     3613583.244 6   2858538.41121
  19109388.5124  -23739109.42648 -18083104.46962
  20424278.449   -14850099.384 7 -11542052.35522
  21859644.5744   -6562343.50346  -4903498.08161
 91  4 30  0 44 59.9960000  0  4G 2G13G 6G12
  21366267.613     3636923.130 6   2876725.31421
  19109880.0274  -23736525.88848 -18081091.32062
  20430003.152   -14820015.676 7 -11518610.53522
  21849900.3324   -6613558.21246  -4943405.60961
 91  4 30  0 45 14.9960000  0  4G 2G13G 6G12
  21370722.871     3660312.754 6   2894950.97621
  19110395.4104  -23733817.34448 -18078980.76862
  20435751.473   -14789812.577 7 -11495075.67022
  21840160.5274   -6664730.72746  -4983280.26161
 91  4 30  0 45 29.9960000  0  4G 2G13G 6G12
  21375184.066     3683754.026 6   2913216.88021
  19110934.2774  -23730982.05948 -18076771.45262
  20441522.348   -14759488.270 7 -11471446.36422
  21830430.2234   -6715858.78346  -5023120.26461
 91  4 30  0 45 44.9960000  0  4G 2G13G 6G12
  21379655.699     3707249.513 6   2931525.02421
  19111498.3094  -23728017.40048 -18074461.32762
  20447316.426   -14729040.322 7 -11447720.71022
  21820711.8714   -6766939.47246  -5062923.36261
 91  4 30  0 45 59.9960000  0  4G 2G13G 6G12
  21384133.613     3730791.639 6   2949869.52021
  19112085.2544  -23724931.47748 -18072056.71562
  20453133.816   -14698476.768 7 -11423904.97622
  21810999.051    -6817980.251 6  -5102695.37121
 91  4 30  0 46 14.9960000  0  4G 2G13G 6G12
  21388620.8324    3754379.29946   2968249.48561
  19112695.9494  -23721725.78248 -18069558.77162
  20458969.856   -14667798.842 7 -11400000.12722
  21801292.0594   -6868982.03846  -5142436.99561
 91  4 30  0 46 29.9960000  0  4G 2G13G 6G12
  21393118.676     3778020.848 6   2986671.45121
  19113330.1134  -23718392.00548 -18066961.02162
  20464829.8794  -14636998.22247 -11375999.67162
  21791597.6914   -6919936.16746  -5182141.46461
 91  4 30  0 46 44.9960000  0  4G 2G13G 6G12
  21397629.6294    3801715.36246   3005134.68561
  19113988.6214  -23714931.52048 -18064264.54062
  20470714.520   -14606076.068 7 -11351904.51322
  21781909.7464   -6970843.10546  -5221809.17261
 91  4 30  0 46 59.9960000  0  4G 2G13G 6G12
  21402152.465     3825461.714 6   3023638.31221
  19114671.2234  -23711345.62948 -18061470.33562
  20476620.6134  -14575033.57647 -11327715.58662
  21772230.4574   -7021703.69046  -5261440.76561
 91  4 30  0 47 14.9960000  0  4G 2G13G 6G12
  21406678.7154    3849260.48146   3042182.78061
  19115376.6914  -23707634.11248 -18058578.24862
  20482553.0744  -14543870.45447 -11303432.66462
  21762563.0514   -7072517.06546  -5301035.57961
 91  4 30  0 47 29.9960000  0  4G 2G13G 6G12
  21411215.699     3873110.801 6   3060767.41421
  19116106.9884  -23703797.94248 -18055589.02262
  20488506.004   -14512587.547 7 -11279056.39922
  21752898.3484   -7123283.78846  -5340594.02761
 91  4 30  0 47 44.9960000  0  4G 2G13G 6G12
  21415763.246     3897011.611 6   3079391.39921
  19116861.4734  -23699838.55548 -18052503.78162
  20494482.5904  -14481186.31047 -11254587.93262
  21743249.5984   -7174004.49146  -5380116.61661
 91  4 30  0 47 59.9960000  0  4G 2G13G 6G12
  21420322.2544    3920963.04146   3098054.82261
  19117637.5354  -23695755.81248 -18049322.42262
  20500479.0274  -14449666.61547 -11230027.16762
  21733606.5514   -7224678.73046  -5419603.00761
 91  4 30  0 48 14.9960000  0  4G 2G13G 6G12
  21424886.926     3944962.017 6   3116755.29721
  19118438.3954  -23691553.11848 -18046047.59862
  20506498.9344  -14418031.83047 -11205376.71262
  21723971.5744   -7275309.26346  -5459055.33361
 91  4 30  0 48 29.9960000  0  4G 2G13G 6G12
  21429465.637     3969014.713 6   3135497.63221
  19119260.9654  -23687224.92448 -18042674.97562
  20512543.223   -14386275.991 7 -11180631.93122
  21714347.1914   -7325889.69246  -5498468.61961
 91  4 30  0 48 44.9960000  0  4G 2G13G 6G12
  21434051.082     3993117.473 6   3154278.98221
  19120106.8164  -23682775.06948 -18039207.55562
  20518608.5904  -14354403.04747 -11155795.90462
  21704729.8794   -7376423.52346  -5537845.59961
 91  4 30  0 48 59.9960000  0  4G 2G13G 6G12
  21438648.582     4017267.219 6   3173096.94221
  19120976.5984  -23678206.63248 -18035647.73362
  20524693.6684  -14322416.16847 -11130871.09362
  21695121.1914   -7426913.39246  -5577188.31361
 91  4 30  0 49 14.9960000  0  4G 2G13G 6G12
  21443252.871     4041464.081 6   3191951.61621
  19121869.1374  -23673519.75648 -18031995.62662
  20530803.3014  -14290315.22447 -11105857.40062
  21685523.5044   -7477358.76646  -5616496.36761
 91  4 30  0 49 29.9960000  0  4G 2G13G 6G12
  21447866.809     4065712.866 6   3210846.75321
  19122784.8404  -23668709.91448 -18028247.69962
  20536934.191   -14258095.691 7 -11080751.29322
  21675931.0744   -7527754.48546  -5655765.72861
 91  4 30  0 49 44.9960000  0  4G 2G13G 6G12
  21452494.2464    4090018.15346   3229785.91261
  19123724.0514  -23663772.91948 -18024400.69162
  20543088.5204  -14225753.15747 -11055549.34762
  21666354.176    -7578095.821 6  -5694992.71221
 91  4 30  0 49 59.9960000  0  4G 2G13G 6G12
  21457126.0044    4114377.20246   3248766.96361
  19124687.1454  -23658711.68748 -18020456.87362
  20549267.3244  -14193290.61747 -11030253.89762
  21656782.871    -7628385.224 6  -5734179.24021
 91  4 30  0 50 14.9960000  0  4G 2G13G 6G12
  21461773.4964    4138787.31946   3267787.80761
  19125673.6454  -23653529.52548 -18016418.82062
  20555465.7234  -14160711.12847 -11004867.32162
  21647222.3874   -7678625.26246  -5773327.29861
 91  4 30  0 50 29.9960000  0  4G 2G13G 6G12
  21466430.0044    4163252.37546   3286851.45661
  19126682.6454  -23648222.68248 -18012283.62262
  20561688.559   -14128010.806 7 -10979386.56822
  21637673.277    -7728811.603 6  -5812433.49621
 91  4 30  0 50 44.9960000  0  4G 2G13G 6G12
  21471091.559     4187765.898 6   3305952.88021
  19127715.9964  -23642797.43648 -18008056.15862
  20567932.941   -14095196.071 7 -10953816.67222
  21628131.9734   -7778950.19646  -5851502.50161
 91  4 30  0 50 59.9960000  0  4G 2G13G 6G12
  21475767.996     4212328.221 6   3325092.32721
  19128769.5124  -23637253.98448 -18003736.58562
  20574200.051   -14062267.125 7 -10928157.78022
  21618599.7464   -7829040.48146  -5890533.85561
 91  4 30  0 51 14.9960000  0  4G 2G13G 6G12
  21480449.473     4236935.890 6   3344267.10821
  19129847.0204  -23631596.10148 -17999327.84762
  20580487.1914  -14029227.45047 -10902412.60362
  21609076.4494   -7879085.66146  -5929530.06661
 91  4 30  0 51 29.9960000  0  4G 2G13G 6G12
  21485139.8794    4261588.50746   3363476.91361
  19130946.1764  -23625824.31848 -17994830.35162
  20586793.0824  -13996077.68546 -10876581.64962
  21599560.520    -7929085.859 6  -5968491.23221
 91  4 30  0 51 44.9960000  0  4G 2G13G 6G12
  21489840.043     4286286.110 6   3382721.77421
  19132065.0124  -23619938.97748 -17990244.37662
  20593124.4814  -13962818.10147 -10850665.11962
  21590056.0514   -7979040.74746  -6007417.08861
 91  4 30  0 51 59.9960000  0  4G 2G13G 6G12
  21494552.301     4311029.564 6   3402002.36421
  19133206.8404  -23613939.42148 -17985569.40162
  20599474.0984  -13929447.97847 -10824662.45862
  21580559.8874   -8028949.09446  -6046306.68061
 91  4 30  0 52 14.9960000  0  4G 2G13G 6G12
  21499266.6524    4335817.98046   3421317.98262
  19134370.3634  -23607827.00048 -17980806.47462
  20605845.098   -13895968.217 7 -10798574.35622
  21571068.3634   -8078811.30746  -6085160.33161
 91  4 30  0 52 29.9960000  0  4G 2G13G 6G12
  21503992.7384    4360651.15246   3440668.47861
  19135554.0744  -23601602.25448 -17975956.02562
  20612237.371   -13862379.379 7 -10772401.25622
  21561590.0664   -8128627.27346  -6123977.94161
 91  4 30  0 52 44.9960000  0  4G 2G13G 6G12
  21508726.777     4385529.222 6   3460053.95921
  19136760.8404  -23595265.22448 -17971018.08162
  20618648.0744  -13828681.44946 -10746143.15962
  21552119.5594   -8178396.69846  -6162759.28061
 91  4 30  0 52 59.9960000  0  4G 2G13G 6G12
  21513470.129     4410457.965 6   3479478.93121
  19137988.6604  -23588810.20548 -17965988.19762
  20625083.8564  -13794868.90046 -10719795.75362
  21542657.7464   -8228113.41846  -6201499.55861
 91  4 30  0 53 14.9960000  0  4G 2G13G 6G12
  21518220.8324    4435428.24246   3498936.25962
  19139237.4414  -23582246.76148 -17960873.82762
  20631538.6684  -13760951.16546 -10693366.38062
  21533205.9574   -8277786.39546  -6240205.74461
 91  4 30  0 53 29.9960000  0  4G 2G13G 6G12
  21522984.582     4460443.221 6   3518428.42621
  19140507.6454  -23575572.10748 -17955672.79962
  20638012.848   -13726925.197 7 -10666852.66322
  21523762.332    -8327412.226 6  -6278875.19721
 91  4 30  0 53 44.9960000  0  4G 2G13G 6G12
  21527753.426     4485504.967 6   3537957.03622
  19141799.7464  -23568784.41948 -17950383.69962
  20644508.2934  -13692789.14446 -10640253.16762
  21514328.8404   -8376988.40047  -6317505.94461
 91  4 30  0 53 59.9960000  0  4G 2G13G 6G12
  21532528.762     4510605.198 6   3557515.63122
  19143110.4104  -23561892.06548 -17945013.03962
  20651023.168   -13658551.371 6 -10613574.41222
  21504902.6134   -8426522.87147  -6356104.19761
 91  4 30  0 54 14.9960000  0  4G 2G13G 6G12
  21537313.7624    4535748.93146   3577108.12561
  19144444.1684  -23554890.31148 -17939557.12462
  20657560.5744  -13624207.04646 -10586812.62962
  21495485.9574   -8476010.18447  -6394665.70861
 91  4 30  0 54 29.9960000  0  4G 2G13G 6G12
  21542105.410     4560933.681 6   3596732.57421
  19145796.7074  -23547782.16248 -17934018.30662
  20664115.8564  -13589758.89546 -10559969.94862
  21486077.5274   -8525452.53647  -6433192.18761
 91  4 30  0 54 44.9960000  0  4G 2G13G 6G12
  21546906.1374    4586163.46146   3616392.11461
  19147170.2624  -23540563.81648 -17928393.61762
  20670691.2704  -13555203.24746 -10533043.49662
  21476677.606    -8574845.727 7  -6471680.36321
 91  4 30  0 54 59.9960000  0  4G 2G13G 6G12
  21551715.4884    4611437.77346   3636086.35561
  19148563.5434  -23533236.02848 -17922683.65562
  20677285.2854  -13520540.70746 -10506033.75462
  21467288.2544   -8624189.88647  -6510130.32961
 91  4 30  0 55 14.9960000  0  4G 2G13G 6G12
  21556532.082     4636752.267 6   3655811.91121
  19149978.5904  -23525803.50048 -17916892.07762
  20683903.6524  -13485776.00746 -10478944.40761
  21457907.6604   -8673488.90947  -6548545.11961
 91  4 30  0 55 29.9960000  0  4G 2G13G 6G12
  21561358.9654    4662117.15446   3675576.73061
  19151414.4494  -23518255.98248 -17911010.89162
  20690540.0904  -13450898.85846 -10451767.44262
  21448534.7074   -8722732.39547  -6586916.63661
 91  4 30  0 55 44.9960000  0  4G 2G13G 6G12
  21566196.832     4687526.489 6   3695376.18321
  19152872.4494  -23510599.90248 -17905045.11662
  20697195.2384  -13415915.46246 -10424507.68861
  21439174.0204   -8771925.83747  -6625249.15561
 91  4 30  0 55 59.9960000  0  4G 2G13G 6G12
  21571039.0744    4712980.04346   3715210.08961
  19154348.5904  -23502835.79148 -17898995.16762
  20703872.2464  -13380826.31146 -10397165.52362
  21429823.090    -8821069.195 7  -6663542.66121
 91  4 30  0 56 14.9960000  0  4G 2G13G 6G12
  21575888.8164    4738476.61246   3735077.51961
  19155847.3484  -23494965.20948 -17892862.24862
  20710570.0124  -13345632.97846 -10369742.19062
  21420480.3404   -8870163.58547  -6701797.99561
 91  4 30  0 56 29.9960000  0  4G 2G13G 6G12
  21580749.4414    4764019.92246   3754981.37061
  19157365.6454  -23486984.38748 -17886643.42362
  20717288.7544  -13310331.74746 -10342234.77161
  21411148.3874   -8919204.70247  -6740011.82461
 91  4 30  0 56 44.9960000  0  4G 2G13G 6G12
  21585622.973     4789609.550 6   3774921.29821
  19158905.9344  -23478894.26248 -17880339.43662
  20724026.9964  -13274923.41846 -10314643.89461
  21401824.8404   -8968192.84547  -6778184.37561
 91  4 30  0 56 59.9960000  0  4G 2G13G 6G12
  21590497.035     4815244.827 6   3794896.80821
  19160465.0824  -23470695.81248 -17873951.03262
  20730783.7854  -13239408.84846 -10286970.23762
  21392514.4414   -9017128.17047  -6816315.75761
 91  4 30  0 57 14.9960000  0  4G 2G13G 6G12
  21595386.5204    4840928.57146   3814910.08661
  19162046.0434  -23462386.48348 -17867476.23562
  20737563.7154  -13203785.18146 -10259211.56962
  21383211.035    -9066007.632 7  -6854403.62421
 91  4 30  0 57 29.9960000  0  4G 2G13G 6G12
  21600283.9884    4866660.17146   3834960.64461
  19163647.5984  -23453966.96548 -17860915.57662
  20744362.4964  -13168053.32746 -10231368.60361
  21373921.9264   -9114831.39147  -6892448.08261
 91  4 30  0 57 44.9960000  0  4G 2G13G 6G12
  21605190.3564    4892442.24946   3855050.54461
  19165272.3634  -23445435.08648 -17854267.36562
  20751182.2704  -13132210.98346 -10203439.53662
  21364641.637    -9163596.589 7  -6930446.91021
 91  4 30  0 57 59.9960000  0  4G 2G13G 6G12
  21610101.6214    4918266.15746   3875173.04261
  19166916.1994  -23436799.56348 -17847538.38762
  20758024.4344  -13096266.94246 -10175431.22161
  21355370.7314   -9212311.57547  -6968406.60261
 91  4 30  0 58 14.9960000  0  4G 2G13G 6G12
  21615025.2464    4944132.00546   3895328.21461
  19168578.8324  -23428060.89548 -17840729.03862
  20764882.2774  -13060221.40246 -10147343.82061
  21346110.9264   -9260975.79047  -7006326.74361
 91  4 30  0 58 29.9960000  0  4G 2G13G 6G12
  21619955.9264    4970041.95546   3915517.74961
  19170261.2314  -23419217.38148 -17833837.99162
  20771759.785   -13024072.322 6 -10119175.73121
  21336862.5354   -9309586.80747  -7044205.43061
 91  4 30  0 58 44.9960000  0  4G 2G13G 6G12
  21624899.020     4996007.087 6   3935750.29821
  19171966.6914  -23410258.02048 -17826856.67162
  20778664.8714  -12987808.95846 -10090918.59761
  21327623.0204   -9358133.29547  -7082033.82461
 91  4 30  0 58 59.9960000  0  4G 2G13G 6G12
  21629847.1684    5022021.56946   3956021.28661
  19173692.2934  -23401188.83848 -17819789.78162
  20785584.1214  -12951437.40546 -10062577.15861
  21318395.9494   -9406620.90347  -7119816.34261
 91  4 30  0 59 14.9960000  0  4G 2G13G 6G12
  21634807.2544    5048080.89546   3976327.22261
  19175436.9414  -23392014.56448 -17812640.99462
  20792522.8244  -12914962.19946 -10034154.94961
  21309179.5204   -9455053.58247  -7157556.06361
 91  4 30  0 59 29.9960000  0  4G 2G13G 6G12
  21639775.6294    5074192.24346   3996673.69561
  19177204.7314  -23382728.33048 -17805404.97262
  20799486.2544  -12878376.39546 -10005646.56261
  21299975.5744   -9503423.85847  -7195247.15061
 91  4 30  0 59 44.9960000  0  4G 2G13G 6G12
  21644752.1914    5100352.32346   4017058.13661
  19178992.1994  -23373333.79748 -17798084.55662
  20806468.6374  -12841683.65946  -9977054.85061
  21290781.9574   -9551734.68247  -7232891.91761
 91  4 30  0 59 59.9960000  0  4G 2G13G 6G12
  21649739.6454    5126559.76446   4037479.48361
  19180800.4884  -23363832.81648 -17790681.20262
  20813470.5984  -12804885.66246  -9948381.11661
  21281599.3634   -9599987.26247  -7270491.29961
 91  4 30  1  0 14.9960000  0  4G 2G13G 6G12
  21654736.6524    5152814.07446   4057937.35661
  19182627.8794  -23354225.96048 -17783195.34462
  20820494.5984  -12767982.82846  -9919625.68961
  21272428.3324   -9648181.49147  -7308045.20561
 91  4 30  1  0 29.9960000  0  4G 2G13G 6G12
  21659743.3014    5179119.56146   4078435.10461
  19184477.6134  -23344509.14348 -17775623.79862
  20827538.1294  -12730971.31946  -9890785.58161
  21263269.012    -9696312.868 7  -7345550.14421
 91  4 30  1  0 44.9960000  0  4G 2G13G 6G12
  21664754.3094    5205470.10146   4098967.95661
  19186346.6134  -23334689.01148 -17767971.74762
  20834599.6764  -12693857.42946  -9861865.70461
  21254120.176    -9744387.181 7  -7383010.62421
 91  4 30  1  0 59.9960000  0  4G 2G13G 6G12
  21669782.3404    5231869.29546   4119538.72361
  19188236.2384  -23324762.01548 -17760236.42962
  20841682.3324  -12656637.55546  -9832863.23761
  21244983.824    -9792400.290 7  -7420423.40721
 91  4 30  1  1 14.9960000  0  4G 2G13G 6G12
  21674813.4024    5258315.37046   4140146.01961
  19190144.6604  -23314730.31648 -17752419.52362
  20848784.8714  -12619314.03846  -9803780.00661
  21235859.6294   -9840353.88747  -7457789.81061
 91  4 30  1  1 29.9960000  0  4G 2G13G 6G12
  21679857.5434    5284812.17146   4160792.84561
  19192074.1914  -23304590.29748 -17744518.21662
  20855907.4574  -12581883.00046  -9774612.99761
  21226747.2624   -9888243.65547  -7495106.48061
 91  4 30  1  1 44.9960000  0  4G 2G13G 6G12
  21684908.2774    5311354.10646   4181474.83461
  19194021.5664  -23294347.90548 -17736537.13362
  20863048.8324  -12544350.41246  -9745366.85561
  21217643.6064   -9936074.93147  -7532377.57761
 91  4 30  1  1 59.9960000  0  4G 2G13G 6G12
  21689964.0664    5337939.00446   4202190.30861
  19195990.6994  -23284005.58948 -17728478.18862
  20870210.6294  -12506718.52446  -9716043.34461
  21208552.8954   -9983849.31247  -7569604.33461
 91  4 30  1  2 14.9960000  0  4G 2G13G 6G12
  21695034.9734    5364572.13046   4222943.36061
  19197978.5904  -23273558.09848 -17720337.28462
  20877391.3874  -12468982.31446  -9686638.54261
  21199473.0664  -10031561.40147  -7606782.55161
 91  4 30  1  2 29.9960000  0  4G 2G13G 6G12
  21700108.2074    5391256.98946   4243736.72261
  19199986.9024  -23263002.20148 -17712111.91562
  20884593.8094  -12431138.53746  -9657149.91761
  21190406.0664  -10079207.08447  -7643909.02761
 91  4 30  1  2 44.9960000  0  4G 2G13G 6G12
  21705198.4414    5417989.17146   4264566.95261
  19202016.0904  -23252342.88148 -17703805.95462
  20891813.3714  -12393191.78646  -9627581.05561
  21181353.1214  -10126790.57947  -7680987.04661
 91  4 30  1  2 59.9960000  0  4G 2G13G 6G12
  21710295.7774    5444774.13446   4285438.31861
  19204066.1604  -23241574.70048 -17695415.16162
  20899054.7384  -12355136.81746  -9597927.86761
  21172309.3874  -10174306.20947  -7718012.18161
 91  4 30  1  3 14.9960000  0  4G 2G13G 6G12
  21715400.8164    5471602.32246   4306343.37261
  19206132.8404  -23230707.63248 -17686947.32262
  20906316.5744  -12316983.54846  -9568198.08961
  21163279.5744  -10221763.21447  -7754991.63261
 91  4 30  1  3 29.9960000  0  4G 2G13G 6G12
  21720516.1604    5498480.09846   4327287.05461
  19208221.1214  -23219735.83948 -17678397.87962
  20913597.8484  -12278725.89346  -9538386.96561
  21154259.6524  -10269155.01547  -7791920.28061
 91  4 30  1  3 44.9960000  0  4G 2G13G 6G12
  21725638.8244    5525408.47246   4348270.16461
  19210328.9884  -23208658.59448 -17669766.26162
  20920896.5664  -12240362.91946  -9508493.77061
  21145253.9104  -10316479.96647  -7828796.83261
 91  4 30  1  3 59.9960000  0  4G 2G13G 6G12
  21730773.2074    5552385.67246   4369291.33061
  19212458.3874  -23197477.78148 -17661053.93862
  20928216.5744  -12201896.70846  -9478520.14161
  21136260.574   -10363739.817 7  -7865622.67021
 91  4 30  1  4 14.9960000  0  4G 2G13G 6G12
  21735916.8564    5579412.56046   4390351.20361
  19214604.2234  -23186193.20048 -17652260.74762
  20935557.2934  -12163326.74246  -9448465.65161
  21127281.0514  -10410933.42947  -7902396.88461
 91  4 30  1  4 29.9960000  0  4G 2G13G 6G12
  21741069.0204    5606484.90546   4411446.50361
  19216770.8094  -23174808.98948 -17643389.94062
  20942914.8954  -12124657.30046  -9418333.64861
  21118312.5514  -10458064.42747  -7939122.29961
 91  4 30  1  4 44.9960000  0  4G 2G13G 6G12
  21746229.9264    5633605.29146   4432579.23161
  19218955.5824  -23163322.69248 -17634439.58462
  20950292.3484  -12085886.01946  -9388122.30161
  21109356.7544  -10505129.74447  -7975796.54761
 91  4 30  1  4 59.9960000  0  4G 2G13G 6G12
  21751400.4414    5660774.87446   4453750.30661
  19221161.8164  -23151733.72448 -17625409.22262
  20957689.9024  -12047011.98346  -9357830.87661
  21100412.5044  -10552128.07947  -8012418.59861
 91  4 30  1  5 14.9960000  0  4G 2G13G 6G12
  21756577.5824    5687997.12146   4474962.41161
  19223386.1604  -23140039.06948 -17616296.50862
  20965108.2384  -12008032.09446  -9327456.96861
  21091482.3404  -10599055.65947  -8048985.51561
 91  4 30  1  5 29.9960000  0  4G 2G13G 6G12
  21761768.2384    5715271.73246   4496215.31561
  19225632.5124  -23128239.36948 -17607101.93862
  20972545.5984  -11968946.91546  -9297001.01761
  21082563.4734  -10645912.51947  -8085497.32761
 91  4 30  1  5 44.9960000  0  4G 2G13G 6G12
  21766970.4184    5742606.11346   4517514.79361
  19227899.5744  -23116327.21948 -17597819.74562
  20980005.5204  -11929749.15946  -9266457.35261
  21073664.598   -10692690.838 7  -8121947.94821
 91  4 30  1  5 59.9960000  0  4G 2G13G 6G12
  21772179.7774    5769992.50446   4538854.80061
  19230186.1374  -23104310.65448 -17588456.19862
  20987484.0744  -11890446.80446  -9235832.17761
  21064774.340   -10739397.845 7  -8158342.99421
 91  4 30  1  6 14.9960000  0  4G 2G13G 6G12
  21777404.9104    5797432.91046   4560236.89461
  19232492.7154  -23092188.09948 -17579010.05062
  20994983.4734  -11851038.24946  -9205124.24861
  21055902.2464  -10786031.28847  -8194680.70861
 91  4 30  1  6 29.9960000  0  4G 2G13G 6G12
  21782634.5984    5824924.12646   4581658.58561
  19234818.7624  -23079963.06748 -17569484.05362
  21002504.2704  -11811526.81446  -9174336.15161
  21047041.9814  -10832594.13347  -8230963.41861
 91  4 30  1  6 44.9960000  0  4G 2G13G 6G12
  21787878.6064    5852469.25946   4603122.28761
  19237164.6374  -23067632.75348 -17559876.02462
  21010040.9414  -11771909.73246  -9143465.73661
  21038194.871   -10879082.825 7  -8267188.35021
 91  4 30  1  6 59.9960000  0  4G 2G13G 6G12
  21793130.2704    5880066.71746   4624626.76761
  19239531.6374  -23055198.97848 -17550187.37262
  21017598.0514  -11732188.81146  -9112514.39961
  21029361.277   -10925498.788 7  -8303356.60421
 91  4 30  1  7 14.9960000  0  4G 2G13G 6G12
  21798391.2624    5907713.57246   4646169.74661
  19241917.6454  -23042664.87648 -17540420.54762
  21025177.3404  -11692367.07346  -9081484.51161
  21020543.856   -10971844.433 7  -8339470.07321
 91  4 30  1  7 29.9960000  0  4G 2G13G 6G12
  21803660.0664    5935409.19946   4667750.71761
  19244321.1684  -23030031.27348 -17530576.18562
  21032774.3564  -11652445.48846  -9050376.81261
  21011737.5904  -11018120.03647  -8375528.95861
 91  4 30  1  7 44.9960000  0  4G 2G13G 6G12
  21808941.8014    5963154.88346   4689370.69561
  19246744.8094  -23017297.53548 -17520653.79762
  21040390.3954  -11612423.04546  -9019190.52461
  21002944.051   -11064323.721 7  -8411531.80521
 91  4 30  1  7 59.9960000  0  4G 2G13G 6G12
  21814228.293     5990949.952 6   4711029.15321
  19249185.5434  -23004464.34048 -17510653.90962
  21048024.5514  -11572300.60946  -8987926.32761
  20994165.512   -11110456.396 7  -8447479.32121
 91  4 30  1  8 14.9960000  0  4G 2G13G 6G12
  21819528.535     6018796.474 6   4732727.70421
  19251647.4734  -22991529.97848 -17500575.18862
  21055680.574   -11532076.370 6  -8956582.81121
  20985400.9964  -11156515.24247  -8483369.30561
 91  4 30  1  8 29.9960000  0  4G 2G13G 6G12
  21824838.0664    6046692.02246   4754464.46261
  19254127.8714  -22978497.27448 -17490419.84262
  21063353.1914  -11491753.07046  -8925162.10061
  20976648.5904  -11202502.58747  -8519203.56861
 91  4 30  1  8 44.9960000  0  4G 2G13G 6G12
  21830155.8094    6074627.88346   4776232.63461
  19256625.2234  -22965375.27648 -17480194.91462
  21071043.4494  -11451339.58746  -8893671.11361
  20967910.793   -11248426.663 7  -8554988.53421
 91  4 30  1  8 59.9960000  0  4G 2G13G 6G12
  21835477.9104    6102612.21846   4798038.57061
  19259141.0594  -22952155.81348 -17469894.04162
  21078750.934   -11410827.946 6  -8862103.64321
  20959184.106   -11294278.807 7  -8590717.45521
 91  4 30  1  9 14.9960000  0  4G 2G13G 6G12
  21840814.7234    6130646.83946   4819883.69061
  19261674.8484  -22938837.50348 -17459516.14362
  21086480.9104  -11370216.64946  -8830458.51361
  20950473.7154  -11340056.91947  -8626388.68261
 91  4 30  1  9 29.9960000  0  4G 2G13G 6G12
  21846156.0354    6158736.06046   4841771.35661
  19264228.8094  -22925416.39148 -17449058.13862
  21094228.668   -11329501.571 6  -8798732.52421
  20941776.652   -11385756.529 7  -8661998.73921
 91  4 30  1  9 44.9960000  0  4G 2G13G 6G12
  21851514.4414    6186880.33146   4863701.92061
  19266801.6994  -22911892.39148 -17438519.95762
  21101994.8634  -11288682.58646  -8766925.55661
  20933096.1684  -11431376.81447  -8697546.98362
 91  4 30  1  9 59.9960000  0  4G 2G13G 6G12
  21856882.6844    6215078.33346   4885674.35261
  19269394.7074  -22898267.12448 -17427902.87462
  21109783.012   -11247761.277 6  -8735038.86821
  20924429.0904  -11476918.75347  -8733034.18261
 91  4 30  1 10 14.9960000  0  4G 2G13G 6G12
  21862250.1844    6243329.32546   4907688.07061
  19272007.4104  -22884541.23348 -17417207.37862
  21117588.7934  -11206738.51446  -8703073.11961
  20915779.113   -11522382.633 7  -8768460.55322
 91  4 30  1 10 29.9960000  0  4G 2G13G 6G12
  21867640.7464    6271633.29046   4929743.07861
  19274637.6914  -22870715.05248 -17406433.73162
  21125414.863   -11165614.655 6  -8671028.59621
  20907140.637   -11567768.233 7  -8803825.93221
 91  4 30  1 10 44.9960000  0  4G 2G13G 6G12
  21873037.9494    6299987.44646   4951837.18261
  19277286.1214  -22856792.10348 -17395584.68362
  21133260.441   -11124392.822 6  -8638907.73021
  20898519.3954  -11613078.06447  -8839132.26662
 91  4 30  1 10 59.9960000  0  4G 2G13G 6G12
  21878442.2544    6328394.82646   4973972.76861
  19279955.7384  -22842769.51948 -17384658.00362
  21141124.2314  -11083070.07046  -8606708.22361
  20889912.199   -11658308.556 7  -8874376.78021
 91  4 30  1 11 14.9960000  0  4G 2G13G 6G12
  21883858.160     6356855.514 6   4996149.87921
  19282642.5354  -22828647.56748 -17373653.88962
  21149006.566   -11041646.792 6  -8574430.38021
  20881320.340   -11703459.457 7  -8909559.27322
 91  4 30  1 11 29.9960000  0  4G 2G13G 6G12
  21889286.3564    6385366.53146   5018366.20661
  19285348.9814  -22814429.44848 -17362574.83962
  21156908.863   -11000126.097 6  -8542076.63721
  20872741.660   -11748533.271 7  -8944681.70021
 91  4 30  1 11 44.9950000  0  4G 2G13G 6G12
  21894716.9994    6413920.02346   5040615.65861
  19288071.7494  -22800122.28848 -17351426.40662
  21164826.2884  -10958516.84646  -8509653.88761
  20864180.874   -11793532.574 7  -8979746.06921
 91  4 30  1 11 59.9950000  0  4G 2G13G 6G12
  21900162.7964    6442525.13646   5062905.31561
  19290811.8744  -22785719.21948 -17340203.24862
  21172762.2734  -10916808.46246  -8477153.88761
  20855630.898   -11838457.725 7  -9014752.65321
 91  4 30  1 12 14.9950000  0  4G 2G13G 6G12
  21905614.1874    6471179.09646   5085233.04661
  19293570.1554  -22771222.07248 -17328906.77662
  21180716.687   -10875004.791 6  -8444579.64721
  20847097.5774  -11883306.12247  -9049699.43062
 91  4 30  1 12 29.9950000  0  4G 2G13G 6G12
  21911078.7494    6499889.99646   5107605.13961
  19296349.3124  -22756623.37848 -17317531.17962
  21188692.398   -10833098.112 6  -8411925.13321
  20838578.6084  -11928069.31647  -9084579.80661
 91  4 30  1 12 44.9950000  0  4G 2G13G 6G12
  21916551.9604    6528654.22446   5130018.78561
  19299146.2334  -22741927.23448 -17306079.64262
  21196685.257   -10791092.400 6  -8379193.45121
  20830075.9054  -11972750.72247  -9119396.46561
 91  4 30  1 12 59.9950000  0  4G 2G13G 6G12
  21922039.8904    6557478.16246   5152478.95961
  19301962.1794  -22727127.56548 -17294547.43762
  21204699.8904  -10748981.41546  -8346379.73661
  20821590.5544  -12017343.60647  -9154144.13262
 91  4 30  1 13 14.9950000  0  4G 2G13G 6G12
  21927534.023     6586358.310 6   5174982.93121
  19304797.1874  -22712227.97048 -17282937.37062
  21212730.4294  -10706768.89446  -8313486.89861
  20813120.991   -12061851.194 7  -9188825.34622
 91  4 30  1 13 29.9950000  0  4G 2G13G 6G12
  21933037.6554    6615290.33546   5197527.32261
  19307649.3274  -22697232.84748 -17271252.86462
  21220782.1554  -10664459.34946  -8280518.47061
  20804666.1484  -12106277.21747  -9223442.99861
 91  4 30  1 13 44.9950000  0  4G 2G13G 6G12
  21938557.937     6644275.917 6   5220113.45621
  19310522.5694  -22682140.80448 -17259492.84062
  21228853.858   -10622051.360 6  -8247473.32721
  20796227.546   -12150619.605 7  -9257995.47822
 91  4 30  1 13 59.9950000  0  4G 2G13G 6G12
  21944080.6874    6673312.60446   5242739.40461
  19313411.5774  -22666954.66548 -17247659.49062
  21236940.6164  -10579547.62146  -8214353.57261
  20787805.1944  -12194880.55647  -9292484.50762
 91  4 30  1 14 14.9950000  0  4G 2G13G 6G12
  21949612.7024    6702402.98746   5265407.19461
  19316320.4524  -22651672.07248 -17235750.98062
  21245048.679   -10536945.780 6  -8181157.37521
  20779400.2574  -12239057.04647  -9326907.71962
 91  4 30  1 14 29.9950000  0  4G 2G13G 6G12
  21955164.741     6731549.493 6   5288118.71721
  19319247.0694  -22636291.02048 -17223765.74762
  21253175.054   -10494243.759 6  -8147883.12421
  20771010.491   -12283146.375 7  -9361263.01722
 91  4 30  1 14 44.9950000  0  4G 2G13G 6G12
  21960716.9834    6760747.68946   5310870.51461
  19322192.4524  -22620816.35648 -17211707.57562
  21261317.968   -10451446.433 6  -8114534.60621
  20762636.0304  -12327152.80547  -9395553.71262
 91  4 30  1 14 59.9950000  0  4G 2G13G 6G12
  21966284.1484    6790003.50246   5333667.21361
  19325154.1484  -22605242.27648 -17199571.93862
  21269480.569   -10408547.894 6  -8081107.22221
  20754277.9764  -12371069.76647  -9429774.69562
 91  4 30  1 15 14.9950000  0  4G 2G13G 6G12
  21971862.7734    6819318.10946   5356509.72361
  19328137.7884  -22589567.81048 -17187358.06862
  21277664.194   -10365547.306 6  -8047600.31821
  20745938.2414  -12414895.84947  -9463924.86362
 91  4 30  1 15 29.9950000  0  4G 2G13G 6G12
  21977449.335     6848691.952 6   5379398.38921
  19331139.9294  -22573792.98748 -17175066.00262
  21285866.491   -10322444.576 6  -8014013.82221
  20737616.1794  -12458630.32647  -9498003.64662
 91  4 30  1 15 44.9950000  0  4G 2G13G 6G12
  21983054.1944    6878127.34246   5402335.01061
  19334161.9994  -22557915.82648 -17162694.19162
  21294089.405   -10279237.471 6  -7980345.99921
  20729311.874   -12502270.471 7  -9532008.93022
 91  4 30  1 15 59.9950000  0  4G 2G13G 6G12
  21988664.7734    6907621.53346   5425317.45361
  19337201.5774  -22541939.16148 -17150244.84262
  21302329.843   -10235929.119 6  -7946599.28021
  20721025.179   -12545818.666 7  -9565942.55922
 91  4 30  1 16 14.9950000  0  4G 2G13G 6G12
  21994290.6874    6937175.39146   5448346.39961
  19340261.4684  -22525862.48548 -17137717.56162
  21310589.249   -10192518.703 6  -7912773.03021
  20712755.601   -12589273.458 7  -9599803.41922
 91  4 30  1 16 29.9950000  0  4G 2G13G 6G12
  21999925.1944    6966792.12546   5471424.32961
  19343339.9214  -22509682.93248 -17125110.12362
  21318868.944   -10149003.301 6  -7878864.97521
  20704504.515   -12632631.385 7  -9633588.79322
 91  4 30  1 16 44.9950000  0  4G 2G13G 6G12
  22005574.4524    6996465.34546   5494546.28561
  19346437.1324  -22493407.31748 -17112427.82262
  21327168.4764  -10105389.87746  -7844880.53361
  20696271.640   -12675898.851 7  -9667303.67722
 91  4 30  1 16 59.9950000  0  4G 2G13G 6G12
  22011232.1084    7026186.20446   5517705.35861
  19349551.4834  -22477044.56648 -17099677.63662
  21335486.398   -10061687.478 6  -7810826.76421
  20688053.226   -12719084.051 7  -9700954.45922
 91  4 30  1 17 14.9950000  0  4G 2G13G 6G12
  22016894.9604    7055958.51846   5540904.52361
  19352682.437   -22460591.218 8 -17086856.85922
  21343822.726   -10017892.259 6  -7776700.66821
  20679853.2804  -12762182.76347  -9734537.84062
 91  4 30  1 17 29.9950000  0  4G 2G13G 6G12
  22022571.2734    7085780.57546   5564142.44861
  19355829.2334  -22444049.43148 -17073967.16362
  21352172.304    -9974006.418 6  -7742503.96121
  20671667.6554  -12805196.42447  -9768054.94762
 91  4 30  1 17 44.9950000  0  4G 2G13G 6G12
  22028253.562     7115649.237 6   5587416.68221
  19358993.7734  -22427422.60448 -17061011.19462
  21360539.116    -9930033.312 6  -7708239.24721
  20663496.944   -12848127.887 7  -9801508.01622
 91  4 30  1 17 59.9950000  0  4G 2G13G 6G12
  22033942.8044    7145554.31246   5610719.30761
  19362172.6324  -22410721.17548 -17047997.09662
  21368920.718    -9885983.471 6  -7673914.74721
  20655341.0854  -12890987.02447  -9834904.72162
 91  4 30  1 18 14.9950000  0  4G 2G13G 6G12
  22039643.8044    7175500.36346   5634053.84561
  19365365.8124  -22393940.64048 -17034921.36462
  21377319.858    -9841852.403 6  -7639526.95421
  20647199.999   -12933768.650 7  -9868241.02722
 91  4 30  1 18 29.9950000  0  4G 2G13G 6G12
  22045348.8744    7205496.34146   5657427.29961
  19368575.5854  -22377072.63548 -17021777.46762
  21385735.132    -9797631.519 6  -7605069.15921
  20639075.726   -12976463.605 7  -9901509.80222
 91  4 30  1 18 44.9950000  0  4G 2G13G 6G12
  22051069.1944    7235538.72246   5680836.90261
  19371801.0464  -22360120.84748 -17008568.28262
  21394166.421    -9753324.706 6  -7570544.42821
  20630966.9134  -13019075.04747  -9934713.49662
 91  4 30  1 18 59.9950000  0  4G 2G13G 6G12
  22056794.8434    7265629.29546   5704284.06361
  19375042.3194  -22343083.92448 -16995292.75662
  21402615.405    -9708930.458 6  -7535951.55821
  20622873.952   -13061600.980 7  -9967850.56622
 91  4 30  1 19 14.9950000  0  4G 2G13G 6G12
  22062529.265     7295765.807 6   5727767.01321
  19378299.9684  -22325964.32748 -16981952.80962
  21411078.960    -9664451.307 6  -7501292.52621
  20614797.608   -13104043.332 7 -10000922.50522
 91  4 30  1 19 29.9950000  0  4G 2G13G 6G12
  22068274.3044    7325951.68146   5751288.43061
  19381574.6944  -22308758.91248 -16968546.00362
  21419558.515    -9619884.160 6  -7466564.92721
  20606737.546   -13146398.410 7 -10033926.43922
 91  4 30  1 19 44.9950000  0  4G 2G13G 6G12
  22074029.3194    7356190.46146   5774851.08061
  19384865.8514  -22291464.39148 -16955069.75662
  21428059.640    -9575225.435 6  -7431765.97021
  20598694.585   -13188661.937 7 -10066859.03922
 91  4 30  1 19 59.9950000  0  4G 2G13G 6G12
  22079789.7024    7386479.30846   5798452.73461
  19388172.5384  -22274083.83048 -16941526.46162
  21436575.874    -9530478.438 6  -7396898.22921
  20590669.030   -13230836.482 7 -10099722.30322
 91  4 30  1 20 14.9950000  0  4G 2G13G 6G12
  22085565.108     7416825.744 6   5822099.26521
  19391498.4524  -22256610.03248 -16927910.51262
  21445108.187    -9485635.697 6  -7361955.87921
  20582662.335   -13272914.006 7 -10132509.96822
 91  4 30  1 20 29.9950000  0  4G 2G13G 6G12
  22091352.710     7447229.021 6   5845790.08921
  19394840.5234  -22239044.08948 -16914222.76762
  21453657.898    -9440698.293 6  -7326939.77421
  20574675.335   -13314894.887 7 -10165222.32322
 91  4 30  1 20 44.9950000  0  4G 2G13G 6G12
  22097146.046     7477685.114 6   5869522.06821
  19398200.0544  -22221390.21248 -16900466.51162
  21462226.648    -9395670.690 6  -7291853.37921
  20566703.694   -13356783.111 7 -10197862.47722
 91  4 30  1 20 59.9950000  0  4G 2G13G 6G12
  22102951.0464    7508191.28946   5893293.07261
  19401576.9764  -22203651.65348 -16886644.25062
  21470810.648    -9350555.905 6  -7256699.05121
  20558749.366   -13398580.944 7 -10230432.20022
 91  4 30  1 21 14.9950000  0  4G 2G13G 6G12
  22108768.202     7538742.490 6   5917099.17321
  19404965.6714  -22185833.54248 -16872760.01162
  21479410.554    -9305359.051 6  -7221480.77321
  20550811.023   -13440292.871 7 -10262934.98222
 91  4 30  1 21 29.9950000  0  4G 2G13G 6G12
  22114588.5384    7569343.21145   5940943.85561
  19408372.8354  -22167931.75148 -16858810.56562
  21488030.554    -9260076.037 6  -7186195.36521
  20542891.273   -13481914.289 7 -10295367.24022
 91  4 30  1 21 44.9950000  0  4G 2G13G 6G12
  22120419.788     7599986.854 5   5964821.98121
  19411795.0774  -22149953.22348 -16844801.32462
  21496660.952    -9214713.746 6  -7150848.17321
  20534987.460   -13523451.472 7 -10327733.85822
 91  4 30  1 21 59.9950000  0  4G 2G13G 6G12
  22126257.3124    7630672.68545   5988732.98361
  19415230.5854  -22131898.86948 -16830733.00562
  21505307.788    -9169273.114 6  -7115439.94221
  20527097.429   -13564904.800 7 -10360035.13122
 91  4 30  1 22 14.9950000  0  4G 2G13G 6G12
  22132111.148     7661406.194 5   6012681.12921
  19418681.4524  -22113763.45548 -16816601.51662
  21513970.530    -9123748.980 6  -7079966.63621
  20519226.366   -13606268.250 7 -10392266.37322
 91  4 30  1 22 29.9950000  0  4G 2G13G 6G12
  22137968.4134    7692188.86046   6036667.59161
  19422147.6714  -22095545.81448 -16802405.96262
  21522650.460    -9078140.104 6  -7044427.30421
  20511374.085   -13647539.966 7 -10424426.13222
 91  4 30  1 22 44.9950000  0  4G 2G13G 6G12
  22143834.804     7723021.183 5   6060692.72121
  19425630.5774  -22077245.57048 -16788146.04062
  21531345.866    -9032446.256 6  -7008821.76121
  20503537.827   -13688719.252 7 -10456513.86622
 91  4 30  1 22 59.9950000  0  4G 2G13G 6G12
  22149708.335     7753904.075 5   6084757.27821
  19429128.7804  -22058862.39448 -16773821.49162
  21540058.858    -8986666.845 6  -6973149.54821
  20495718.179   -13729804.744 7 -10488528.51422
 91  4 30  1 23 14.9950000  0  4G 2G13G 6G12
  22155594.0154    7784830.44545   6108855.70761
  19432641.4604  -22040403.65848 -16759438.06362
  21548783.968    -8940809.173 6  -6937416.34421
  20487917.788   -13770803.109 7 -10520475.27122
 91  4 30  1 23 29.9950000  0  4G 2G13G 6G12
  22161488.476     7815808.912 5   6132994.72921
  19436170.0624  -22021861.08748 -16744989.30962
  21557528.632    -8894864.989 6  -6901615.73821
  20480133.702   -13811705.585 7 -10552347.30622
 91  4 30  1 23 44.9950000  0  4G 2G13G 6G12
  22167393.335     7846833.431 5   6157169.62821
  19439713.6484  -22003240.94048 -16730480.11162
  21566285.062    -8848840.510 6  -6865752.56221
  20472366.7734  -13852517.73147 -10584148.95562
 91  4 30  1 23 59.9950000  0  4G 2G13G 6G12
  22173309.312     7877910.606 5   6181385.56421
  19443271.9834  -21984536.94948 -16715905.58062
  21575060.694    -8802729.460 6  -6829821.92821
  20464620.780   -13893232.603 7 -10615874.81322
 91  4 30  1 24 14.9950000  0  4G 2G13G 6G12
  22179228.108     7909035.569 5   6205638.74721
  19446846.1084  -21965754.27948 -16701269.73862
  21583851.304    -8756536.966 6  -6793827.83221
  20456889.108   -13933854.639 7 -10647528.33022
 91  4 30  1 24 29.9950000  0  4G 2G13G 6G12
  22185163.023     7940211.050 5   6229931.27421
  19450436.9994  -21946890.22948 -16686570.47862
  21592655.179    -8710260.646 6  -6757768.41021
  20449179.194   -13974380.840 8 -10679107.16422
 91  4 30  1 24 44.9950000  0  4G 2G13G 6G12
  22191104.4604    7971434.34645   6254261.06661
  19454040.5234  -21927947.94648 -16671810.26962
  21601476.319    -8663903.328 6  -6721645.88821
  20441482.890   -14014813.373 7 -10710613.02022
 91  4 30  1 24 59.9950000  0  4G 2G13G 6G12
  22197058.757     8002705.680 5   6278628.29721
  19457660.8194  -21908927.23548 -16656988.93862
  21610316.1404   -8617465.09946  -6685460.30661
  20433807.671   -14055151.738 8 -10742045.48822
 91  4 30  1 25 14.9950000  0  4G 2G13G 6G12
  22203017.398     8034024.346 5   6303032.40421
  19461295.1484  -21889829.31448 -16642107.43762
  21619165.718    -8570946.902 6  -6649212.41621
  20426148.515   -14095396.311 8 -10773404.88422
 91  4 30  1 25 29.9950000  0  4G 2G13G 6G12
  22208984.7104    8065392.69745   6327475.24261
  19464944.2734  -21870652.35048 -16627164.35262
  21628036.0464   -8524346.93446  -6612900.81461
  20418509.241   -14135544.431 8 -10804689.11022
 91  4 30  1 25 44.9950000  0  4G 2G13G 6G12
  22214961.601     8096809.156 5   6351955.54921
  19468606.4764  -21851397.74748 -16612160.76462
  21636915.702    -8477666.651 6  -6576526.61221
  20410888.132   -14175597.144 8 -10835898.99922
 91  4 30  1 25 59.9950000  0  4G 2G13G 6G12
  22220949.4684    8128264.65745   6376466.29461
  19472285.0774  -21832075.13948 -16597104.19362
  21645812.655    -8430915.555 6  -6540097.24221
  20403281.952   -14215563.173 8 -10867041.34022
 91  4 30  1 26 14.9950000  0  4G 2G13G 6G12
  22226945.726     8159764.606 5   6401011.66321
  19475974.8984  -21812679.41548 -16581990.64562
  21654724.8194   -8384088.66646  -6503608.81961
  20395694.585   -14255436.870 8 -10898111.73822
 91  4 30  1 26 29.9950000  0  4G 2G13G 6G12
  22232945.804     8191312.117 5   6425594.09821
  19479680.3984  -21793207.63048 -16566817.83362
  21663649.1014   -8337183.00246  -6467059.00861
  20388125.148   -14295214.701 8 -10929107.43422
 91  4 30  1 26 44.9950000  0  4G 2G13G 6G12
  22238960.093     8222906.695 5   6450213.20921
  19483399.9684  -21773660.68848 -16551586.45762
  21672591.9444   -8290199.47146  -6430448.51961
  20380574.062   -14334896.902 8 -10960028.61022
 91  4 30  1 26 59.9950000  0  4G 2G13G 6G12
  22244980.101     8254545.006 5   6474866.39421
  19487133.6244  -21754042.04548 -16536299.20262
  21681547.2494   -8243141.65246  -6393780.14461
  20373040.577   -14374486.341 8 -10990877.50422
 91  4 30  1 27 14.9950000  0  4G 2G13G 6G12
  22251006.8274    8286222.72445   6499550.30061
  19490880.3434  -21734356.16348 -16520959.55562
  21690514.882    -8196013.925 6  -6357057.29621
  20365524.187   -14413986.836 8 -11021657.09622
 91  4 30  1 27 29.9950000  0  4G 2G13G 6G12
  22257046.288     8317942.988 5   6524267.33421
  19494640.0074  -21714600.47848 -16505565.51962
  21699494.7964   -8148813.50346  -6320277.80661
  20358023.351   -14453394.968 8 -11052364.71122
 91  4 30  1 27 44.9950000  0  4G 2G13G 6G12
  22263090.655     8349712.624 5   6549022.85421
  19498414.5154  -21694768.37148 -16490111.93162
  21708493.8354   -8101533.92946  -6283436.63861
  20350542.523   -14492703.699 8 -11082994.87422
 91  4 30  1 27 59.9950000  0  4G 2G13G 6G12
  22269142.6084    8381526.08545   6573812.52661
  19502200.4294  -21674865.70848 -16474603.36162
  21717503.999    -8054181.064 6  -6246538.34921
  20343082.648   -14531918.270 8 -11113551.65822
 91  4 30  1 28 14.9950000  0  4G 2G13G 6G12
  22275203.8984    8413384.60145   6598637.30461
  19506001.4444  -21654891.36148 -16459038.93662
  21726529.4994   -8006753.86846  -6209582.15561
  20335637.085   -14571036.806 8 -11144033.61223
 91  4 30  1 28 29.9950000  0  4G 2G13G 6G12
  22281277.5544    8445284.34745   6623494.21161
  19509815.0464  -21634849.73748 -16443422.09262
  21735568.6874   -7959256.54846  -6172571.31261
  20328210.624   -14610063.079 8 -11174443.67623
 91  4 30  1 28 44.9950000  0  4G 2G13G 6G12
  22287356.499     8477234.338 5   6648390.26721
  19513644.9214  -21614731.80048 -16427745.78762
  21744623.765    -7911680.195 6  -6135498.88921
  20320803.694   -14648987.576 8 -11204774.43223
 91  4 30  1 28 59.9950000  0  4G 2G13G 6G12
  22293442.2264    8509230.78045   6673322.53161
  19517487.0154  -21594541.58748 -16412013.15662
  21753689.8044   -7864028.86146  -6098368.03961
  20313415.585   -14687813.527 8 -11235028.39422
 91  4 30  1 29 14.9950000  0  4G 2G13G 6G12
  22299541.3194    8541270.76645   6698288.71061
  19521341.1634  -21574282.55848 -16396226.90662
  21762770.226    -7816305.857 6  -6061181.34621
  20306044.171   -14726543.696 8 -11265207.73022
 91  4 30  1 29 29.9950000  0  4G 2G13G 6G12
  22305649.210     8573360.910 5   6723293.96821
  19525210.2334  -21553948.24048 -16380381.99162
  21771866.530    -7768504.807 6  -6023933.83221
  20298694.944   -14765170.940 8 -11295306.86022
 91  4 30  1 29 44.9950000  0  4G 2G13G 6G12
  22311764.9134    8605505.88045   6748341.96361
  19529095.6084  -21533534.23748 -16364474.97762
  21780977.718    -7720621.353 6  -5986622.10721
  20291365.429   -14803690.302 8 -11325321.92923
 91  4 30  1 29 59.9950000  0  4G 2G13G 6G12
  22317894.1084    8637707.98845   6773434.46661
  19532994.9604  -21513038.61248 -16348504.36762
  21790105.9134   -7672653.44046  -5949244.57761
  20284055.554   -14842099.204 8 -11355250.92922
 91  4 30  1 30 14.9950000  0  4G 2G13G 6G12
  22324032.483     8669976.443 5   6798578.66921
  19536913.2804  -21492452.35748 -16332463.13562
  21799252.6634   -7624592.13246  -5911794.26361
  20276770.444   -14880388.161 8 -11385086.46123
 91  4 30  1 30 29.9950000  0  4G 2G13G 6G12
  22330186.9294    8702306.94745   6823771.22861
  19540846.1874  -21471780.14248 -16316354.92162
  21808415.812    -7576442.080 6  -5874274.78621
  20269506.171   -14918561.116 8 -11414831.60023
 91  4 30  1 30 44.9950000  0  4G 2G13G 6G12
  22336351.421     8734691.866 5   6849006.19221
  19544794.8044  -21451029.67048 -16300185.72262
  21817592.8984   -7528211.13846  -5836692.30461
  20262262.296   -14956625.200 8 -11444491.91322
 91  4 30  1 30 59.9950000  0  4G 2G13G 6G12
  22342524.0154    8767135.82945   6874287.15661
  19548758.7654  -21430196.78548 -16283952.30862
  21826787.4914   -7479894.89246  -5799043.34161
  20255040.319   -14994575.383 8 -11474063.46623
 91  4 30  1 31 14.9950000  0  4G 2G13G 6G12
  22348707.5074    8799637.19045   6899612.84961
  19552739.9214  -21409283.30748 -16267656.09862
  21836000.7264   -7431495.33446  -5761329.45361
  20247840.421   -15032412.935 8 -11503547.25023
 91  4 30  1 31 29.9950000  0  4G 2G13G 6G12
  22354902.1014    8832195.05645   6924982.57661
  19556733.8514  -21388290.22048 -16251297.85162
  21845224.2414   -7383013.60446  -5723551.54261
  20240661.116   -15070138.393 8 -11532943.69523
 91  4 30  1 31 44.9950000  0  4G 2G13G 6G12
  22361111.0854    8864810.60745   6950397.25561
  19560745.2654  -21367216.92348 -16234877.10162
  21854465.6324   -7334448.95846  -5685709.01961
  20233505.319   -15107750.334 8 -11562251.68123
 91  4 30  1 31 59.9950000  0  4G 2G13G 6G12
  22367327.991     8897479.613 5   6975853.57221
  19564768.7024  -21346067.78348 -16218397.25062
  21863721.9374   -7285805.72746  -5647805.26261
  20226368.163   -15145252.569 8 -11591474.18422
 91  4 30  1 32 14.9950000  0  4G 2G13G 6G12
  22373556.2184    8930205.85145   7001354.50861
  19568808.8354  -21324839.22548 -16201855.52062
  21872994.0854   -7237080.40746  -5609837.54061
  20219252.991   -15182640.883 8 -11620607.91523
